LiveATC.Net - Listen to live air traffic control over the Internet!
Airport/ARTCC Code
Frequency Search
(e.g., 124.400, 128.75)
Site-wide search
 


Browse Feeds
Top 50 Feeds
HF Oceanic Feeds
Coverage Map
Bad Weather Areas

LiveATC FAQ

Increase Coverage

Contact LiveATC.net
Press Inquiries

LiveATC on iPhone
LiveATC on Android

LiveATC Mobile
(Mobile browser)

ATC Audio Archives
Interesting Recordings

LiveATC Forums

Home Page
About LiveATC.net


Terms of Use
Privacy Policy

AIRMETs/SIGMETs

FAA Airport Status
NAS Status
Arrival Demand


Server Software By:
Icecast.org
Liquidsoap

Select an area of interest:
U.S. Feeds: Class B Airports | Class C Airports | Class D/Other Airports | ARTCC (Centers)
International Feeds: Canada | Europe | Oceania | Asia | South America | North/Central America | Africa
Misc Feeds: HF Feeds
Search by ICAO/IATA airport code:   (e.g., kbos, kjfk, lax, eham, etc.)


Currently Available Live Feeds: 3138
Status Updated: Wed Jul 24 2024 20:50:04 UTC


NOTICE

Unauthorized use prohibited. See LiveATC.net Terms of Service

U.S. Class D Airport and ARTCCC Feeds

 

KUES Del/Gnd/Twr/02C (Archives)
Brookfield, Wisconsin, United States

Feed Status: UP
Listen in your browser - HTML5 player(in browser, HTML5)
Click here to listen with your own player(launches your MP3 player)

KUES 241945Z 00000KT 10SM SCT031 OVC044 21/14 A3017

KUES Airport Info (Airnav.com)

KUES Flight Activity (Flightaware)

Listeners: 1 out of 2509 total

Capitol CTAF: 122.700
Waukesha Clearance Delivery: 128.700
Waukesha Ground: 121.600
Waukesha Tower: 123.700

06C CTAF (Archives)
Chicago/Schaumburg, Illinois, United States

Feed Status: UP
Listen in your browser - HTML5 player(in browser, HTML5)
Click here to listen with your own player(launches your MP3 player)

KORD 241951Z 05006KT 10SM BKN026 BKN040 24/18 A3013 RMK AO2 SLP200 T02390178

KORD Airport Info (Airnav.com)

KORD Flight Activity (Flightaware)

Listeners: 0 out of 2509 total

Schaumburg CTAF: 123.000

44N/06N CTAF
MIddletown, New York, United States

Feed Status: DOWN
Offline since: 2024-07-17 23:00:09 UTC

KSWF 241945Z VRB04KT 10SM SCT020 BKN050 28/21 A3008

KSWF Airport Info (Airnav.com)

44N Sky Acres CTAF: 122.800
Randall CTAF: 122.800

44N/06N CTAF
MIddletown, New York, United States

Feed Status: DOWN
Offline since: 2024-07-17 23:00:09 UTC

KSWF 241945Z VRB04KT 10SM SCT020 BKN050 28/21 A3008

KSWF Airport Info (Airnav.com)

44N Sky Acres CTAF: 122.800
Randall CTAF: 122.800

0V4 CTAF (Archives)
Brookneal, Virginia, United States

Feed Status: UP
Listen in your browser - HTML5 player(in browser, HTML5)
Click here to listen with your own player(launches your MP3 player)

K0V4 Airport Info (Airnav.com)

K0V4 Flight Activity (Flightaware)

Listeners: 1 out of 2509 total

Brookneal CTAF: 122.700

10C CTAF
Greenwood/Wonder Lake, Illinois, United States

Feed Status: DOWN
Offline since: 2024-07-15 02:53:21 UTC

3CK CTAF: 123.050
Greenwood CTAF: 122.800

16J CTAF (Archives)
Dawson, Georgia, United States

Feed Status: UP
Listen in your browser - HTML5 player(in browser, HTML5)
Click here to listen with your own player(launches your MP3 player)

K16J Airport Info (Airnav.com)

K16J Flight Activity (Flightaware)

Listeners: 0 out of 2509 total

Dawson CTAF: 122.800

SNJ Area CTAF 122.8 (Archives)
Cross Keys, New Jersey, United States

Feed Status: UP
Listen in your browser - HTML5 player(in browser, HTML5)
Click here to listen with your own player(launches your MP3 player)

KPNE 241954Z VRB03KT 10SM CLR 27/21 A3011 RMK AO2 SLP193 T02720211

KPNE Airport Info (Airnav.com)

KPNE Flight Activity (Flightaware)

Listeners: 0 out of 2509 total

CTAF: 122.800

MA/NH/RI/CT Area CTAF (Archives)
Hopedale, Massachusetts, United States

Feed Status: UP
Listen in your browser - HTML5 player(in browser, HTML5)
Click here to listen with your own player(launches your MP3 player)

KBOS 241954Z 06007KT 10SM SCT006 BKN009 OVC022 19/17 A3016 RMK AO2 SLP212 T01890172 $

KBOS Airport Info (Airnav.com)

KBOS Flight Activity (Flightaware)

Listeners: 1 out of 2509 total

Air-to-Air: 122.750
Bridgeport Flight Service: 122.200
CTAF: 122.700
CTAF: 122.800
CTAF: 122.900
CTAF: 123.000
Emergency/Guard: 121.500

MA/NH/RI/CT Area CTAF (Archives)
Hopedale, Massachusetts, United States

Feed Status: UP
Listen in your browser - HTML5 player(in browser, HTML5)
Click here to listen with your own player(launches your MP3 player)

KBOS 241954Z 06007KT 10SM SCT006 BKN009 OVC022 19/17 A3016 RMK AO2 SLP212 T01890172 $

KBOS Airport Info (Airnav.com)

KBOS Flight Activity (Flightaware)

Listeners: 1 out of 2509 total

Air-to-Air: 122.750
Bridgeport Flight Service: 122.200
CTAF: 122.700
CTAF: 122.800
CTAF: 122.900
CTAF: 123.000
Emergency/Guard: 121.500

MA/NH/RI/CT Area CTAF (Archives)
Hopedale, Massachusetts, United States

Feed Status: UP
Listen in your browser - HTML5 player(in browser, HTML5)
Click here to listen with your own player(launches your MP3 player)

KBOS 241954Z 06007KT 10SM SCT006 BKN009 OVC022 19/17 A3016 RMK AO2 SLP212 T01890172 $

KBOS Airport Info (Airnav.com)

KBOS Flight Activity (Flightaware)

Listeners: 1 out of 2509 total

Air-to-Air: 122.750
Bridgeport Flight Service: 122.200
CTAF: 122.700
CTAF: 122.800
CTAF: 122.900
CTAF: 123.000
Emergency/Guard: 121.500

1B9 Area Guard (Archives)
Mansfield, Massachusetts, United States

Feed Status: UP
Listen in your browser - HTML5 player(in browser, HTML5)
Click here to listen with your own player(launches your MP3 player)


Listeners: 0 out of 2509 total

Emergency/Guard: 121.500

1B9 CTAF #1 (Archives)
Mansfield, Massachusetts, United States

Feed Status: UP
Listen in your browser - HTML5 player(in browser, HTML5)
Click here to listen with your own player(launches your MP3 player)


Listeners: 0 out of 2509 total

Mansfield CTAF/UNICOM: 123.000

1B9 CTAF #2 (Archives)
Mansfield, Massachusetts, United States

Feed Status: UP
Listen in your browser - HTML5 player(in browser, HTML5)
Click here to listen with your own player(launches your MP3 player)


Listeners: 0 out of 2509 total

Mansfield CTAF/UNICOM: 123.000

1B9 CTAF/RCO (Archives)
Mansfield, Massachusetts, United States

Feed Status: UP
Listen in your browser - HTML5 player(in browser, HTML5)
Click here to listen with your own player(launches your MP3 player)


Listeners: 0 out of 2509 total

Bridgeport FSS (RCO): 122.500
Mansfield CTAF/UNICOM: 123.000

1B9 Del/RCO #1 (Archives)
Mansfield, Massachusetts, United States

Feed Status: UP
Listen in your browser - HTML5 player(in browser, HTML5)
Click here to listen with your own player(launches your MP3 player)


Listeners: 0 out of 2509 total

Mansfield Clearance Delivery (RCO): 122.500

1B9 Del/RCO #2 (Archives)
Mansfield, Massachusetts, United States

Feed Status: UP
Listen in your browser - HTML5 player(in browser, HTML5)
Click here to listen with your own player(launches your MP3 player)


Listeners: 0 out of 2509 total

Mansfield Clearance Delivery (RCO): 122.500

1C9 CTAF (Archives)
Hollister, California, United States

Feed Status: UP
Listen in your browser - HTML5 player(in browser, HTML5)
Click here to listen with your own player(launches your MP3 player)

K1C9 Airport Info (Airnav.com)

K1C9 Flight Activity (Flightaware)

Listeners: 0 out of 2509 total

Frazier CTAF: 123.050

KMHV Gnd/Twr/App/1CL2 (Archives)
Mojave, California, United States

Feed Status: UP
Listen in your browser - HTML5 player(in browser, HTML5)
Click here to listen with your own player(launches your MP3 player)

KMHV 242000Z AUTO VRB04KT 10SM CLR 39/11 A3011 RMK AO2

KMHV Airport Info (Airnav.com)

KMHV Flight Activity (Flightaware)

Listeners: 0 out of 2509 total

1CL2 Ancient Valley CTAF: 122.900
Joshua Approach/Departure (MHV/VHF): 133.650
Mojave Ground: 123.900
Mojave Tower/CTAF: 127.600

1G0 CTAF (Archives)
Bowling Green, Ohio, United States

Feed Status: UP
Listen in your browser - HTML5 player(in browser, HTML5)
Click here to listen with your own player(launches your MP3 player)


Listeners: 0 out of 2509 total

Wood County CTAF: 122.975

26MA CTAF (Archives)
Pepperell, Massachusetts, United States

Feed Status: UP
Listen in your browser - HTML5 player(in browser, HTML5)
Click here to listen with your own player(launches your MP3 player)

KMHT 241953Z 13006KT 10SM BKN024 OVC036 24/17 A3013 RMK AO2 SLP214 T02440172

KMHT Airport Info (Airnav.com)

KMHT Flight Activity (Flightaware)

Listeners: 0 out of 2509 total

CTAF: 123.050

MA/NH/RI/CT Area CTAF (Archives)
Newburyport, Massachusetts, United States

Feed Status: UP
Listen in your browser - HTML5 player(in browser, HTML5)
Click here to listen with your own player(launches your MP3 player)

KBOS 241954Z 06007KT 10SM SCT006 BKN009 OVC022 19/17 A3016 RMK AO2 SLP212 T01890172 $

KBOS Airport Info (Airnav.com)

KBOS Flight Activity (Flightaware)

Listeners: 1 out of 2509 total

Air-to-Air: 122.750
Bridgeport Flight Service: 122.200
CTAF: 122.700
CTAF: 122.800
CTAF: 122.900
CTAF: 123.000
Emergency/Guard: 121.500

MA/NH/RI/CT Area CTAF (Archives)
Newburyport, Massachusetts, United States

Feed Status: UP
Listen in your browser - HTML5 player(in browser, HTML5)
Click here to listen with your own player(launches your MP3 player)

KBOS 241954Z 06007KT 10SM SCT006 BKN009 OVC022 19/17 A3016 RMK AO2 SLP212 T01890172 $

KBOS Airport Info (Airnav.com)

KBOS Flight Activity (Flightaware)

Listeners: 1 out of 2509 total

Air-to-Air: 122.750
Bridgeport Flight Service: 122.200
CTAF: 122.700
CTAF: 122.800
CTAF: 122.900
CTAF: 123.000
Emergency/Guard: 121.500

MA/NH/RI/CT Area CTAF (Archives)
Newburyport, Massachusetts, United States

Feed Status: UP
Listen in your browser - HTML5 player(in browser, HTML5)
Click here to listen with your own player(launches your MP3 player)

KBOS 241954Z 06007KT 10SM SCT006 BKN009 OVC022 19/17 A3016 RMK AO2 SLP212 T01890172 $

KBOS Airport Info (Airnav.com)

KBOS Flight Activity (Flightaware)

Listeners: 1 out of 2509 total

Air-to-Air: 122.750
Bridgeport Flight Service: 122.200
CTAF: 122.700
CTAF: 122.800
CTAF: 122.900
CTAF: 123.000
Emergency/Guard: 121.500

2GC CTAF (Archives)
Fayetteville, North Carolina, United States

Feed Status: UP
Listen in your browser - HTML5 player(in browser, HTML5)
Click here to listen with your own player(launches your MP3 player)

KFAY 241953Z 22006KT 10SM FEW037 32/24 A3013 RMK AO2 SLP196 T03220239

KFAY Airport Info (Airnav.com)

KFAY Flight Activity (Flightaware)

Listeners: 0 out of 2509 total

Grays Creek CTAF: 122.900

2J6 CTAF (Archives)
Pierson, Florida, United States

Feed Status: UP
Listen in your browser - HTML5 player(in browser, HTML5)
Click here to listen with your own player(launches your MP3 player)

KDED 242010Z AUTO 08010KT 10SM SCT036 SCT047 SCT090 32/25 A3015 RMK AO2 T03210248

KDED Airport Info (Airnav.com)

KDED Flight Activity (Flightaware)

Listeners: 0 out of 2509 total

Pierson CTAF: 122.900

2NC0 CTAF (Archives)
Burnsville, North Carolina, United States

Feed Status: UP
Listen in your browser - HTML5 player(in browser, HTML5)
Click here to listen with your own player(launches your MP3 player)


Listeners: 0 out of 2509 total

Mountain Air CTAF: 122.725

2O3 CTAF (Archives)
Angwin, California, United States

Feed Status: UP
Listen in your browser - HTML5 player(in browser, HTML5)
Click here to listen with your own player(launches your MP3 player)


Listeners: 0 out of 2509 total

Angwin CTAF: 123.000

2W2 CTAF
Westminster, Maryland, United States

Feed Status: DOWN
Offline since: 2024-07-20 14:56:39 UTC

KDMW 242005Z AUTO 20004KT 10SM BKN035 BKN040 32/21 A3010 RMK AO2

KDMW Airport Info (Airnav.com)

Westminster CTAF: 122.800

38W CTAF (Archives)
Lynden, Washington, United States

Feed Status: UP
Listen in your browser - HTML5 player(in browser, HTML5)
Click here to listen with your own player(launches your MP3 player)


Listeners: 1 out of 2509 total

Lynden CTAF: 122.900

39N CTAF (Archives)
Princeton/Rocky Hill, New Jersey, United States

Feed Status: UP
Listen in your browser - HTML5 player(in browser, HTML5)
Click here to listen with your own player(launches your MP3 player)


Listeners: 0 out of 2509 total

Princeton CTAF: 122.725

3B0 CTAF
Southbridge, Massachusetts, United States

Feed Status: DOWN
Offline since: 2024-07-24 20:30:04 UTC

Southbridge CTAF: 122.800

10C/C81/3CK CTAF
Chicago/Lake In The Hills, Illinois, United States

Feed Status: DOWN
Offline since: 2024-07-15 02:53:21 UTC

3CK CTAF: 123.050
Greenwood CTAF: 122.800

3M5 CTAF
Huntsville, Alabama, United States

Feed Status: DOWN
Offline since: 2023-11-03 18:04:05 UTC

Moontown CTAF: 122.700

3N6 CTAF (Archives)
Old Bridge, New Jersey, United States

Feed Status: UP
Listen in your browser - HTML5 player(in browser, HTML5)
Click here to listen with your own player(launches your MP3 player)


Listeners: 0 out of 2509 total

Old Bridge CTAF: 123.075

KBLM/N12/3N6/KMJX (Archives)
Old Bridge, New Jersey, United States

Feed Status: UP
Listen in your browser - HTML5 player(in browser, HTML5)
Click here to listen with your own player(launches your MP3 player)

KBLM 241956Z AUTO 17007KT 10SM OVC110 27/22 A3010 RMK AO2 SLP191 T02670222

KBLM Airport Info (Airnav.com)

KBLM Flight Activity (Flightaware)

Listeners: 0 out of 2509 total

3N6 Old Bridge CTAF: 123.075
Emergency/Guard: 121.500
Monmouth Clearance: 120.950
Monmouth Clearance: 126.150
Monmouth CTAF: 123.000
N12 Lakewood CTAF: 122.800
Ocean County KMJX CTAF: 122.700

3R9 CTAF (Archives)
Lakeway, Texas, United States

Feed Status: UP
Listen in your browser - HTML5 player(in browser, HTML5)
Click here to listen with your own player(launches your MP3 player)


Listeners: 1 out of 2509 total

Lakeway CTAF: 123.000

44N/06N CTAF
Millbrook, New York, United States

Feed Status: DOWN
Offline since: 2024-07-17 23:00:09 UTC

KSWF 241945Z VRB04KT 10SM SCT020 BKN050 28/21 A3008

KSWF Airport Info (Airnav.com)

44N Sky Acres CTAF: 122.800
Randall CTAF: 122.800

44N/06N CTAF
Millbrook, New York, United States

Feed Status: DOWN
Offline since: 2024-07-17 23:00:09 UTC

KSWF 241945Z VRB04KT 10SM SCT020 BKN050 28/21 A3008

KSWF Airport Info (Airnav.com)

44N Sky Acres CTAF: 122.800
Randall CTAF: 122.800

46U AWOS (Archives)
Alpine, Wyoming, United States

Feed Status: UP
Listen in your browser - HTML5 player(in browser, HTML5)
Click here to listen with your own player(launches your MP3 player)


Listeners: 0 out of 2509 total

Alpine AWOS: 119.925

46U CTAF (Archives)
Alpine, Wyoming, United States

Feed Status: UP
Listen in your browser - HTML5 player(in browser, HTML5)
Click here to listen with your own player(launches your MP3 player)


Listeners: 0 out of 2509 total

Alpine CTAF: 122.900

47N CTAF (Archives)
Manville, New Jersey, United States

Feed Status: UP
Listen in your browser - HTML5 player(in browser, HTML5)
Click here to listen with your own player(launches your MP3 player)


Listeners: 0 out of 2509 total

Central Jersey CTAF: 122.700

4NY8 CTAF (Archives)
Elmira, New York, United States

Feed Status: UP
Listen in your browser - HTML5 player(in browser, HTML5)
Click here to listen with your own player(launches your MP3 player)

KELM 241953Z 21010KT 10SM SCT110 29/19 A3002 RMK AO2 LTG DSNT NE RAB24E34 SLP157 P0000 T02890194

KELM Airport Info (Airnav.com)

KELM Flight Activity (Flightaware)

Listeners: 0 out of 2509 total

Harris Gliderport CTAF: 123.300

4S1 CTAF (Archives)
Gold Beach, Oregon, United States

Feed Status: UP
Listen in your browser - HTML5 player(in browser, HTML5)
Click here to listen with your own player(launches your MP3 player)

K4S1 Airport Info (Airnav.com)

K4S1 Flight Activity (Flightaware)

Listeners: 0 out of 2509 total

Gold Beach CTAF: 122.800

52F CTAF (Archives)
Roanoke, Texas, United States

Feed Status: UP
Listen in your browser - HTML5 player(in browser, HTML5)
Click here to listen with your own player(launches your MP3 player)

KAFW 241953Z 07007G16KT 10SM SCT046 33/19 A3010 RMK AO2 SLP177 T03280189

KAFW Airport Info (Airnav.com)

KAFW Flight Activity (Flightaware)

Listeners: 0 out of 2509 total

52F CTAF: 122.900

52F CTAF #1 (Archives)
Roanoke, Texas, United States

Feed Status: UP
Listen in your browser - HTML5 player(in browser, HTML5)
Click here to listen with your own player(launches your MP3 player)


Listeners: 0 out of 2509 total

52F CTAF: 122.900

52F Emergency/Guard (Archives)
Roanoke, Texas, United States

Feed Status: UP
Listen in your browser - HTML5 player(in browser, HTML5)
Click here to listen with your own player(launches your MP3 player)


Listeners: 0 out of 2509 total

Emergency/Guard: 121.500

54AZ CTAF (Archives)
Somerton, Arizona, United States

Feed Status: UP
Listen in your browser - HTML5 player(in browser, HTML5)
Click here to listen with your own player(launches your MP3 player)


Listeners: 0 out of 2509 total

Somerton CTAF: 123.000

KMTC Area CTAF (Archives)
Ray, Michigan, United States

Feed Status: UP
Listen in your browser - HTML5 player(in browser, HTML5)
Click here to listen with your own player(launches your MP3 player)

KMTC 241956Z 28009KT 10SM SCT045 BKN055 24/16 A3003 RMK AO2A SLP171 T02420164 $

KMTC Airport Info (Airnav.com)

KMTC Flight Activity (Flightaware)

Listeners: 0 out of 2509 total

Air to Air: 123.450
Marine City CTAF (76G): 123.000
Port Huron CTAF: 123.050
Ray CTAF: 122.700
Romeo CTAF: 122.800
St Clair CTAF: 122.800
Troy CTAF: 123.050

5A2/5GE1 CTAF (Archives)
Warner Robins, Georgia, United States

Feed Status: UP
Listen in your browser - HTML5 player(in browser, HTML5)
Click here to listen with your own player(launches your MP3 player)


Listeners: 1 out of 2509 total

Warner Robins/Peachtree Landings CTAF: 122.900

5C1 CTAF (Archives)
San Antonio, Texas, United States

Feed Status: UP
Listen in your browser - HTML5 player(in browser, HTML5)
Click here to listen with your own player(launches your MP3 player)

K5C1 242015Z AUTO 15007KT 10SM SCT040 BKN050 BKN080 28/22 A3010 RMK AO1

K5C1 Airport Info (Airnav.com)

K5C1 Flight Activity (Flightaware)

Listeners: 0 out of 2509 total

Boerne Stage CTAF: 123.000

5A2/5GE1 CTAF (Archives)
Fort Valley, Georgia, United States

Feed Status: UP
Listen in your browser - HTML5 player(in browser, HTML5)
Click here to listen with your own player(launches your MP3 player)


Listeners: 1 out of 2509 total

Warner Robins/Peachtree Landings CTAF: 122.900

KMTC Area CTAF (Archives)
St Clair, Michigan, United States

Feed Status: UP
Listen in your browser - HTML5 player(in browser, HTML5)
Click here to listen with your own player(launches your MP3 player)

KMTC 241956Z 28009KT 10SM SCT045 BKN055 24/16 A3003 RMK AO2A SLP171 T02420164 $

KMTC Airport Info (Airnav.com)

KMTC Flight Activity (Flightaware)

Listeners: 0 out of 2509 total

Air to Air: 123.450
Marine City CTAF (76G): 123.000
Port Huron CTAF: 123.050
Ray CTAF: 122.700
Romeo CTAF: 122.800
St Clair CTAF: 122.800
Troy CTAF: 123.050

West Palm Beach Area CTAFs (Archives)
West Palm Beach, Florida, United States

Feed Status: UP
Listen in your browser - HTML5 player(in browser, HTML5)
Click here to listen with your own player(launches your MP3 player)

KPBI 241953Z 11014KT 10SM SCT025 SCT041 33/26 A3016 RMK AO2 SLP211 T03280261 $

KPBI Airport Info (Airnav.com)

KPBI Flight Activity (Flightaware)

Listeners: 0 out of 2509 total

Emergency/Guard: 121.500
Lantana CTAF: 122.700
North County CTAF: 123.075
St Marys Hospital Heliport: 122.800
Wellington CTAF: 122.850

MA/NH CTAF 122.8 (Archives)
Stow, Massachusetts, United States

Feed Status: UP
Listen in your browser - HTML5 player(in browser, HTML5)
Click here to listen with your own player(launches your MP3 player)

KMHT 241953Z 13006KT 10SM BKN024 OVC036 24/17 A3013 RMK AO2 SLP214 T02440172

KMHT Airport Info (Airnav.com)

KMHT Flight Activity (Flightaware)

Listeners: 0 out of 2509 total

MA/NH Area CTAF: 122.800

MA/NH/RI/CT Area CTAF (Archives)
Stow, Massachusetts, United States

Feed Status: UP
Listen in your browser - HTML5 player(in browser, HTML5)
Click here to listen with your own player(launches your MP3 player)

KBOS 241954Z 06007KT 10SM SCT006 BKN009 OVC022 19/17 A3016 RMK AO2 SLP212 T01890172 $

KBOS Airport Info (Airnav.com)

KBOS Flight Activity (Flightaware)

Listeners: 1 out of 2509 total

Air-to-Air: 122.750
Bridgeport Flight Service: 122.200
CTAF: 122.700
CTAF: 122.800
CTAF: 122.900
CTAF: 123.000
Emergency/Guard: 121.500

MA/NH/RI/CT Area CTAF (Archives)
Stow, Massachusetts, United States

Feed Status: UP
Listen in your browser - HTML5 player(in browser, HTML5)
Click here to listen with your own player(launches your MP3 player)

KBOS 241954Z 06007KT 10SM SCT006 BKN009 OVC022 19/17 A3016 RMK AO2 SLP212 T01890172 $

KBOS Airport Info (Airnav.com)

KBOS Flight Activity (Flightaware)

Listeners: 1 out of 2509 total

Air-to-Air: 122.750
Bridgeport Flight Service: 122.200
CTAF: 122.700
CTAF: 122.800
CTAF: 122.900
CTAF: 123.000
Emergency/Guard: 121.500

MA/NH/RI/CT Area CTAF (Archives)
Stow, Massachusetts, United States

Feed Status: UP
Listen in your browser - HTML5 player(in browser, HTML5)
Click here to listen with your own player(launches your MP3 player)

KBOS 241954Z 06007KT 10SM SCT006 BKN009 OVC022 19/17 A3016 RMK AO2 SLP212 T01890172 $

KBOS Airport Info (Airnav.com)

KBOS Flight Activity (Flightaware)

Listeners: 1 out of 2509 total

Air-to-Air: 122.750
Bridgeport Flight Service: 122.200
CTAF: 122.700
CTAF: 122.800
CTAF: 122.900
CTAF: 123.000
Emergency/Guard: 121.500

KMTC Area CTAF (Archives)
Marine City, Michigan, United States

Feed Status: UP
Listen in your browser - HTML5 player(in browser, HTML5)
Click here to listen with your own player(launches your MP3 player)

KMTC 241956Z 28009KT 10SM SCT045 BKN055 24/16 A3003 RMK AO2A SLP171 T02420164 $

KMTC Airport Info (Airnav.com)

KMTC Flight Activity (Flightaware)

Listeners: 0 out of 2509 total

Air to Air: 123.450
Marine City CTAF (76G): 123.000
Port Huron CTAF: 123.050
Ray CTAF: 122.700
Romeo CTAF: 122.800
St Clair CTAF: 122.800
Troy CTAF: 123.050

7B2 CTAF (Archives)
Northampton, Massachusetts, United States

Feed Status: UP
Listen in your browser - HTML5 player(in browser, HTML5)
Click here to listen with your own player(launches your MP3 player)


Listeners: 0 out of 2509 total

Northampton CTAF: 122.700

MA/NH CTAF 122.8 (Archives)
Hampton, New Hampshire, United States

Feed Status: UP
Listen in your browser - HTML5 player(in browser, HTML5)
Click here to listen with your own player(launches your MP3 player)

KMHT 241953Z 13006KT 10SM BKN024 OVC036 24/17 A3013 RMK AO2 SLP214 T02440172

KMHT Airport Info (Airnav.com)

KMHT Flight Activity (Flightaware)

Listeners: 0 out of 2509 total

MA/NH Area CTAF: 122.800

7FL6 CTAF (Archives)
Daytona Beach, Florida, United States

Feed Status: UP
Listen in your browser - HTML5 player(in browser, HTML5)
Click here to listen with your own player(launches your MP3 player)

KDED 242010Z AUTO 08010KT 10SM SCT036 SCT047 SCT090 32/25 A3015 RMK AO2 T03210248

KDED Airport Info (Airnav.com)

KDED Flight Activity (Flightaware)

Listeners: 0 out of 2509 total

Spruce Creek CTAF/UNICOM: 122.725

7S5 CTAF
Independence, Oregon, United States

Feed Status: DOWN
Offline since: 2024-02-26 00:29:22 UTC

Independence CTAF/UNICOM: 122.975

7W4 CTAF (Archives)
Bumpass, Virginia, United States

Feed Status: UP
Listen in your browser - HTML5 player(in browser, HTML5)
Click here to listen with your own player(launches your MP3 player)

KLKU 242015Z AUTO 18005KT 10SM SCT021 SCT036 BKN045 29/23 A3010 RMK AO2 T02850233

KLKU Airport Info (Airnav.com)

KLKU Flight Activity (Flightaware)

Listeners: 0 out of 2509 total

Bumpass CTAF: 122.900

9S5 CTAF (Archives)
Three Forks, Montana, United States

Feed Status: UP
Listen in your browser - HTML5 player(in browser, HTML5)
Click here to listen with your own player(launches your MP3 player)

KBZN 241956Z 30017G25KT 10SM FEW110 32/12 A3016 RMK AO2 SLP165 T03170122

KBZN Airport Info (Airnav.com)

KBZN Flight Activity (Flightaware)

Listeners: 0 out of 2509 total

Three Forks CTAF: 122.800

B18/Lake Area CTAF (Archives)
Alton Bay, New Hampshire, United States

Feed Status: UP
Listen in your browser - HTML5 player(in browser, HTML5)
Click here to listen with your own player(launches your MP3 player)

KLCI 241956Z AUTO 13007KT 10SM OVC023 23/18 A3016 RMK AO2 SLP212 T02280178 PNO $

KLCI Airport Info (Airnav.com)

KLCI Flight Activity (Flightaware)

Listeners: 0 out of 2509 total

NH Area CTAF (Lakes Region): 122.800

C29 CTAF (Archives)
Middleton, Wisconsin, United States

Feed Status: UP
Listen in your browser - HTML5 player(in browser, HTML5)
Click here to listen with your own player(launches your MP3 player)

KC29 242015Z AUTO 00000KT 10SM OVC037 23/16 A3018 RMK AO1 T02270157

KC29 Airport Info (Airnav.com)

KC29 Flight Activity (Flightaware)

Listeners: 0 out of 2509 total

Morey CTAF: 123.000

10C/C81/3CK CTAF
Grayslake, Illinois, United States

Feed Status: DOWN
Offline since: 2024-07-15 02:53:21 UTC

3CK CTAF: 123.050
Greenwood CTAF: 122.800

KMTC Area CTAF (Archives)
Romeo, Michigan, United States

Feed Status: UP
Listen in your browser - HTML5 player(in browser, HTML5)
Click here to listen with your own player(launches your MP3 player)

KMTC 241956Z 28009KT 10SM SCT045 BKN055 24/16 A3003 RMK AO2A SLP171 T02420164 $

KMTC Airport Info (Airnav.com)

KMTC Flight Activity (Flightaware)

Listeners: 0 out of 2509 total

Air to Air: 123.450
Marine City CTAF (76G): 123.000
Port Huron CTAF: 123.050
Ray CTAF: 122.700
Romeo CTAF: 122.800
St Clair CTAF: 122.800
Troy CTAF: 123.050

West Palm Beach Area CTAFs (Archives)
West Palm Beach, Florida, United States

Feed Status: UP
Listen in your browser - HTML5 player(in browser, HTML5)
Click here to listen with your own player(launches your MP3 player)

KPBI 241953Z 11014KT 10SM SCT025 SCT041 33/26 A3016 RMK AO2 SLP211 T03280261 $

KPBI Airport Info (Airnav.com)

KPBI Flight Activity (Flightaware)

Listeners: 0 out of 2509 total

Emergency/Guard: 121.500
Lantana CTAF: 122.700
North County CTAF: 123.075
St Marys Hospital Heliport: 122.800
Wellington CTAF: 122.850

KGIF/F57 CTAF (Archives)
Winter Haven, Florida, United States

Feed Status: UP
Listen in your browser - HTML5 player(in browser, HTML5)
Click here to listen with your own player(launches your MP3 player)

KGIF 242010Z AUTO 18009KT 10SM BKN055 BKN070 31/24 A3015 RMK AO2 LTG DSNT SE T03110244

KGIF Airport Info (Airnav.com)

KGIF Flight Activity (Flightaware)

Listeners: 0 out of 2509 total

Winter Haven CTAF: 123.050
Winter Haven Temp. Tower (only during Sun 'n Fun): 119.125

FA40 CTAF (Archives)
New Port Richey, Florida, United States

Feed Status: UP
Listen in your browser - HTML5 player(in browser, HTML5)
Click here to listen with your own player(launches your MP3 player)


Listeners: 0 out of 2509 total

Hidden Lake CTAF: 123.000

West Palm Beach Area CTAFs (Archives)
West Palm Beach, Florida, United States

Feed Status: UP
Listen in your browser - HTML5 player(in browser, HTML5)
Click here to listen with your own player(launches your MP3 player)

KPBI 241953Z 11014KT 10SM SCT025 SCT041 33/26 A3016 RMK AO2 SLP211 T03280261 $

KPBI Airport Info (Airnav.com)

KPBI Flight Activity (Flightaware)

Listeners: 0 out of 2509 total

Emergency/Guard: 121.500
Lantana CTAF: 122.700
North County CTAF: 123.075
St Marys Hospital Heliport: 122.800
Wellington CTAF: 122.850

GA2 CTAF
Williamson, Georgia, United States

Feed Status: DOWN
Offline since: Unknown

Peach State CTAF: 122.725

I35 CTAF/ZID (Archives)
Harlan, Kentucky, United States

Feed Status: UP
Listen in your browser - HTML5 player(in browser, HTML5)
Click here to listen with your own player(launches your MP3 player)

KI35 242015Z AUTO 00000KT 10SM SCT025 SCT070 28/22 A3020 RMK AO2 T02820217

KI35 Airport Info (Airnav.com)

KI35 Flight Activity (Flightaware)

Listeners: 0 out of 2509 total

Harlan CTAF: 122.800
Indy Center (Sector 21 London Low): 121.325
Indy Center (Sector 21 London Low): 124.625
Indy Center (Sector 25 AZQ Low): 126.575

I68 AWOS (Archives)
Lebanon, Ohio, United States

Feed Status: UP
Listen in your browser - HTML5 player(in browser, HTML5)
Click here to listen with your own player(launches your MP3 player)


Listeners: 0 out of 2509 total

Warren County AWOS: 120.550

I68 CTAF (Archives)
Lebanon, Ohio, United States

Feed Status: UP
Listen in your browser - HTML5 player(in browser, HTML5)
Click here to listen with your own player(launches your MP3 player)


Listeners: 1 out of 2509 total

I68 CTAF: 123.075

K1H0 CTAF/Unicom (Archives)
St. Louis, Missouri, United States

Feed Status: UP
Listen in your browser - HTML5 player(in browser, HTML5)
Click here to listen with your own player(launches your MP3 player)

K1H0 Airport Info (Airnav.com)

K1H0 Flight Activity (Flightaware)

Listeners: 0 out of 2509 total

Creve Coeur CTAF: 122.800

KIXD Ground/Tower/K34
Gardner, Kansas, United States

Feed Status: DOWN
Offline since: 2024-05-14 17:28:39 UTC

KIXD 241953Z VRB05KT 10SM FEW055 32/18 A3014 RMK AO2 SLP195 T03220183

KIXD Airport Info (Airnav.com)

K34 CTAF: 122.800
New Century Ground: 124.300
New Century Tower: 133.000

KABY Gnd/Tower/Misc
Albany, Georgia, United States

Feed Status: DOWN
Offline since: 2024-06-10 20:35:38 UTC

KABY 242025Z 17006KT 10SM SCT046 SCT065 BKN120 26/23 A3015 RMK AO2 RAE21 TSB04 P0004 T02560233

KABY Airport Info (Airnav.com)

Albany Ground: 121.900
Albany Tower: 120.250

KABY Ground/Tower (Archives)
Albany, Georgia, United States

Feed Status: UP
Listen in your browser - HTML5 player(in browser, HTML5)
Click here to listen with your own player(launches your MP3 player)

KABY 242025Z 17006KT 10SM SCT046 SCT065 BKN120 26/23 A3015 RMK AO2 RAE21 TSB04 P0004 T02560233

KABY Airport Info (Airnav.com)

KABY Flight Activity (Flightaware)

Listeners: 1 out of 2509 total

Albany Ground: 121.900
Albany Tower: 120.250

KACK App/Dep (Archives)
Nantucket, Massachusetts, United States

Feed Status: UP
Listen in your browser - HTML5 player(in browser, HTML5)
Click here to listen with your own player(launches your MP3 player)

KACK 241953Z 11008KT 3SM BR OVC002 19/19 A3016 RMK AO2 SLP214 T01940194 $

KACK Airport Info (Airnav.com)

KACK Flight Activity (Flightaware)

Listeners: 0 out of 2509 total

Cape Approach (Nantucket Sector): 126.100

KACK ATIS (Archives)
Nantucket, Massachusetts, United States

Feed Status: UP
Listen in your browser - HTML5 player(in browser, HTML5)
Click here to listen with your own player(launches your MP3 player)

KACK 241953Z 11008KT 3SM BR OVC002 19/19 A3016 RMK AO2 SLP214 T01940194 $

KACK Airport Info (Airnav.com)

KACK Flight Activity (Flightaware)

Listeners: 0 out of 2509 total

Nantucket ATIS: 127.500

KACK Del/Gnd/Twr (Archives)
Nantucket, Massachusetts, United States

Feed Status: UP
Listen in your browser - HTML5 player(in browser, HTML5)
Click here to listen with your own player(launches your MP3 player)

KACK 241953Z 11008KT 3SM BR OVC002 19/19 A3016 RMK AO2 SLP214 T01940194 $

KACK Airport Info (Airnav.com)

KACK Flight Activity (Flightaware)

Listeners: 1 out of 2509 total

Nantucket Clearance Delivery: 119.375
Nantucket Ground: 132.500
Nantucket Tower: 118.300

KACK Tower (Archives)
Nantucket, Massachusetts, United States

Feed Status: UP
Listen in your browser - HTML5 player(in browser, HTML5)
Click here to listen with your own player(launches your MP3 player)

KACK 241953Z 11008KT 3SM BR OVC002 19/19 A3016 RMK AO2 SLP214 T01940194 $

KACK Airport Info (Airnav.com)

KACK Flight Activity (Flightaware)

Listeners: 1 out of 2509 total

Nantucket Tower: 118.300

KADS ATIS (Archives)
Dallas, Texas, United States

Feed Status: UP
Listen in your browser - HTML5 player(in browser, HTML5)
Click here to listen with your own player(launches your MP3 player)

KADS 241955Z 04006KT 10SM SCT050 32/18 A3012

KADS Airport Info (Airnav.com)

KADS Flight Activity (Flightaware)

Listeners: 0 out of 2509 total

Addison ATIS: 133.400
Addison ATIS/AWOS: 133.400

KADS Ground (Archives)
Dallas, Texas, United States

Feed Status: UP
Listen in your browser - HTML5 player(in browser, HTML5)
Click here to listen with your own player(launches your MP3 player)

KADS 241955Z 04006KT 10SM SCT050 32/18 A3012

KADS Airport Info (Airnav.com)

KADS Flight Activity (Flightaware)

Listeners: 0 out of 2509 total

Addison Ground: 121.600

KADS Tower (Archives)
Dallas, Texas, United States

Feed Status: UP
Listen in your browser - HTML5 player(in browser, HTML5)
Click here to listen with your own player(launches your MP3 player)

KADS 241955Z 04006KT 10SM SCT050 32/18 A3012

KADS Airport Info (Airnav.com)

KADS Flight Activity (Flightaware)

Listeners: 0 out of 2509 total

Addison Tower: 126.000

KDAA/KADW Tower (Archives)
Camp Springs, Maryland, United States

Feed Status: UP
Listen in your browser - HTML5 player(in browser, HTML5)
Click here to listen with your own player(launches your MP3 player)

KDAA 241955Z AUTO 20004KT 10SM FEW170 30/23 A3006 RMK AO2 SLP182 T03030234 $

KDAA Airport Info (Airnav.com)

KDAA Flight Activity (Flightaware)

Listeners: 1 out of 2509 total

Andrews Tower: 118.400
Andrews Tower: 349.000
Davison Tower: 241.000
Davison Tower: 126.300
Davison Tower: 229.400

KAEG Twr/App (Archives)
Albuquerque, New Mexico, United States

Feed Status: UP
Listen in your browser - HTML5 player(in browser, HTML5)
Click here to listen with your own player(launches your MP3 player)

KABQ 241952Z 00000KT 10SM FEW080 SCT250 32/11 A3032 RMK AO2 SLP173 CB DSNT N AND NE T03170106 $

KABQ Airport Info (Airnav.com)

KABQ Flight Activity (Flightaware)

Listeners: 0 out of 2509 total

Double Eagle II Ground: 121.625
Double Eagle II Tower: 120.150
Double Eagle II Tower Clearance: 124.800

MA/NH CTAF 122.8 (Archives)
Jaffrey, New Hampshire, United States

Feed Status: UP
Listen in your browser - HTML5 player(in browser, HTML5)
Click here to listen with your own player(launches your MP3 player)

KMHT 241953Z 13006KT 10SM BKN024 OVC036 24/17 A3013 RMK AO2 SLP214 T02440172

KMHT Airport Info (Airnav.com)

KMHT Flight Activity (Flightaware)

Listeners: 0 out of 2509 total

MA/NH Area CTAF: 122.800

KAFW ATIS (Archives)
Fort Worth, Texas, United States

Feed Status: UP
Listen in your browser - HTML5 player(in browser, HTML5)
Click here to listen with your own player(launches your MP3 player)

KAFW 241953Z 07007G16KT 10SM SCT046 33/19 A3010 RMK AO2 SLP177 T03280189

KAFW Airport Info (Airnav.com)

KAFW Flight Activity (Flightaware)

Listeners: 0 out of 2509 total

Alliance ATIS: 126.925
Northwest Regional 52F CTAF: 122.900

KAFW Regional App (North) (Archives)
Fort Worth, Texas, United States

Feed Status: UP
Listen in your browser - HTML5 player(in browser, HTML5)
Click here to listen with your own player(launches your MP3 player)

KAFW 241953Z 07007G16KT 10SM SCT046 33/19 A3010 RMK AO2 SLP177 T03280189

KAFW Airport Info (Airnav.com)

KAFW Flight Activity (Flightaware)

Listeners: 0 out of 2509 total

Regional Approach (North): 118.100

KAFW Tower/Heli (Archives)
Fort Worth, Texas, United States

Feed Status: UP
Listen in your browser - HTML5 player(in browser, HTML5)
Click here to listen with your own player(launches your MP3 player)

KAFW 241953Z 07007G16KT 10SM SCT046 33/19 A3010 RMK AO2 SLP177 T03280189

KAFW Airport Info (Airnav.com)

KAFW Flight Activity (Flightaware)

Listeners: 1 out of 2509 total

Alliance Tower: 135.150
Alliance Tower (Helicopters): 120.850

KAFW Tower/Heli/App (Archives)
Fort Worth, Texas, United States

Feed Status: UP
Listen in your browser - HTML5 player(in browser, HTML5)
Click here to listen with your own player(launches your MP3 player)

KAFW 241953Z 07007G16KT 10SM SCT046 33/19 A3010 RMK AO2 SLP177 T03280189

KAFW Airport Info (Airnav.com)

KAFW Flight Activity (Flightaware)

Listeners: 0 out of 2509 total

Alliance Tower: 135.150
Alliance Tower (Helicopters): 120.850
Regional Approach (North): 118.100

KAHN Tower (Archives)
Athens, Georgia, United States

Feed Status: UP
Listen in your browser - HTML5 player(in browser, HTML5)
Click here to listen with your own player(launches your MP3 player)

KAHN 241951Z 31004KT 10SM CLR 32/22 A3016 RMK AO2 SLP204 T03220217

KAHN Airport Info (Airnav.com)

KAHN Flight Activity (Flightaware)

Listeners: 0 out of 2509 total

Athens Tower: 126.300

KAKR CTAF (Archives)
Akron, Ohio, United States

Feed Status: UP
Listen in your browser - HTML5 player(in browser, HTML5)
Click here to listen with your own player(launches your MP3 player)

KAKR 242015Z AUTO 27005KT 10SM TS SCT047 BKN060 BKN080 28/18 A3005 RMK AO2 LTG DSNT E-SW TSB13 T02780183

KAKR Airport Info (Airnav.com)

KAKR Flight Activity (Flightaware)

Listeners: 0 out of 2509 total

Akron CTAF: 123.075

KAMW CTAF
Ames, Iowa, United States

Feed Status: DOWN
Offline since: 2024-07-06 01:36:22 UTC

KAMW 242020Z AUTO 05007KT 10SM SCT027 SCT040 BKN050 28/22 A3011 RMK AO2 T02780217

KAMW Airport Info (Airnav.com)

Ames CTAF: 122.700

KANE Twr/CTAF (Archives)
Minneapolis, Minnesota, United States

Feed Status: UP
Listen in your browser - HTML5 player(in browser, HTML5)
Click here to listen with your own player(launches your MP3 player)

KANE 241949Z 09004KT 10SM SCT032 24/14 A3020

KANE Airport Info (Airnav.com)

KANE Flight Activity (Flightaware)

Listeners: 0 out of 2509 total

Anoka Tower/CTAF: 132.400

KANK CTAF (Archives)
Salida, Colorado, United States

Feed Status: UP
Listen in your browser - HTML5 player(in browser, HTML5)
Click here to listen with your own player(launches your MP3 player)

KANK 242015Z AUTO 26005KT 10SM FEW130 BKN160 29/02 A3043 RMK AO2 T02930017 $

KANK Airport Info (Airnav.com)

KANK Flight Activity (Flightaware)

Listeners: 0 out of 2509 total

Salida CTAF: 122.700

KAOH CTAF
Lima, Ohio, United States

Feed Status: DOWN
Offline since: 2024-06-23 11:14:38 UTC

KAOH 241953Z AUTO 28010KT 7SM CLR 28/19 A3011 RMK AO2 SLP187 T02830194

KAOH Airport Info (Airnav.com)

Lima CTAF: 122.700

KAOO CTAF (Archives)
Altoona, Pennsylvania, United States

Feed Status: UP
Listen in your browser - HTML5 player(in browser, HTML5)
Click here to listen with your own player(launches your MP3 player)

KAOO 241953Z AUTO 27008KT 10SM CLR 28/17 A3011 RMK AO2 SLP184 T02830167

KAOO Airport Info (Airnav.com)

KAOO Flight Activity (Flightaware)

Listeners: 0 out of 2509 total

Altoona CTAF: 123.600

KAPA App/Dep (Archives)
Denver, Colorado, United States

Feed Status: UP
Listen in your browser - HTML5 player(in browser, HTML5)
Click here to listen with your own player(launches your MP3 player)

KAPA 241953Z VRB05KT 7SM FEW100 32/02 A3034 RMK AO2 SLP191 T03220022

KAPA Airport Info (Airnav.com)

KAPA Flight Activity (Flightaware)

Listeners: 0 out of 2509 total

Denver Approach/Departure: 132.750

KAPA Del/Gnd (Archives)
Denver, Colorado, United States

Feed Status: UP
Listen in your browser - HTML5 player(in browser, HTML5)
Click here to listen with your own player(launches your MP3 player)

KAPA 241953Z VRB05KT 7SM FEW100 32/02 A3034 RMK AO2 SLP191 T03220022

KAPA Airport Info (Airnav.com)

KAPA Flight Activity (Flightaware)

Listeners: 4 out of 2509 total

Centennial Clearance Delivery: 128.600
Centennial Ground: 121.800

KAPA Tower (Primary) (Archives)
Denver, Colorado, United States

Feed Status: UP
Listen in your browser - HTML5 player(in browser, HTML5)
Click here to listen with your own player(launches your MP3 player)

KAPA 241953Z VRB05KT 7SM FEW100 32/02 A3034 RMK AO2 SLP191 T03220022

KAPA Airport Info (Airnav.com)

KAPA Flight Activity (Flightaware)

Listeners: 7 out of 2509 total

Centennial Tower: 118.900

KAPA Tower (Secondary #1) (Archives)
Denver, Colorado, United States

Feed Status: UP
Listen in your browser - HTML5 player(in browser, HTML5)
Click here to listen with your own player(launches your MP3 player)

KAPA 241953Z VRB05KT 7SM FEW100 32/02 A3034 RMK AO2 SLP191 T03220022

KAPA Airport Info (Airnav.com)

KAPA Flight Activity (Flightaware)

Listeners: 3 out of 2509 total

Centennial Tower (Rwy 17R/35L or Rwy 28): 123.700

KAPA Tower (Secondary #2) (Archives)
Denver, Colorado, United States

Feed Status: UP
Listen in your browser - HTML5 player(in browser, HTML5)
Click here to listen with your own player(launches your MP3 player)

KAPA 241953Z VRB05KT 7SM FEW100 32/02 A3034 RMK AO2 SLP191 T03220022

KAPA Airport Info (Airnav.com)

KAPA Flight Activity (Flightaware)

Listeners: 0 out of 2509 total

Centennial Tower (Rwy 17R/35L or Rwy 28): 124.600

KAPC Del/Gnd (Archives)
Napa, California, United States

Feed Status: UP
Listen in your browser - HTML5 player(in browser, HTML5)
Click here to listen with your own player(launches your MP3 player)

KAPC 241954Z 20012KT 10SM CLR 28/14 A3002 RMK AO2 SLP158 T02830144

KAPC Airport Info (Airnav.com)

KAPC Flight Activity (Flightaware)

Listeners: 1 out of 2509 total

Napa Clearance Delivery: 127.850
Napa Ground: 121.700

KAPC Tower (Archives)
Napa, California, United States

Feed Status: UP
Listen in your browser - HTML5 player(in browser, HTML5)
Click here to listen with your own player(launches your MP3 player)

KAPC 241954Z 20012KT 10SM CLR 28/14 A3002 RMK AO2 SLP158 T02830144

KAPC Airport Info (Airnav.com)

KAPC Flight Activity (Flightaware)

Listeners: 0 out of 2509 total

Napa Tower: 118.700

KAPF ATIS (Archives)
Naples, Florida, United States

Feed Status: UP
Listen in your browser - HTML5 player(in browser, HTML5)
Click here to listen with your own player(launches your MP3 player)

KAPF 241828Z 17008KT 10SM FEW047 BKN075 31/ A3014 RMK AO2 RAE04 TSE1758 P0000 T0311

KAPF Airport Info (Airnav.com)

KAPF Flight Activity (Flightaware)

Listeners: 0 out of 2509 total

Naples ATIS: 134.225

KAPF Del/Gnd (Archives)
Naples, Florida, United States

Feed Status: UP
Listen in your browser - HTML5 player(in browser, HTML5)
Click here to listen with your own player(launches your MP3 player)

KAPF 241828Z 17008KT 10SM FEW047 BKN075 31/ A3014 RMK AO2 RAE04 TSE1758 P0000 T0311

KAPF Airport Info (Airnav.com)

KAPF Flight Activity (Flightaware)

Listeners: 0 out of 2509 total

Naples Clearance Delivery: 118.000
Naples Ground: 121.600

KAPF Del/Gnd/Twr (Archives)
Naples, Florida, United States

Feed Status: UP
Listen in your browser - HTML5 player(in browser, HTML5)
Click here to listen with your own player(launches your MP3 player)

KAPF 241828Z 17008KT 10SM FEW047 BKN075 31/ A3014 RMK AO2 RAE04 TSE1758 P0000 T0311

KAPF Airport Info (Airnav.com)

KAPF Flight Activity (Flightaware)

Listeners: 0 out of 2509 total

Naples Clearance Delivery: 118.000
Naples Ground: 121.600
Naples Tower: 128.500

KAPF Ft Myers App/Dep (Archives)
Naples, Florida, United States

Feed Status: UP
Listen in your browser - HTML5 player(in browser, HTML5)
Click here to listen with your own player(launches your MP3 player)

KAPF 241828Z 17008KT 10SM FEW047 BKN075 31/ A3014 RMK AO2 RAE04 TSE1758 P0000 T0311

KAPF Airport Info (Airnav.com)

KAPF Flight Activity (Flightaware)

Listeners: 0 out of 2509 total

Fort Myers Approach/Departure: 124.125
Fort Myers Approach/Departure: 126.800

KAPF Tower (Archives)
Naples, Florida, United States

Feed Status: UP
Listen in your browser - HTML5 player(in browser, HTML5)
Click here to listen with your own player(launches your MP3 player)

KAPF 241828Z 17008KT 10SM FEW047 BKN075 31/ A3014 RMK AO2 RAE04 TSE1758 P0000 T0311

KAPF Airport Info (Airnav.com)

KAPF Flight Activity (Flightaware)

Listeners: 0 out of 2509 total

Naples Tower: 128.500

KARB ATIS (Archives)
Ann Arbor, Michigan, United States

Feed Status: UP
Listen in your browser - HTML5 player(in browser, HTML5)
Click here to listen with your own player(launches your MP3 player)

KARB 241953Z 33008KT 10SM SCT033 BKN049 OVC060 24/16 A3009 RMK AO2 SLP185 T02390161

KARB Airport Info (Airnav.com)

KARB Flight Activity (Flightaware)

Listeners: 0 out of 2509 total

Ann Arbor ATIS: 134.550

KARB Gnd/Twr (Archives)
Ann Arbor, Michigan, United States

Feed Status: UP
Listen in your browser - HTML5 player(in browser, HTML5)
Click here to listen with your own player(launches your MP3 player)

KARB 241953Z 33008KT 10SM SCT033 BKN049 OVC060 24/16 A3009 RMK AO2 SLP185 T02390161

KARB Airport Info (Airnav.com)

KARB Flight Activity (Flightaware)

Listeners: 0 out of 2509 total

Ann Arbor Ground: 121.600
Ann Arbor Tower: 120.300

KARB Ground (Archives)
Ann Arbor, Michigan, United States

Feed Status: UP
Listen in your browser - HTML5 player(in browser, HTML5)
Click here to listen with your own player(launches your MP3 player)

KARB 241953Z 33008KT 10SM SCT033 BKN049 OVC060 24/16 A3009 RMK AO2 SLP185 T02390161

KARB Airport Info (Airnav.com)

KARB Flight Activity (Flightaware)

Listeners: 0 out of 2509 total

Ann Arbor Ground: 121.600

KARB Tower (Archives)
Ann Arbor, Michigan, United States

Feed Status: UP
Listen in your browser - HTML5 player(in browser, HTML5)
Click here to listen with your own player(launches your MP3 player)

KARB 241953Z 33008KT 10SM SCT033 BKN049 OVC060 24/16 A3009 RMK AO2 SLP185 T02390161

KARB Airport Info (Airnav.com)

KARB Flight Activity (Flightaware)

Listeners: 0 out of 2509 total

Ann Arbor Tower: 120.300

KARG CTAF/Memphis Center (Archives)
Walnut Ridge, Arkansas, United States

Feed Status: UP
Listen in your browser - HTML5 player(in browser, HTML5)
Click here to listen with your own player(launches your MP3 player)

KARG 241956Z AUTO 14007KT 10SM SCT028 BKN038 BKN045 29/23 A3012 RMK AO2 SLP200 T02890233

KARG Airport Info (Airnav.com)

KARG Flight Activity (Flightaware)

Listeners: 0 out of 2509 total

Memphis Center (Sector 04 Jonesboro Low): 120.075
Memphis Center (Sector 04 Jonesboro Low): 289.400
Memphis Center (Sector 27 Jonesboro High): 132.375
Memphis Center (Sector 27 Jonesboro High): 257.600
Memphis Center (Sector 35 Walnut Ridge Ultra-High): 135.225
Memphis Center (Sector 35 Walnut Ridge Ultra-High): 322.300
Walnut Ridge CTAF: 122.800

KARR Tower (Archives)
Chicago/Aurora, Illinois, United States

Feed Status: UP
Listen in your browser - HTML5 player(in browser, HTML5)
Click here to listen with your own player(launches your MP3 player)

KARR 241952Z 00000KT 7SM SCT029 BKN039 26/18 A3013 RMK AO2 SLP199 T02610183

KARR Airport Info (Airnav.com)

KARR Flight Activity (Flightaware)

Listeners: 0 out of 2509 total

Aurora Tower: 120.600

KASE ATIS (Archives)
Aspen, Colorado, United States

Feed Status: UP
Listen in your browser - HTML5 player(in browser, HTML5)
Click here to listen with your own player(launches your MP3 player)

KASE 241953Z 36007G17KT 320V060 10SM FU CLR 28/01 A3047 RMK AO2 SLP184 T02830011

KASE Airport Info (Airnav.com)

KASE Flight Activity (Flightaware)

Listeners: 0 out of 2509 total

Aspen ATIS: 120.400

KASE Gnd/Twr/App/Center (Archives)
Aspen, Colorado, United States

Feed Status: UP
Listen in your browser - HTML5 player(in browser, HTML5)
Click here to listen with your own player(launches your MP3 player)

KASE 241953Z 36007G17KT 320V060 10SM FU CLR 28/01 A3047 RMK AO2 SLP184 T02830011

KASE Airport Info (Airnav.com)

KASE Flight Activity (Flightaware)

Listeners: 0 out of 2509 total

Aspen Approach/Departure: 123.800
Aspen Ground: 121.900
Aspen Tower/CTAF: 118.850
Denver Center (Sector 26 POWDR Low): 119.850

KASE Ground/Tower (Archives)
Aspen, Colorado, United States

Feed Status: UP
Listen in your browser - HTML5 player(in browser, HTML5)
Click here to listen with your own player(launches your MP3 player)

KASE 241953Z 36007G17KT 320V060 10SM FU CLR 28/01 A3047 RMK AO2 SLP184 T02830011

KASE Airport Info (Airnav.com)

KASE Flight Activity (Flightaware)

Listeners: 0 out of 2509 total

Aspen Ground: 121.900
Aspen Tower/CTAF: 118.850

KASE Tower (Archives)
Aspen, Colorado, United States

Feed Status: UP
Listen in your browser - HTML5 player(in browser, HTML5)
Click here to listen with your own player(launches your MP3 player)

KASE 241953Z 36007G17KT 320V060 10SM FU CLR 28/01 A3047 RMK AO2 SLP184 T02830011

KASE Airport Info (Airnav.com)

KASE Flight Activity (Flightaware)

Listeners: 0 out of 2509 total

Aspen Tower/CTAF: 118.850

KASG App/Dep (Archives)
Springdale, Arkansas, United States

Feed Status: UP
Listen in your browser - HTML5 player(in browser, HTML5)
Click here to listen with your own player(launches your MP3 player)

KASG 241948Z 00000KT 10SM SCT045 31/23 A3016

KASG Airport Info (Airnav.com)

KASG Flight Activity (Flightaware)

Listeners: 1 out of 2509 total

Razorback Approach/Departure: 126.600

KASG Gnd/Twr (Archives)
Springdale, Arkansas, United States

Feed Status: UP
Listen in your browser - HTML5 player(in browser, HTML5)
Click here to listen with your own player(launches your MP3 player)

KASG 241948Z 00000KT 10SM SCT045 31/23 A3016

KASG Airport Info (Airnav.com)

KASG Flight Activity (Flightaware)

Listeners: 0 out of 2509 total

Springdale Ground: 121.600
Springdale Tower: 118.200

KASG Gnd/Twr/App (Archives)
Springdale, Arkansas, United States

Feed Status: UP
Listen in your browser - HTML5 player(in browser, HTML5)
Click here to listen with your own player(launches your MP3 player)

KASG 241948Z 00000KT 10SM SCT045 31/23 A3016

KASG Airport Info (Airnav.com)

KASG Flight Activity (Flightaware)

Listeners: 0 out of 2509 total

Razorback Approach/Departure: 126.600
Springdale Ground: 121.600
Springdale Tower: 118.200

KASH ATIS #1 (Archives)
Nashua, New Hampshire, United States

Feed Status: UP
Listen in your browser - HTML5 player(in browser, HTML5)
Click here to listen with your own player(launches your MP3 player)

KASH 241956Z VRB04KT 10SM BKN022 OVC036 24/20 A3015 RMK AO2 SLP214 T02390200

KASH Airport Info (Airnav.com)

KASH Flight Activity (Flightaware)

Listeners: 0 out of 2509 total

Nashua ATIS: 125.100

KASH ATIS #2 (Archives)
Nashua, New Hampshire, United States

Feed Status: UP
Listen in your browser - HTML5 player(in browser, HTML5)
Click here to listen with your own player(launches your MP3 player)

KASH 241956Z VRB04KT 10SM BKN022 OVC036 24/20 A3015 RMK AO2 SLP214 T02390200

KASH Airport Info (Airnav.com)

KASH Flight Activity (Flightaware)

Listeners: 0 out of 2509 total

Nashua ATIS: 125.100

KASH Gnd/Twr/FBO #1 (Archives)
Nashua, New Hampshire, United States

Feed Status: UP
Listen in your browser - HTML5 player(in browser, HTML5)
Click here to listen with your own player(launches your MP3 player)

KASH 241956Z VRB04KT 10SM BKN022 OVC036 24/20 A3015 RMK AO2 SLP214 T02390200

KASH Airport Info (Airnav.com)

KASH Flight Activity (Flightaware)

Listeners: 0 out of 2509 total

Infinity Aviation: 129.750
Nashua Ground: 121.800
Nashua Tower: 133.200

KASH Gnd/Twr/FBO #2 (Archives)
Nashua, New Hampshire, United States

Feed Status: UP
Listen in your browser - HTML5 player(in browser, HTML5)
Click here to listen with your own player(launches your MP3 player)

KASH 241956Z VRB04KT 10SM BKN022 OVC036 24/20 A3015 RMK AO2 SLP214 T02390200

KASH Airport Info (Airnav.com)

KASH Flight Activity (Flightaware)

Listeners: 0 out of 2509 total

Infinity Aviation: 129.750
Nashua Ground: 121.800
Nashua Tower: 133.200

KASH Ground/FBO (Archives)
Nashua, New Hampshire, United States

Feed Status: UP
Listen in your browser - HTML5 player(in browser, HTML5)
Click here to listen with your own player(launches your MP3 player)

KASH 241956Z VRB04KT 10SM BKN022 OVC036 24/20 A3015 RMK AO2 SLP214 T02390200

KASH Airport Info (Airnav.com)

KASH Flight Activity (Flightaware)

Listeners: 0 out of 2509 total

Infinity Aviation: 129.750
Nashua Ground: 121.800

KASH Tower (Archives)
Nashua, New Hampshire, United States

Feed Status: UP
Listen in your browser - HTML5 player(in browser, HTML5)
Click here to listen with your own player(launches your MP3 player)

KASH 241956Z VRB04KT 10SM BKN022 OVC036 24/20 A3015 RMK AO2 SLP214 T02390200

KASH Airport Info (Airnav.com)

KASH Flight Activity (Flightaware)

Listeners: 0 out of 2509 total

Nashua Tower: 133.200

Atlanta Approach (NW Satellite) (Archives)
Atlanta, Georgia, United States

Feed Status: UP
Listen in your browser - HTML5 player(in browser, HTML5)
Click here to listen with your own player(launches your MP3 player)

KRYY 241950Z 34005KT 10SM BKN030 28/22 A3022 RMK AO2 SLPNO T02800220 $

KRYY Airport Info (Airnav.com)

KRYY Flight Activity (Flightaware)

Listeners: 2 out of 2509 total

Atlanta Approach (North Satellite): 121.000

KATW Tower (Archives)
Appleton, Wisconsin, United States

Feed Status: UP
Listen in your browser - HTML5 player(in browser, HTML5)
Click here to listen with your own player(launches your MP3 player)

KATW 241945Z 02005KT 10SM BKN033 22/14 A3019

KATW Airport Info (Airnav.com)

KATW Flight Activity (Flightaware)

Listeners: 1 out of 2509 total

Appleton Tower: 119.600

KAUG CTAF/FSS (Archives)
Augusta, Maine, United States

Feed Status: UP
Listen in your browser - HTML5 player(in browser, HTML5)
Click here to listen with your own player(launches your MP3 player)

KAUG 241953Z AUTO 18005KT 10SM FEW012 FEW021 OVC033 22/19 A3020 RMK AO2 SLP226 T02170189

KAUG Airport Info (Airnav.com)

KAUG Flight Activity (Flightaware)

Listeners: 0 out of 2509 total

Augusta CTAF/UNICOM: 123.000
Flight Service: 122.200

KAVQ CTAF
Marana, Arizona, United States

Feed Status: DOWN
Offline since: 2024-05-11 20:17:38 UTC

KAVQ 242015Z AUTO VRB05KT 10SM SCT090 40/17 A3004 RMK AO2

KAVQ Airport Info (Airnav.com)

Marana CTAF: 123.000

KAWO CTAF/Clearance (Archives)
Arlington, Washington, United States

Feed Status: UP
Listen in your browser - HTML5 player(in browser, HTML5)
Click here to listen with your own player(launches your MP3 player)

KAWO 241956Z AUTO VRB04KT 10SM FEW001 22/11 A3010 RMK AO2 SLP197 T02220106

KAWO Airport Info (Airnav.com)

KAWO Flight Activity (Flightaware)

Listeners: 0 out of 2509 total

Arlington Clearance Delivery (Seattle): 121.725
Arlington CTAF: 122.725

KAXH CTAF (Archives)
Houston, Texas, United States

Feed Status: UP
Listen in your browser - HTML5 player(in browser, HTML5)
Click here to listen with your own player(launches your MP3 player)

KAXH Airport Info (Airnav.com)

KAXH Flight Activity (Flightaware)

Listeners: 0 out of 2509 total

Houston Southwest CTAF: 123.000

KBTL/KAZO Gnd/Twr/App (Archives)
Kalamazoo, Michigan, United States

Feed Status: UP
Listen in your browser - HTML5 player(in browser, HTML5)
Click here to listen with your own player(launches your MP3 player)

KBTL Airport Info (Airnav.com)

KBTL Flight Activity (Flightaware)

Listeners: 0 out of 2509 total

Battle Creek Ground: 121.700
Battle Creek Tower: 126.825
Kalamazoo Approach/Departure: 119.200
Kalamazoo Ground: 121.900
Kalamazoo Tower: 118.300

KBAF ATIS (Archives)
Westfield/Springfield, Massachusetts, United States

Feed Status: UP
Listen in your browser - HTML5 player(in browser, HTML5)
Click here to listen with your own player(launches your MP3 player)

KBAF 242010Z 16005KT 10SM FEW013 OVC021 25/21 A3011 RMK AO2 T02500211

KBAF Airport Info (Airnav.com)

KBAF Flight Activity (Flightaware)

Listeners: 0 out of 2509 total

Westfield ATIS: 127.100

KBAF Ground (Archives)
Westfield/Springfield, Massachusetts, United States

Feed Status: UP
Listen in your browser - HTML5 player(in browser, HTML5)
Click here to listen with your own player(launches your MP3 player)

KBAF 242010Z 16005KT 10SM FEW013 OVC021 25/21 A3011 RMK AO2 T02500211

KBAF Airport Info (Airnav.com)

KBAF Flight Activity (Flightaware)

Listeners: 0 out of 2509 total

Emergency/Guard: 121.500
Emergency/Guard: 243.000
NG Ops: 123.050
NG Ops: 309.000
Westfield Ground: 121.700
Westfield Ground: 289.400

KBAF Ground/Tower (Archives)
Westfield/Springfield, Massachusetts, United States

Feed Status: UP
Listen in your browser - HTML5 player(in browser, HTML5)
Click here to listen with your own player(launches your MP3 player)

KBAF 242010Z 16005KT 10SM FEW013 OVC021 25/21 A3011 RMK AO2 T02500211

KBAF Airport Info (Airnav.com)

KBAF Flight Activity (Flightaware)

Listeners: 0 out of 2509 total

Emergency/Guard: 121.500
Emergency/Guard: 243.000
NG Ops: 123.050
NG Ops: 309.000
Westfield Ground: 121.700
Westfield Ground: 289.400
Westfield Tower: 118.900
Westfield Tower: 251.100
Westover Tower: 134.850

KBAF/KCEF Tower (Archives)
Westfield/Springfield, Massachusetts, United States

Feed Status: UP
Listen in your browser - HTML5 player(in browser, HTML5)
Click here to listen with your own player(launches your MP3 player)

KBAF 242010Z 16005KT 10SM FEW013 OVC021 25/21 A3011 RMK AO2 T02500211

KBAF Airport Info (Airnav.com)

KBAF Flight Activity (Flightaware)

Listeners: 1 out of 2509 total

Westfield Tower: 118.900
Westfield Tower: 251.100
Westover Tower: 134.850
Westover Tower: 348.750

KBAK Gnd/Twr (Archives)
Columbus, Indiana, United States

Feed Status: UP
Listen in your browser - HTML5 player(in browser, HTML5)
Click here to listen with your own player(launches your MP3 player)

KBAK 241945Z 29006KT 10SM SCT050 30/19 A3012

KBAK Airport Info (Airnav.com)

KBAK Flight Activity (Flightaware)

Listeners: 0 out of 2509 total

Columbus Ground: 121.600
Columbus Tower: 118.600

KBAK Gnd/Twr/App/Dep (Archives)
Columbus, Indiana, United States

Feed Status: UP
Listen in your browser - HTML5 player(in browser, HTML5)
Click here to listen with your own player(launches your MP3 player)

KBAK 241945Z 29006KT 10SM SCT050 30/19 A3012

KBAK Airport Info (Airnav.com)

KBAK Flight Activity (Flightaware)

Listeners: 0 out of 2509 total

Columbus Ground: 121.600
Columbus Tower: 118.600
Emergency/Guard: 121.500
Emergency/Guard: 243.000
Indianapolis Approach/Departure: 134.850

KBAK Indy App/Dep/Guard (Archives)
Columbus, Indiana, United States

Feed Status: UP
Listen in your browser - HTML5 player(in browser, HTML5)
Click here to listen with your own player(launches your MP3 player)

KBAK 241945Z 29006KT 10SM SCT050 30/19 A3012

KBAK Airport Info (Airnav.com)

KBAK Flight Activity (Flightaware)

Listeners: 0 out of 2509 total

Emergency/Guard: 121.500
Emergency/Guard: 243.000
Indianapolis Approach/Departure: 134.850

KBAZ Tower (Archives)
New Braunfels, Texas, United States

Feed Status: UP
Listen in your browser - HTML5 player(in browser, HTML5)
Click here to listen with your own player(launches your MP3 player)

KBAZ 241951Z 03008KT 10SM SCT095 31/24 A3007

KBAZ Airport Info (Airnav.com)

KBAZ Flight Activity (Flightaware)

Listeners: 0 out of 2509 total

New Braunfels Tower: 127.050

KBCT ATIS (Archives)
Boca Raton, Florida, United States

Feed Status: UP
Listen in your browser - HTML5 player(in browser, HTML5)
Click here to listen with your own player(launches your MP3 player)

KBCT 241953Z 13012G18KT 10SM SCT020 35/25 A3015

KBCT Airport Info (Airnav.com)

KBCT Flight Activity (Flightaware)

Listeners: 0 out of 2509 total

Boca Raton ATIS/AWOS: 121.125

KBCT Emergency/Guard (Archives)
Boca Raton, Florida, United States

Feed Status: UP
Listen in your browser - HTML5 player(in browser, HTML5)
Click here to listen with your own player(launches your MP3 player)

KBCT 241953Z 13012G18KT 10SM SCT020 35/25 A3015

KBCT Airport Info (Airnav.com)

KBCT Flight Activity (Flightaware)

Listeners: 0 out of 2509 total

Emergency/Guard: 121.500

KBCT Ground (Archives)
Boca Raton, Florida, United States

Feed Status: UP
Listen in your browser - HTML5 player(in browser, HTML5)
Click here to listen with your own player(launches your MP3 player)

KBCT 241953Z 13012G18KT 10SM SCT020 35/25 A3015

KBCT Airport Info (Airnav.com)

KBCT Flight Activity (Flightaware)

Listeners: 0 out of 2509 total

Boca Raton Ground: 121.800

KBCT Ground/Tower (Archives)
Boca Raton, Florida, United States

Feed Status: UP
Listen in your browser - HTML5 player(in browser, HTML5)
Click here to listen with your own player(launches your MP3 player)

KBCT 241953Z 13012G18KT 10SM SCT020 35/25 A3015

KBCT Airport Info (Airnav.com)

KBCT Flight Activity (Flightaware)

Listeners: 0 out of 2509 total

Boca Raton Ground: 121.800
Boca Raton Tower: 118.425

KBCT Tower (Archives)
Boca Raton, Florida, United States

Feed Status: UP
Listen in your browser - HTML5 player(in browser, HTML5)
Click here to listen with your own player(launches your MP3 player)

KBCT 241953Z 13012G18KT 10SM SCT020 35/25 A3015

KBCT Airport Info (Airnav.com)

KBCT Flight Activity (Flightaware)

Listeners: 0 out of 2509 total

Boca Raton Tower: 118.425

KBDN CTAF (Archives)
Bend, Oregon, United States

Feed Status: UP
Listen in your browser - HTML5 player(in browser, HTML5)
Click here to listen with your own player(launches your MP3 player)

KBDN 242015Z AUTO 35008G14KT 330V030 7SM CLR 32/06 A3005 RMK AO2

KBDN Airport Info (Airnav.com)

KBDN Flight Activity (Flightaware)

Listeners: 0 out of 2509 total

Bend CTAF: 123.000

KBDR Del/Gnd/Twr (Archives)
Bridgeport, Connecticut, United States

Feed Status: UP
Listen in your browser - HTML5 player(in browser, HTML5)
Click here to listen with your own player(launches your MP3 player)

KBDR 241952Z 08012KT 7SM BKN005 24/21 A3010 RMK AO2 SLP191 T02390206

KBDR Airport Info (Airnav.com)

KBDR Flight Activity (Flightaware)

Listeners: 2 out of 2509 total

Bridgeport Clearance/Ground: 121.750
Bridgeport Tower: 120.900
Sikorsky Heliport: 133.600

KBDR Del/Gnd/Twr/App (Archives)
Bridgeport, Connecticut, United States

Feed Status: UP
Listen in your browser - HTML5 player(in browser, HTML5)
Click here to listen with your own player(launches your MP3 player)

KBDR 241952Z 08012KT 7SM BKN005 24/21 A3010 RMK AO2 SLP191 T02390206

KBDR Airport Info (Airnav.com)

KBDR Flight Activity (Flightaware)

Listeners: 0 out of 2509 total

Bridgeport Clearance/Ground: 121.750
Bridgeport Tower: 120.900
New York Approach (LOVES Sector): 124.075
Sikorsky Heliport: 133.600

New York Approach (LOVES Sector) (Archives)
Bridgeport, Connecticut, United States

Feed Status: UP
Listen in your browser - HTML5 player(in browser, HTML5)
Click here to listen with your own player(launches your MP3 player)

KBDR 241952Z 08012KT 7SM BKN005 24/21 A3010 RMK AO2 SLP191 T02390206

KBDR Airport Info (Airnav.com)

KBDR Flight Activity (Flightaware)

Listeners: 0 out of 2509 total

New York Approach (LOVES Sector): 124.075

KFTG/KEIK/KBDU/KLMO/Misc (Archives)
Boulder, Colorado, United States

Feed Status: UP
Listen in your browser - HTML5 player(in browser, HTML5)
Click here to listen with your own player(launches your MP3 player)

KDEN 241953Z 00000KT 8SM FEW140 33/03 A3030 RMK AO2 SLP173 T03330033

KDEN Airport Info (Airnav.com)

KDEN Flight Activity (Flightaware)

Listeners: 2 out of 2509 total

Air-to-Air Fixed Wing: 122.750
Air-to-Air Informal: 123.450
Boulder CTAF: 122.725
Erie CTAF: 123.000
Front Range Tower: 120.200
KBKF Tower: 121.000
Longmont CTAF: 122.975
MULTICOM: 122.900
UNICOM: 122.950

Boston App/Dep (North Sat) #1 (Archives)
Bedford, Massachusetts, United States

Feed Status: UP
Listen in your browser - HTML5 player(in browser, HTML5)
Click here to listen with your own player(launches your MP3 player)

KBED 241951Z 08005KT 10SM BKN016 OVC025 23/18 A3014 RMK AO2 SLP215 T02280178

KBED Airport Info (Airnav.com)

KBED Flight Activity (Flightaware)

Listeners: 0 out of 2509 total

Boston Approach (North Satellites, SFC-3500'): 124.400

KBED ATIS #1 (Archives)
Bedford, Massachusetts, United States

Feed Status: UP
Listen in your browser - HTML5 player(in browser, HTML5)
Click here to listen with your own player(launches your MP3 player)

KBED 241951Z 08005KT 10SM BKN016 OVC025 23/18 A3014 RMK AO2 SLP215 T02280178

KBED Airport Info (Airnav.com)

KBED Flight Activity (Flightaware)

Listeners: 0 out of 2509 total

Hanscom ATIS: 124.600

KBED ATIS #2 (Archives)
Bedford, Massachusetts, United States

Feed Status: UP
Listen in your browser - HTML5 player(in browser, HTML5)
Click here to listen with your own player(launches your MP3 player)

KBED 241951Z 08005KT 10SM BKN016 OVC025 23/18 A3014 RMK AO2 SLP215 T02280178

KBED Airport Info (Airnav.com)

KBED Flight Activity (Flightaware)

Listeners: 0 out of 2509 total

Hanscom ATIS: 124.600

KBED Clearance Delivery (Archives)
Bedford, Massachusetts, United States

Feed Status: UP
Listen in your browser - HTML5 player(in browser, HTML5)
Click here to listen with your own player(launches your MP3 player)

KBED 241951Z 08005KT 10SM BKN016 OVC025 23/18 A3014 RMK AO2 SLP215 T02280178

KBED Airport Info (Airnav.com)

KBED Flight Activity (Flightaware)

Listeners: 0 out of 2509 total

Hanscom Clearance Delivery: 121.850

KBED Del/Gnd (Archives)
Bedford, Massachusetts, United States

Feed Status: UP
Listen in your browser - HTML5 player(in browser, HTML5)
Click here to listen with your own player(launches your MP3 player)

KBED 241951Z 08005KT 10SM BKN016 OVC025 23/18 A3014 RMK AO2 SLP215 T02280178

KBED Airport Info (Airnav.com)

KBED Flight Activity (Flightaware)

Listeners: 0 out of 2509 total

Hanscom Clearance Delivery: 121.850
Hanscom Ground: 121.700

KBED Gnd/Twr (Archives)
Bedford, Massachusetts, United States

Feed Status: UP
Listen in your browser - HTML5 player(in browser, HTML5)
Click here to listen with your own player(launches your MP3 player)

KBED 241951Z 08005KT 10SM BKN016 OVC025 23/18 A3014 RMK AO2 SLP215 T02280178

KBED Airport Info (Airnav.com)

KBED Flight Activity (Flightaware)

Listeners: 0 out of 2509 total

Hanscom Ground: 121.700
Hanscom Tower: 118.500

KBED Ground (Archives)
Bedford, Massachusetts, United States

Feed Status: UP
Listen in your browser - HTML5 player(in browser, HTML5)
Click here to listen with your own player(launches your MP3 player)

KBED 241951Z 08005KT 10SM BKN016 OVC025 23/18 A3014 RMK AO2 SLP215 T02280178

KBED Airport Info (Airnav.com)

KBED Flight Activity (Flightaware)

Listeners: 0 out of 2509 total

Hanscom Ground: 121.700

KBED Tower (Archives)
Bedford, Massachusetts, United States

Feed Status: UP
Listen in your browser - HTML5 player(in browser, HTML5)
Click here to listen with your own player(launches your MP3 player)

KBED 241951Z 08005KT 10SM BKN016 OVC025 23/18 A3014 RMK AO2 SLP215 T02280178

KBED Airport Info (Airnav.com)

KBED Flight Activity (Flightaware)

Listeners: 1 out of 2509 total

Hanscom Tower: 118.500

KBFI Ground/Tower (Archives)
Seattle, Washington, United States

Feed Status: UP
Listen in your browser - HTML5 player(in browser, HTML5)
Click here to listen with your own player(launches your MP3 player)

KBFI 241953Z 10SM BKN065 22/11 A3009 RMK AO2 SLP189 T02220106

KBFI Airport Info (Airnav.com)

KBFI Flight Activity (Flightaware)

Listeners: 3 out of 2509 total

Boeing Ground: 121.900
Boeing Tower (Rwy 14L & 32R/VFR): 118.300
Boeing Tower (Rwy 14R/32L/IFR): 120.600
Emergency: 121.500

KBFM Tower (Archives)
Mobile, Alabama, United States

Feed Status: UP
Listen in your browser - HTML5 player(in browser, HTML5)
Click here to listen with your own player(launches your MP3 player)

KBFM 241953Z 15008KT 10SM SCT030 33/23 A3011 RMK AO2 LTG DSNT W-NE SLP196 TCU DSNT W T03280228 $

KBFM Airport Info (Airnav.com)

KBFM Flight Activity (Flightaware)

Listeners: 2 out of 2509 total

Downtown Tower: 118.800

KBID CTAF (Archives)
Block Island, Rhode Island, United States

Feed Status: UP
Listen in your browser - HTML5 player(in browser, HTML5)
Click here to listen with your own player(launches your MP3 player)

KBID 241956Z AUTO 10008KT 3SM BR OVC002 21/21 RMK AO2 SLPNO T02110206 PNO $

KBID Airport Info (Airnav.com)

KBID Flight Activity (Flightaware)

Listeners: 0 out of 2509 total

Block Island CTAF: 123.000

KBIS App/Dep (Archives)
Bismarck, North Dakota, United States

Feed Status: UP
Listen in your browser - HTML5 player(in browser, HTML5)
Click here to listen with your own player(launches your MP3 player)

KBIS 241952Z AUTO 14016KT 9SM CLR 31/20 A3008 RMK AO2 SLP176 T03110200

KBIS Airport Info (Airnav.com)

KBIS Flight Activity (Flightaware)

Listeners: 1 out of 2509 total

Bismarck Approach/Departure: 126.300

KBIS Gnd/Twr (Archives)
Bismarck, North Dakota, United States

Feed Status: UP
Listen in your browser - HTML5 player(in browser, HTML5)
Click here to listen with your own player(launches your MP3 player)

KBIS 241952Z AUTO 14016KT 9SM CLR 31/20 A3008 RMK AO2 SLP176 T03110200

KBIS Airport Info (Airnav.com)

KBIS Flight Activity (Flightaware)

Listeners: 0 out of 2509 total

Bismarck Ground: 121.900
Bismarck Tower: 118.300

KBJC Ground/Tower (Archives)
Denver, Colorado, United States

Feed Status: UP
Listen in your browser - HTML5 player(in browser, HTML5)
Click here to listen with your own player(launches your MP3 player)

KBJC 241945Z 06008KT 5SM FU FEW180 33/02 A3034

KBJC Airport Info (Airnav.com)

KBJC Flight Activity (Flightaware)

Listeners: 1 out of 2509 total

Metro Ground: 121.700
Metro Tower: 118.600
Metro Tower: 123.950

KBJI CTAF/ZMP (Archives)
Bemidji, Minnesota, United States

Feed Status: UP
Listen in your browser - HTML5 player(in browser, HTML5)
Click here to listen with your own player(launches your MP3 player)

KBJI 242015Z AUTO 12008KT 10SM SCT045 24/12 A3022 RMK AO2 T02430121

KBJI Airport Info (Airnav.com)

KBJI Flight Activity (Flightaware)

Listeners: 2 out of 2509 total

Bemidji CTAF: 122.800
Minneapolis Center (Sector 25 Low/High): 134.750

KBKF ATIS (Archives)
Aurora, Colorado, United States

Feed Status: UP
Listen in your browser - HTML5 player(in browser, HTML5)
Click here to listen with your own player(launches your MP3 player)

KBKF 241958Z 35012KT 10SM FEW140 34/M01 A3031 RMK AO2A SLP166 T03391007

KBKF Airport Info (Airnav.com)

KBKF Flight Activity (Flightaware)

Listeners: 0 out of 2509 total

Buckley ATIS: 119.675

KBKF Tower (UHF) (Archives)
Aurora, Colorado, United States

Feed Status: UP
Listen in your browser - HTML5 player(in browser, HTML5)
Click here to listen with your own player(launches your MP3 player)

KBKF 241958Z 35012KT 10SM FEW140 34/M01 A3031 RMK AO2A SLP166 T03391007

KBKF Airport Info (Airnav.com)

KBKF Flight Activity (Flightaware)

Listeners: 2 out of 2509 total

Buckley Tower: 291.675

KBKF Tower (VHF) (Archives)
Aurora, Colorado, United States

Feed Status: UP
Listen in your browser - HTML5 player(in browser, HTML5)
Click here to listen with your own player(launches your MP3 player)

KBKF 241958Z 35012KT 10SM FEW140 34/M01 A3031 RMK AO2A SLP166 T03391007

KBKF Airport Info (Airnav.com)

KBKF Flight Activity (Flightaware)

Listeners: 0 out of 2509 total

Buckley Tower: 121.000

KBKF Tower (VHF/UHF) (Archives)
Aurora, Colorado, United States

Feed Status: UP
Listen in your browser - HTML5 player(in browser, HTML5)
Click here to listen with your own player(launches your MP3 player)

KBKF 241958Z 35012KT 10SM FEW140 34/M01 A3031 RMK AO2A SLP166 T03391007

KBKF Airport Info (Airnav.com)

KBKF Flight Activity (Flightaware)

Listeners: 0 out of 2509 total

Buckley Tower: 121.000
Buckley Tower: 291.675

KBKL Gnd/Twr/Misc
Cleveland, Ohio, United States

Feed Status: DOWN
Offline since: 2024-07-24 20:49:38 UTC

KBKL 241953Z 27005KT 10SM SCT044 25/21 A3005 RMK AO2 LTG DSNT S RAE11 SLP171 P0005 T02500206

KBKL Airport Info (Airnav.com)

Lakefront Area CTAF: 122.800
Lakefront Ground: 121.900
Lakefront Tower: 124.300
Lakefront UNICOM: 122.950

KBLI Tower (Archives)
Bellingham, Washington, United States

Feed Status: UP
Listen in your browser - HTML5 player(in browser, HTML5)
Click here to listen with your own player(launches your MP3 player)

KBLI 241953Z 22007KT 170V250 10SM CLR 18/13 A3009 RMK AO2 SLP194 T01830128

KBLI Airport Info (Airnav.com)

KBLI Flight Activity (Flightaware)

Listeners: 5 out of 2509 total

Bellingham Tower: 124.900

KBLM/N12/3N6/KMJX (Archives)
Belmar/Farmingdale, New Jersey, United States

Feed Status: UP
Listen in your browser - HTML5 player(in browser, HTML5)
Click here to listen with your own player(launches your MP3 player)

KBLM 241956Z AUTO 17007KT 10SM OVC110 27/22 A3010 RMK AO2 SLP191 T02670222

KBLM Airport Info (Airnav.com)

KBLM Flight Activity (Flightaware)

Listeners: 0 out of 2509 total

3N6 Old Bridge CTAF: 123.075
Emergency/Guard: 121.500
Monmouth Clearance: 120.950
Monmouth Clearance: 126.150
Monmouth CTAF: 123.000
N12 Lakewood CTAF: 122.800
Ocean County KMJX CTAF: 122.700

KBMG Approach/Departure (Archives)
Bloomington, Indiana, United States

Feed Status: UP
Listen in your browser - HTML5 player(in browser, HTML5)
Click here to listen with your own player(launches your MP3 player)

KBMG 241953Z 25008KT 10SM CLR 30/19 A3011 RMK AO2 LTG DSNT N AND NW SLP188 T03000194

KBMG Airport Info (Airnav.com)

KBMG Flight Activity (Flightaware)

Listeners: 0 out of 2509 total

Emergency/Guard: 121.500
Emergency/Guard: 243.000
Hulman Approach: 128.025

KBMG Tower (Archives)
Bloomington, Indiana, United States

Feed Status: UP
Listen in your browser - HTML5 player(in browser, HTML5)
Click here to listen with your own player(launches your MP3 player)

KBMG 241953Z 25008KT 10SM CLR 30/19 A3011 RMK AO2 LTG DSNT N AND NW SLP188 T03000194

KBMG Airport Info (Airnav.com)

KBMG Flight Activity (Flightaware)

Listeners: 0 out of 2509 total

Bloomington Tower: 120.775

KBMG Twr/App (Archives)
Bloomington, Indiana, United States

Feed Status: UP
Listen in your browser - HTML5 player(in browser, HTML5)
Click here to listen with your own player(launches your MP3 player)

KBMG 241953Z 25008KT 10SM CLR 30/19 A3011 RMK AO2 LTG DSNT N AND NW SLP188 T03000194

KBMG Airport Info (Airnav.com)

KBMG Flight Activity (Flightaware)

Listeners: 2 out of 2509 total

Bloomington Tower: 120.775
Emergency/Guard: 121.500
Emergency/Guard: 243.000
Hulman Approach: 128.025

KBMI App/Dep (Archives)
Bloomington/Normal, Illinois, United States

Feed Status: UP
Listen in your browser - HTML5 player(in browser, HTML5)
Click here to listen with your own player(launches your MP3 player)

KBMI 241956Z 07005KT 10SM CLR 23/21 A3016 RMK AO2 LTG DSNT SE TSE04RAE14 SLP207 P0000 T02280206

KBMI Airport Info (Airnav.com)

KBMI Flight Activity (Flightaware)

Listeners: 0 out of 2509 total

St. Louis Approach/Departure: 128.725

KBMI ATIS (Archives)
Bloomington/Normal, Illinois, United States

Feed Status: UP
Listen in your browser - HTML5 player(in browser, HTML5)
Click here to listen with your own player(launches your MP3 player)

KBMI 241956Z 07005KT 10SM CLR 23/21 A3016 RMK AO2 LTG DSNT SE TSE04RAE14 SLP207 P0000 T02280206

KBMI Airport Info (Airnav.com)

KBMI Flight Activity (Flightaware)

Listeners: 0 out of 2509 total

Bloomington ATIS: 119.575

KBMI Gnd/Twr/App (Archives)
Bloomington/Normal, Illinois, United States

Feed Status: UP
Listen in your browser - HTML5 player(in browser, HTML5)
Click here to listen with your own player(launches your MP3 player)

KBMI 241956Z 07005KT 10SM CLR 23/21 A3016 RMK AO2 LTG DSNT SE TSE04RAE14 SLP207 P0000 T02280206

KBMI Airport Info (Airnav.com)

KBMI Flight Activity (Flightaware)

Listeners: 0 out of 2509 total

Bloomington Ground: 121.650
Bloomington Tower: 124.600
St. Louis Approach/Departure: 128.725

KBMI Gnd/Twr/App/Dep (Archives)
Bloomington/Normal, Illinois, United States

Feed Status: UP
Listen in your browser - HTML5 player(in browser, HTML5)
Click here to listen with your own player(launches your MP3 player)

KBMI 241956Z 07005KT 10SM CLR 23/21 A3016 RMK AO2 LTG DSNT SE TSE04RAE14 SLP207 P0000 T02280206

KBMI Airport Info (Airnav.com)

KBMI Flight Activity (Flightaware)

Listeners: 0 out of 2509 total

Bloomington Ground: 121.650
Bloomington Tower: 124.600
St. Louis Approach/Departure: 128.725

KBOK/KCEC CTAF (Archives)
Brookings, Oregon, United States

Feed Status: UP
Listen in your browser - HTML5 player(in browser, HTML5)
Click here to listen with your own player(launches your MP3 player)

KBOK 241956Z AUTO VRB05KT 10SM CLR 17/12 A3011 RMK AO2 SLP195 T01720122

KBOK Airport Info (Airnav.com)

KBOK Flight Activity (Flightaware)

Listeners: 0 out of 2509 total

Brookings/Crescent City CTAF: 122.800

KBOW AWOS (Archives)
Bartow, Florida, United States

Feed Status: UP
Listen in your browser - HTML5 player(in browser, HTML5)
Click here to listen with your own player(launches your MP3 player)

KBOW 241930Z 12018G24KT 10SM BKN030 34/23 A3015 RMK TS IN VICINITY

KBOW Airport Info (Airnav.com)

KBOW Flight Activity (Flightaware)

Listeners: 0 out of 2509 total

Bartow AWOS: 123.775

KBOW Gnd/Twr/Misc (Archives)
Bartow, Florida, United States

Feed Status: UP
Listen in your browser - HTML5 player(in browser, HTML5)
Click here to listen with your own player(launches your MP3 player)

KBOW 241930Z 12018G24KT 10SM BKN030 34/23 A3015 RMK TS IN VICINITY

KBOW Airport Info (Airnav.com)

KBOW Flight Activity (Flightaware)

Listeners: 0 out of 2509 total

Bartow Ground: 121.900
Bartow Tower: 121.200
Bartow UNICOM: 122.950
Emergency/Guard: 121.500

KBOW Gnd/UNICOM/Guard (Archives)
Bartow, Florida, United States

Feed Status: UP
Listen in your browser - HTML5 player(in browser, HTML5)
Click here to listen with your own player(launches your MP3 player)

KBOW 241930Z 12018G24KT 10SM BKN030 34/23 A3015 RMK TS IN VICINITY

KBOW Airport Info (Airnav.com)

KBOW Flight Activity (Flightaware)

Listeners: 0 out of 2509 total

Bartow Ground: 121.900
Bartow UNICOM: 122.950
Emergency/Guard: 121.500

KBOW Tower/CTAF #1 (Archives)
Bartow, Florida, United States

Feed Status: UP
Listen in your browser - HTML5 player(in browser, HTML5)
Click here to listen with your own player(launches your MP3 player)

KBOW 241930Z 12018G24KT 10SM BKN030 34/23 A3015 RMK TS IN VICINITY

KBOW Airport Info (Airnav.com)

KBOW Flight Activity (Flightaware)

Listeners: 0 out of 2509 total

Bartow Tower: 121.200

KBOW Tower/CTAF #2 (Archives)
Bartow, Florida, United States

Feed Status: UP
Listen in your browser - HTML5 player(in browser, HTML5)
Click here to listen with your own player(launches your MP3 player)

KLAL 241950Z 05005KT 10SM BKN047 34/21 A3014

KLAL Airport Info (Airnav.com)

KLAL Flight Activity (Flightaware)

Listeners: 0 out of 2509 total

Bartow Tower: 121.200

KBPK CTAF (Archives)
Mountain Home, Arkansas, United States

Feed Status: UP
Listen in your browser - HTML5 player(in browser, HTML5)
Click here to listen with your own player(launches your MP3 player)

KBPK 241953Z AUTO 08003KT 10SM FEW031 30/20 A3014 RMK AO2 SLP196 T03000200

KBPK Airport Info (Airnav.com)

KBPK Flight Activity (Flightaware)

Listeners: 0 out of 2509 total

Baxter County CTAF: 123.000

KWHP/KVNY/KBUR App/Dep (Archives)
Burbank, California, United States

Feed Status: UP
Listen in your browser - HTML5 player(in browser, HTML5)
Click here to listen with your own player(launches your MP3 player)

KWHP 242000Z 00000KT 10SM SKC 34/15 A3005

KWHP Airport Info (Airnav.com)

KWHP Flight Activity (Flightaware)

Listeners: 1 out of 2509 total

SOCAL App (Glendale Sector): 135.050
SOCAL App (Valley Sector): 124.600
SOCAL Approach (Fillmore Sector): 120.400
SOCAL Approach (Moorpark Sector): 128.750
SOCAL Approach (Woodland Sector): 134.200

KBUY CTAF (Archives)
Burlington, North Carolina, United States

Feed Status: UP
Listen in your browser - HTML5 player(in browser, HTML5)
Click here to listen with your own player(launches your MP3 player)

KBUY 241954Z AUTO 22008KT 10SM CLR 30/22 A3014 RMK AO2 SLP198 T03000222

KBUY Airport Info (Airnav.com)

KBUY Flight Activity (Flightaware)

Listeners: 1 out of 2509 total

Burlington CTAF: 122.975

KBVI ATIS (Archives)
Beaver Falls, Pennsylvania, United States

Feed Status: UP
Listen in your browser - HTML5 player(in browser, HTML5)
Click here to listen with your own player(launches your MP3 player)

KBVI 242015Z AUTO 00000KT 10SM SCT049 SCT060 30/17 A3008 RMK AO2 T03020168

KBVI Airport Info (Airnav.com)

KBVI Flight Activity (Flightaware)

Listeners: 0 out of 2509 total

Beaver County ATIS: 118.350

KBVI Ground (Archives)
Beaver Falls, Pennsylvania, United States

Feed Status: UP
Listen in your browser - HTML5 player(in browser, HTML5)
Click here to listen with your own player(launches your MP3 player)

KBVI 242015Z AUTO 00000KT 10SM SCT049 SCT060 30/17 A3008 RMK AO2 T03020168

KBVI Airport Info (Airnav.com)

KBVI Flight Activity (Flightaware)

Listeners: 0 out of 2509 total

Beaver County Clearance (when Tower closed): 124.850
Beaver County Ground: 121.800

KBVI Ground/Tower (Archives)
Beaver Falls, Pennsylvania, United States

Feed Status: UP
Listen in your browser - HTML5 player(in browser, HTML5)
Click here to listen with your own player(launches your MP3 player)

KBVI 242015Z AUTO 00000KT 10SM SCT049 SCT060 30/17 A3008 RMK AO2 T03020168

KBVI Airport Info (Airnav.com)

KBVI Flight Activity (Flightaware)

Listeners: 0 out of 2509 total

Beaver County Clearance (when Tower closed): 124.850
Beaver County Ground: 121.800
Beaver County Tower: 120.300

KBVI Tower #1 (Archives)
Beaver Falls, Pennsylvania, United States

Feed Status: UP
Listen in your browser - HTML5 player(in browser, HTML5)
Click here to listen with your own player(launches your MP3 player)

KBVI 242015Z AUTO 00000KT 10SM SCT049 SCT060 30/17 A3008 RMK AO2 T03020168

KBVI Airport Info (Airnav.com)

KBVI Flight Activity (Flightaware)

Listeners: 0 out of 2509 total

Beaver County Tower: 120.300

KBVI Tower #1 (Archives)
Beaver Falls, Pennsylvania, United States

Feed Status: UP
Listen in your browser - HTML5 player(in browser, HTML5)
Click here to listen with your own player(launches your MP3 player)

KBVI 242015Z AUTO 00000KT 10SM SCT049 SCT060 30/17 A3008 RMK AO2 T03020168

KBVI Airport Info (Airnav.com)

KBVI Flight Activity (Flightaware)

Listeners: 0 out of 2509 total

Beaver County Tower: 120.300

KBVI Tower #2 (Archives)
Beaver Falls, Pennsylvania, United States

Feed Status: UP
Listen in your browser - HTML5 player(in browser, HTML5)
Click here to listen with your own player(launches your MP3 player)

KBVI 242015Z AUTO 00000KT 10SM SCT049 SCT060 30/17 A3008 RMK AO2 T03020168

KBVI Airport Info (Airnav.com)

KBVI Flight Activity (Flightaware)

Listeners: 0 out of 2509 total

Beaver County Tower: 120.300

KBVY Ground (Archives)
Beverly, Massachusetts, United States

Feed Status: UP
Listen in your browser - HTML5 player(in browser, HTML5)
Click here to listen with your own player(launches your MP3 player)

KBVY 241953Z 09008KT 10SM OVC010 20/17 A3016 RMK AO2 SLP206 T02000172

KBVY Airport Info (Airnav.com)

KBVY Flight Activity (Flightaware)

Listeners: 0 out of 2509 total

Beverly Ground: 121.600

KBVY Tower #1 (Archives)
Beverly, Massachusetts, United States

Feed Status: UP
Listen in your browser - HTML5 player(in browser, HTML5)
Click here to listen with your own player(launches your MP3 player)

KBVY 241953Z 09008KT 10SM OVC010 20/17 A3016 RMK AO2 SLP206 T02000172

KBVY Airport Info (Airnav.com)

KBVY Flight Activity (Flightaware)

Listeners: 0 out of 2509 total

Beverly Tower: 125.200

KBVY Tower #2 (Archives)
Beverly, Massachusetts, United States

Feed Status: UP
Listen in your browser - HTML5 player(in browser, HTML5)
Click here to listen with your own player(launches your MP3 player)

KBVY 241953Z 09008KT 10SM OVC010 20/17 A3016 RMK AO2 SLP206 T02000172

KBVY Airport Info (Airnav.com)

KBVY Flight Activity (Flightaware)

Listeners: 0 out of 2509 total

Beverly Tower: 125.200

KBXK AWOS
Buckeye, Arizona, United States

Feed Status: DOWN
Offline since: 2024-07-24 20:49:21 UTC

KBXK 242015Z AUTO 00000KT 10SM CLR 43/14 A2996 RMK A01

KBXK Airport Info (Airnav.com)

Buckeye AWOS: 119.625

KBXK CTAF
Buckeye, Arizona, United States

Feed Status: DOWN
Offline since: 2024-07-24 20:49:21 UTC

KBXK 242015Z AUTO 00000KT 10SM CLR 43/14 A2996 RMK A01

KBXK Airport Info (Airnav.com)

Buckeye CTAF: 122.975

KBXM CTAF/AWOS
Brunswick, Maine, United States

Feed Status: DOWN
Offline since: 2024-07-23 20:45:39 UTC

KBXM Airport Info (Airnav.com)

Brunswick CTAF/UNICOM: 122.725
KBXM AWOS: 134.875

KBZN App/Dep (Archives)
Bozeman, Montana, United States

Feed Status: UP
Listen in your browser - HTML5 player(in browser, HTML5)
Click here to listen with your own player(launches your MP3 player)

KBZN 241956Z 30017G25KT 10SM FEW110 32/12 A3016 RMK AO2 SLP165 T03170122

KBZN Airport Info (Airnav.com)

KBZN Flight Activity (Flightaware)

Listeners: 2 out of 2509 total

Big Sky Approach/Departure: 118.975

KBZN Area Flight Service (Archives)
Bozeman, Montana, United States

Feed Status: UP
Listen in your browser - HTML5 player(in browser, HTML5)
Click here to listen with your own player(launches your MP3 player)

KBZN 241956Z 30017G25KT 10SM FEW110 32/12 A3016 RMK AO2 SLP165 T03170122

KBZN Airport Info (Airnav.com)

KBZN Flight Activity (Flightaware)

Listeners: 0 out of 2509 total

Great Falls Radio/Flight Service: 122.500

KBZN ATIS (Archives)
Bozeman, Montana, United States

Feed Status: UP
Listen in your browser - HTML5 player(in browser, HTML5)
Click here to listen with your own player(launches your MP3 player)

KBZN 241956Z 30017G25KT 10SM FEW110 32/12 A3016 RMK AO2 SLP165 T03170122

KBZN Airport Info (Airnav.com)

KBZN Flight Activity (Flightaware)

Listeners: 0 out of 2509 total

Bozeman ATIS: 135.425

KBZN Emergency/Guard (Archives)
Bozeman, Montana, United States

Feed Status: UP
Listen in your browser - HTML5 player(in browser, HTML5)
Click here to listen with your own player(launches your MP3 player)

KBZN 241956Z 30017G25KT 10SM FEW110 32/12 A3016 RMK AO2 SLP165 T03170122

KBZN Airport Info (Airnav.com)

KBZN Flight Activity (Flightaware)

Listeners: 0 out of 2509 total

Emergency/Guard: 121.500

KBZN Gnd/Twr (Archives)
Bozeman, Montana, United States

Feed Status: UP
Listen in your browser - HTML5 player(in browser, HTML5)
Click here to listen with your own player(launches your MP3 player)

KBZN 241956Z 30017G25KT 10SM FEW110 32/12 A3016 RMK AO2 SLP165 T03170122

KBZN Airport Info (Airnav.com)

KBZN Flight Activity (Flightaware)

Listeners: 1 out of 2509 total

Bozeman Ground: 121.800
Bozeman Tower/CTAF: 118.200

KBZN Gnd/Twr/App (Archives)
Bozeman, Montana, United States

Feed Status: UP
Listen in your browser - HTML5 player(in browser, HTML5)
Click here to listen with your own player(launches your MP3 player)

KBZN 241956Z 30017G25KT 10SM FEW110 32/12 A3016 RMK AO2 SLP165 T03170122

KBZN Airport Info (Airnav.com)

KBZN Flight Activity (Flightaware)

Listeners: 0 out of 2509 total

Big Sky Approach/Departure: 118.975
Bozeman Ground: 121.800
Bozeman Tower/CTAF: 118.200

KBZN Ground (Archives)
Bozeman, Montana, United States

Feed Status: UP
Listen in your browser - HTML5 player(in browser, HTML5)
Click here to listen with your own player(launches your MP3 player)

KBZN 241956Z 30017G25KT 10SM FEW110 32/12 A3016 RMK AO2 SLP165 T03170122

KBZN Airport Info (Airnav.com)

KBZN Flight Activity (Flightaware)

Listeners: 0 out of 2509 total

Bozeman Ground: 121.800

KBZN Tower (Archives)
Bozeman, Montana, United States

Feed Status: UP
Listen in your browser - HTML5 player(in browser, HTML5)
Click here to listen with your own player(launches your MP3 player)

KBZN 241956Z 30017G25KT 10SM FEW110 32/12 A3016 RMK AO2 SLP165 T03170122

KBZN Airport Info (Airnav.com)

KBZN Flight Activity (Flightaware)

Listeners: 0 out of 2509 total

Bozeman Tower/CTAF: 118.200

KCCB CTAF (Archives)
Upland, California, United States

Feed Status: UP
Listen in your browser - HTML5 player(in browser, HTML5)
Click here to listen with your own player(launches your MP3 player)

KCCB 242015Z AUTO 26009G15KT 210V280 10SM CLR 34/14 A3005 RMK AO2

KCCB Airport Info (Airnav.com)

KCCB Flight Activity (Flightaware)

Listeners: 0 out of 2509 total

Upland CTAF: 123.000

KATL Approach (South Sat)
Atlanta, Georgia, United States

Feed Status: DOWN
Offline since: 2024-07-01 01:37:05 UTC

KCCO 242035Z AUTO 03004KT 10SM VCTS SCT035 BKN045 BKN070 30/21 A3018 RMK AO2 LTG DSNT S T03010213

KCCO Airport Info (Airnav.com)

Atlanta Approach (SW Satellite): 119.800

KCCO Area Air-to-Air
Atlanta, Georgia, United States

Feed Status: DOWN
Offline since: 2024-06-21 16:09:38 UTC

KCCO 242035Z AUTO 03004KT 10SM VCTS SCT035 BKN045 BKN070 30/21 A3018 RMK AO2 LTG DSNT S T03010213

KCCO Airport Info (Airnav.com)

Newnan Area Air to Air: 123.450

KCCO AWOS
Atlanta, Georgia, United States

Feed Status: DOWN
Offline since: 2024-07-01 01:37:05 UTC

KCCO 242035Z AUTO 03004KT 10SM VCTS SCT035 BKN045 BKN070 30/21 A3018 RMK AO2 LTG DSNT S T03010213

KCCO Airport Info (Airnav.com)

Newnan AWOS: 118.975

KCCO CTAF
Atlanta, Georgia, United States

Feed Status: DOWN
Offline since: 2024-07-01 01:37:05 UTC

KCCO 242035Z AUTO 03004KT 10SM VCTS SCT035 BKN045 BKN070 30/21 A3018 RMK AO2 LTG DSNT S T03010213

KCCO Airport Info (Airnav.com)

Emergency/Guard: 121.500
Flight School Company Channel: 123.300
Newnan CTAF: 122.700

KCCO Emergency/Guard
Atlanta, Georgia, United States

Feed Status: DOWN
Offline since: 2024-06-21 16:09:38 UTC

KCCO 242035Z AUTO 03004KT 10SM VCTS SCT035 BKN045 BKN070 30/21 A3018 RMK AO2 LTG DSNT S T03010213

KCCO Airport Info (Airnav.com)

Emergency/Guard: 121.500

KCCR Gnd/Twr #1 (Archives)
Concord, California, United States

Feed Status: UP
Listen in your browser - HTML5 player(in browser, HTML5)
Click here to listen with your own player(launches your MP3 player)

KCCR 241953Z 29011KT 10SM CLR 34/12 A2999 RMK AO2 SLP142 T03390117

KCCR Airport Info (Airnav.com)

KCCR Flight Activity (Flightaware)

Listeners: 0 out of 2509 total

Concord Ground: 121.900
Concord Tower: 119.700

KCCR Gnd/Twr #2 (Archives)
Concord, California, United States

Feed Status: UP
Listen in your browser - HTML5 player(in browser, HTML5)
Click here to listen with your own player(launches your MP3 player)

KCCR 241953Z 29011KT 10SM CLR 34/12 A2999 RMK AO2 SLP142 T03390117

KCCR Airport Info (Airnav.com)

KCCR Flight Activity (Flightaware)

Listeners: 0 out of 2509 total

Concord Ground: 121.900
Concord Tower: 119.700

KCCR Ground (Archives)
Concord, California, United States

Feed Status: UP
Listen in your browser - HTML5 player(in browser, HTML5)
Click here to listen with your own player(launches your MP3 player)

KCCR 241953Z 29011KT 10SM CLR 34/12 A2999 RMK AO2 SLP142 T03390117

KCCR Airport Info (Airnav.com)

KCCR Flight Activity (Flightaware)

Listeners: 0 out of 2509 total

Concord Ground: 121.900

KCCR Tower (Archives)
Concord, California, United States

Feed Status: UP
Listen in your browser - HTML5 player(in browser, HTML5)
Click here to listen with your own player(launches your MP3 player)

KCCR 241953Z 29011KT 10SM CLR 34/12 A2999 RMK AO2 SLP142 T03390117

KCCR Airport Info (Airnav.com)

KCCR Flight Activity (Flightaware)

Listeners: 0 out of 2509 total

Concord Tower: 119.700

KCDC ASOS (Archives)
Cedar City, Utah, United States

Feed Status: UP
Listen in your browser - HTML5 player(in browser, HTML5)
Click here to listen with your own player(launches your MP3 player)

KCDC 242016Z AUTO 23008KT 10SM CLR 34/06 A3028 RMK AO2 T03440061 $

KCDC Airport Info (Airnav.com)

KCDC Flight Activity (Flightaware)

Listeners: 0 out of 2509 total

Cedar City ASOS: 119.025

KCDC CTAF #1 (Archives)
Cedar City, Utah, United States

Feed Status: UP
Listen in your browser - HTML5 player(in browser, HTML5)
Click here to listen with your own player(launches your MP3 player)

KCDC 242016Z AUTO 23008KT 10SM CLR 34/06 A3028 RMK AO2 T03440061 $

KCDC Airport Info (Airnav.com)

KCDC Flight Activity (Flightaware)

Listeners: 0 out of 2509 total

Cedar City CTAF: 123.000

KCDC Guard (Archives)
Cedar City, Utah, United States

Feed Status: UP
Listen in your browser - HTML5 player(in browser, HTML5)
Click here to listen with your own player(launches your MP3 player)

KCDC 242016Z AUTO 23008KT 10SM CLR 34/06 A3028 RMK AO2 T03440061 $

KCDC Airport Info (Airnav.com)

KCDC Flight Activity (Flightaware)

Listeners: 0 out of 2509 total

Emergency/Guard: 121.500

KCDC T-Bird Dispatch (Archives)
Cedar City, Utah, United States

Feed Status: UP
Listen in your browser - HTML5 player(in browser, HTML5)
Click here to listen with your own player(launches your MP3 player)

KCDC 242016Z AUTO 23008KT 10SM CLR 34/06 A3028 RMK AO2 T03440061 $

KCDC Airport Info (Airnav.com)

KCDC Flight Activity (Flightaware)

Listeners: 0 out of 2509 total

SUU Aviation T-Bird Traffic (Dispatch): 123.500

KCDW Del/Gnd/Twr (Archives)
Caldwell, New Jersey, United States

Feed Status: UP
Listen in your browser - HTML5 player(in browser, HTML5)
Click here to listen with your own player(launches your MP3 player)

KCDW 242027Z VRB04KT 10SM BKN029 BKN047 BKN110 29/20 A3007 RMK AO2 T02890200

KCDW Airport Info (Airnav.com)

KCDW Flight Activity (Flightaware)

Listeners: 0 out of 2509 total

Caldwell Clearance: 121.100
Caldwell Ground: 121.900
Caldwell Tower: 119.800

KBOK/KCEC CTAF (Archives)
Crescent City, California, United States

Feed Status: UP
Listen in your browser - HTML5 player(in browser, HTML5)
Click here to listen with your own player(launches your MP3 player)

KBOK 241956Z AUTO VRB05KT 10SM CLR 17/12 A3011 RMK AO2 SLP195 T01720122

KBOK Airport Info (Airnav.com)

KBOK Flight Activity (Flightaware)

Listeners: 0 out of 2509 total

Brookings/Crescent City CTAF: 122.800

KBAF/KCEF Tower (Archives)
Springfield/Chicopee, Massachusetts, United States

Feed Status: UP
Listen in your browser - HTML5 player(in browser, HTML5)
Click here to listen with your own player(launches your MP3 player)

KBAF 242010Z 16005KT 10SM FEW013 OVC021 25/21 A3011 RMK AO2 T02500211

KBAF Airport Info (Airnav.com)

KBAF Flight Activity (Flightaware)

Listeners: 1 out of 2509 total

Westfield Tower: 118.900
Westfield Tower: 251.100
Westover Tower: 134.850
Westover Tower: 348.750

KCEZ CTAF/ZDV (Archives)
Cortez, Colorado, United States

Feed Status: UP
Listen in your browser - HTML5 player(in browser, HTML5)
Click here to listen with your own player(launches your MP3 player)

KCEZ 241953Z AUTO VRB03KT 8SM CLR 33/04 A3032 RMK AO2 SLP172 T03280039

KCEZ Airport Info (Airnav.com)

KCEZ Flight Activity (Flightaware)

Listeners: 1 out of 2509 total

Cortez CTAF: 122.800
Denver Center (Sector 36 Farmington Low): 118.575
Emergency/Guard: 121.500

KCFD CTAF/App (Archives)
Bryan, Texas, United States

Feed Status: UP
Listen in your browser - HTML5 player(in browser, HTML5)
Click here to listen with your own player(launches your MP3 player)

KCFD 242015Z AUTO 10SM SCT037 31/22 A3010 RMK AO2 T03070221

KCFD Airport Info (Airnav.com)

KCFD Flight Activity (Flightaware)

Listeners: 0 out of 2509 total

Bryan CTAF/UNICOM: 123.000
Houston Approach/Departure: 134.300

KCFJ CTAF (Archives)
Crawfordsville, Indiana, United States

Feed Status: UP
Listen in your browser - HTML5 player(in browser, HTML5)
Click here to listen with your own player(launches your MP3 player)

KCFJ 242015Z AUTO 33005KT 10SM SCT035 SCT050 BKN100 21/15 A3014 RMK AO2 LTG DSNT NW THRU SE T02090153

KCFJ Airport Info (Airnav.com)

KCFJ Flight Activity (Flightaware)

Listeners: 0 out of 2509 total

Crawfordsville CTAF: 122.800

KCFJ Emergency/Guard (Archives)
Crawfordsville, Indiana, United States

Feed Status: UP
Listen in your browser - HTML5 player(in browser, HTML5)
Click here to listen with your own player(launches your MP3 player)

KCFJ 242015Z AUTO 33005KT 10SM SCT035 SCT050 BKN100 21/15 A3014 RMK AO2 LTG DSNT NW THRU SE T02090153

KCFJ Airport Info (Airnav.com)

KCFJ Flight Activity (Flightaware)

Listeners: 0 out of 2509 total

Emergency/Guard: 121.500

KCFO/KEIK/KBDU/KLMO/Misc (Archives)
Denver, Colorado, United States

Feed Status: UP
Listen in your browser - HTML5 player(in browser, HTML5)
Click here to listen with your own player(launches your MP3 player)

KDEN 241953Z 00000KT 8SM FEW140 33/03 A3030 RMK AO2 SLP173 T03330033

KDEN Airport Info (Airnav.com)

KDEN Flight Activity (Flightaware)

Listeners: 2 out of 2509 total

Air-to-Air Fixed Wing: 122.750
Air-to-Air Informal: 123.450
Boulder CTAF: 122.725
Erie CTAF: 123.000
Front Range Tower: 120.200
KBKF Tower: 121.000
Longmont CTAF: 122.975
MULTICOM: 122.900
UNICOM: 122.950

KCGZ AWOS (Archives)
Casa Grande, Arizona, United States

Feed Status: UP
Listen in your browser - HTML5 player(in browser, HTML5)
Click here to listen with your own player(launches your MP3 player)

KCGZ 241956Z AUTO VRB04KT 10SM CLR 41/17 A3000 RMK AO2 SLP139 T04110167 PNO $

KCGZ Airport Info (Airnav.com)

KCGZ Flight Activity (Flightaware)

Listeners: 0 out of 2509 total

Casa Grande AWOS: 132.175

KCGZ CTAF (Archives)
Casa Grande, Arizona, United States

Feed Status: UP
Listen in your browser - HTML5 player(in browser, HTML5)
Click here to listen with your own player(launches your MP3 player)

KCGZ 241956Z AUTO VRB04KT 10SM CLR 41/17 A3000 RMK AO2 SLP139 T04110167 PNO $

KCGZ Airport Info (Airnav.com)

KCGZ Flight Activity (Flightaware)

Listeners: 0 out of 2509 total

Casa Grande CTAF: 122.700

KCGZ SE/SW Practice Area (Archives)
Casa Grande, Arizona, United States

Feed Status: UP
Listen in your browser - HTML5 player(in browser, HTML5)
Click here to listen with your own player(launches your MP3 player)

KCGZ 241956Z AUTO VRB04KT 10SM CLR 41/17 A3000 RMK AO2 SLP139 T04110167 PNO $

KCGZ Airport Info (Airnav.com)

KCGZ Flight Activity (Flightaware)

Listeners: 0 out of 2509 total

Casa Grande SE Practice Area: 122.850

KCHD Tower (North) (Archives)
Chandler, Arizona, United States

Feed Status: UP
Listen in your browser - HTML5 player(in browser, HTML5)
Click here to listen with your own player(launches your MP3 player)

KCHD 241847Z VRB06KT 10SM CLR 40/16 A2999

KCHD Airport Info (Airnav.com)

KCHD Flight Activity (Flightaware)

Listeners: 0 out of 2509 total

Chandler Tower (North): 126.100

KCHD Tower (South) (Archives)
Chandler, Arizona, United States

Feed Status: UP
Listen in your browser - HTML5 player(in browser, HTML5)
Click here to listen with your own player(launches your MP3 player)

KCHD 241847Z VRB06KT 10SM CLR 40/16 A2999

KCHD Airport Info (Airnav.com)

KCHD Flight Activity (Flightaware)

Listeners: 0 out of 2509 total

Chandler Tower (South): 133.100

KCHO App/Dep (Archives)
Charlottesville, Virginia, United States

Feed Status: UP
Listen in your browser - HTML5 player(in browser, HTML5)
Click here to listen with your own player(launches your MP3 player)

KCHO 241953Z 23005KT 10SM FEW031 SCT075 BKN090 28/21 A3010 RMK AO2 SLP186 T02830211 $

KCHO Airport Info (Airnav.com)

KCHO Flight Activity (Flightaware)

Listeners: 0 out of 2509 total

Potomac Approach/Departure: 132.850

KCHO Tower (Archives)
Charlottesville, Virginia, United States

Feed Status: UP
Listen in your browser - HTML5 player(in browser, HTML5)
Click here to listen with your own player(launches your MP3 player)

KCHO 241953Z 23005KT 10SM FEW031 SCT075 BKN090 28/21 A3010 RMK AO2 SLP186 T02830211 $

KCHO Airport Info (Airnav.com)

KCHO Flight Activity (Flightaware)

Listeners: 0 out of 2509 total

Charlottesville Tower: 124.500

KCHO Tower/App (Archives)
Charlottesville, Virginia, United States

Feed Status: UP
Listen in your browser - HTML5 player(in browser, HTML5)
Click here to listen with your own player(launches your MP3 player)

KCHO 241953Z 23005KT 10SM FEW031 SCT075 BKN090 28/21 A3010 RMK AO2 SLP186 T02830211 $

KCHO Airport Info (Airnav.com)

KCHO Flight Activity (Flightaware)

Listeners: 0 out of 2509 total

Charlottesville Tower: 124.500
Potomac Approach/Departure: 132.850

KCIC Tower/ZOA42 (Archives)
Chico, California, United States

Feed Status: UP
Listen in your browser - HTML5 player(in browser, HTML5)
Click here to listen with your own player(launches your MP3 player)

KCIC 241957Z 15015KT 10 CLR 38/04 A2996

KCIC Airport Info (Airnav.com)

KCIC Flight Activity (Flightaware)

Listeners: 2 out of 2509 total

Chico CTAF/Tower: 121.000
Oakland Center (Sector 42 Low): 132.200

KCID Gnd/Twr/App/KIOW (Archives)
Cedar Rapids, Iowa, United States

Feed Status: UP
Listen in your browser - HTML5 player(in browser, HTML5)
Click here to listen with your own player(launches your MP3 player)

KCID 242023Z VRB03KT 7SM BKN026 BKN033 26/21 A3013 RMK AO2 T02610206

KCID Airport Info (Airnav.com)

KCID Flight Activity (Flightaware)

Listeners: 0 out of 2509 total

Cedar Rapids Approach (091-269): 119.700
Cedar Rapids Approach (270-090): 134.050
Cedar Rapids Clearance Delivery: 125.450
Cedar Rapids Ground (0500-2330): 121.600
Cedar Rapids Tower (0500-2330): 118.700
UNICOM C17 (Marion) and surrounding area: 122.700
UNICOM IA24 Green Castle: 122.900
UNICOM KIOW (Iowa City) and surrounding area: 122.800

KCKB App/Dep (Archives)
Clarksburg, West Virginia, United States

Feed Status: UP
Listen in your browser - HTML5 player(in browser, HTML5)
Click here to listen with your own player(launches your MP3 player)

KCKB 241953Z 18007KT 10SM FEW027 27/21 A3014 RMK AO2 SLP190 T02720206

KCKB Airport Info (Airnav.com)

KCKB Flight Activity (Flightaware)

Listeners: 0 out of 2509 total

Clarksburg Approach (East): 121.150
Clarksburg Approach (West): 119.600

KCKB App/Dep (East) (Archives)
Clarksburg, West Virginia, United States

Feed Status: UP
Listen in your browser - HTML5 player(in browser, HTML5)
Click here to listen with your own player(launches your MP3 player)

KCKB 241953Z 18007KT 10SM FEW027 27/21 A3014 RMK AO2 SLP190 T02720206

KCKB Airport Info (Airnav.com)

KCKB Flight Activity (Flightaware)

Listeners: 0 out of 2509 total

Clarksburg Approach (East): 121.150

KCKB App/Dep (West) (Archives)
Clarksburg, West Virginia, United States

Feed Status: UP
Listen in your browser - HTML5 player(in browser, HTML5)
Click here to listen with your own player(launches your MP3 player)

KCKB 241953Z 18007KT 10SM FEW027 27/21 A3014 RMK AO2 SLP190 T02720206

KCKB Airport Info (Airnav.com)

KCKB Flight Activity (Flightaware)

Listeners: 0 out of 2509 total

Clarksburg Approach (West): 119.600

KCKB Emergency/Guard (Archives)
Clarksburg, West Virginia, United States

Feed Status: UP
Listen in your browser - HTML5 player(in browser, HTML5)
Click here to listen with your own player(launches your MP3 player)

KCKB 241953Z 18007KT 10SM FEW027 27/21 A3014 RMK AO2 SLP190 T02720206

KCKB Airport Info (Airnav.com)

KCKB Flight Activity (Flightaware)

Listeners: 0 out of 2509 total

Emergency/Guard: 121.500

KCKB Ground (Archives)
Clarksburg, West Virginia, United States

Feed Status: UP
Listen in your browser - HTML5 player(in browser, HTML5)
Click here to listen with your own player(launches your MP3 player)

KCKB 241953Z 18007KT 10SM FEW027 27/21 A3014 RMK AO2 SLP190 T02720206

KCKB Airport Info (Airnav.com)

KCKB Flight Activity (Flightaware)

Listeners: 0 out of 2509 total

Clarksburg Ground: 121.900

KCKB Ground/Tower (Archives)
Clarksburg, West Virginia, United States

Feed Status: UP
Listen in your browser - HTML5 player(in browser, HTML5)
Click here to listen with your own player(launches your MP3 player)

KCKB 241953Z 18007KT 10SM FEW027 27/21 A3014 RMK AO2 SLP190 T02720206

KCKB Airport Info (Airnav.com)

KCKB Flight Activity (Flightaware)

Listeners: 0 out of 2509 total

Clarksburg Ground: 121.900
Clarksburg Tower: 126.700

KCKB Tower (Archives)
Clarksburg, West Virginia, United States

Feed Status: UP
Listen in your browser - HTML5 player(in browser, HTML5)
Click here to listen with your own player(launches your MP3 player)

KCKB 241953Z 18007KT 10SM FEW027 27/21 A3014 RMK AO2 SLP190 T02720206

KCKB Airport Info (Airnav.com)

KCKB Flight Activity (Flightaware)

Listeners: 0 out of 2509 total

Clarksburg Tower: 126.700

KCLL Gnd/Twr (Archives)
College Station, Texas, United States

Feed Status: UP
Listen in your browser - HTML5 player(in browser, HTML5)
Click here to listen with your own player(launches your MP3 player)

KCLL 241953Z 00000KT 10SM BKN042 31/22 A3007 RMK AO2 SLP178 T03110222

KCLL Airport Info (Airnav.com)

KCLL Flight Activity (Flightaware)

Listeners: 0 out of 2509 total

Easterwood Ground: 128.700
Easterwood Tower: 118.500

KCLM Del/CTAF/App
Port Angeles, Washington, United States

Feed Status: DOWN
Offline since: 2024-07-24 11:18:22 UTC

KCLM 241953Z AUTO 27006KT 10SM OVC043 18/13 A3012 RMK AO2 SLP200 T01780128

KCLM Airport Info (Airnav.com)

Fairchild CTAF: 122.975
Seattle Radio (Port Angeles RCO): 122.600
Whidbey Approach: 118.200

KCLW CTAF (Archives)
Clearwater, Florida, United States

Feed Status: UP
Listen in your browser - HTML5 player(in browser, HTML5)
Click here to listen with your own player(launches your MP3 player)

KPIE 242016Z 21014G18KT 10SM TS BKN034 BKN055 32/25 A3012 RMK AO2 LTG DSNT SE AND S TSB10 T03220250

KPIE Airport Info (Airnav.com)

KPIE Flight Activity (Flightaware)

Listeners: 0 out of 2509 total

Clearwater Air Park CTAF: 123.000

KCMA App/Dep (Mugu App) (Archives)
Camarillo, California, United States

Feed Status: UP
Listen in your browser - HTML5 player(in browser, HTML5)
Click here to listen with your own player(launches your MP3 player)

KCMA 241955Z 28008KT 10SM CLR 28/19 A3004 RMK AO2 SLP180 T02780194

KCMA Airport Info (Airnav.com)

KCMA Flight Activity (Flightaware)

Listeners: 0 out of 2509 total

Point Mugu Approach: 123.750
Point Mugu Approach: 124.700

KCMA ATIS (Archives)
Camarillo, California, United States

Feed Status: UP
Listen in your browser - HTML5 player(in browser, HTML5)
Click here to listen with your own player(launches your MP3 player)

KCMA 241955Z 28008KT 10SM CLR 28/19 A3004 RMK AO2 SLP180 T02780194

KCMA Airport Info (Airnav.com)

KCMA Flight Activity (Flightaware)

Listeners: 0 out of 2509 total

Camarillo ATIS: 126.025

KCMA Ground/Tower (Archives)
Camarillo, California, United States

Feed Status: UP
Listen in your browser - HTML5 player(in browser, HTML5)
Click here to listen with your own player(launches your MP3 player)

KCMA 241955Z 28008KT 10SM CLR 28/19 A3004 RMK AO2 SLP180 T02780194

KCMA Airport Info (Airnav.com)

KCMA Flight Activity (Flightaware)

Listeners: 1 out of 2509 total

Camarillo Ground: 121.800
Camarillo Tower: 128.200

KWDR/KCVC/KCNI CTAF (Archives)
Canton, Georgia, United States

Feed Status: UP
Listen in your browser - HTML5 player(in browser, HTML5)
Click here to listen with your own player(launches your MP3 player)

KWDR 242015Z AUTO 00000KT 10SM SCT036 BKN045 30/20 A3018 RMK AO2 LTG DSNT SE

KWDR Airport Info (Airnav.com)

KWDR Flight Activity (Flightaware)

Listeners: 0 out of 2509 total

KWDR/KCVC/KCNI CTAF: 123.000

KCNO Ground
Chino, California, United States

Feed Status: DOWN
Offline since: 2024-02-25 21:59:21 UTC

KCNO 241953Z 26007KT 10SM FEW110 36/16 A3002 RMK AO2 SLP159 T03560156 $

KCNO Airport Info (Airnav.com)

Chino Ground: 121.600

KCNO Ground/Tower
Chino, California, United States

Feed Status: DOWN
Offline since: 2024-02-25 22:00:05 UTC

KCNO 241953Z 26007KT 10SM FEW110 36/16 A3002 RMK AO2 SLP159 T03560156 $

KCNO Airport Info (Airnav.com)

Chino Ground: 121.600
Chino Tower: 118.500

KCNO Tower
Chino, California, United States

Feed Status: DOWN
Offline since: 2024-02-25 21:59:21 UTC

KCNO 241953Z 26007KT 10SM FEW110 36/16 A3002 RMK AO2 SLP159 T03560156 $

KCNO Airport Info (Airnav.com)

Chino Tower: 118.500

KCNY CTAF/Misc (Archives)
Moab, Utah, United States

Feed Status: UP
Listen in your browser - HTML5 player(in browser, HTML5)
Click here to listen with your own player(launches your MP3 player)

KCNY 241953Z AUTO 02005KT 10SM CLR 37/04 A3018 RMK AO2 SLP144 T03720039

KCNY Airport Info (Airnav.com)

KCNY Flight Activity (Flightaware)

Listeners: 0 out of 2509 total

Canyonlands CTAF: 122.800
Emergency/Guard: 121.500
Emergency/Guard: 243.000
Helicopter: 123.025

KCOE CTAF
Coeur d'Alene, Idaho, United States

Feed Status: DOWN
Offline since: 2024-07-18 21:43:39 UTC

KCOE 241956Z AUTO 13008KT 9SM CLR 30/04 A3001 RMK AO2 SLP158 T03000044 PNO $

KCOE Airport Info (Airnav.com)

Coeur d'Alene CTAF: 122.800

KCOE FSS (Archives)
Coeur d'Alene, Idaho, United States

Feed Status: UP
Listen in your browser - HTML5 player(in browser, HTML5)
Click here to listen with your own player(launches your MP3 player)

KCOE 241956Z AUTO 13008KT 9SM CLR 30/04 A3001 RMK AO2 SLP158 T03000044 PNO $

KCOE Airport Info (Airnav.com)

KCOE Flight Activity (Flightaware)

Listeners: 0 out of 2509 total

Flight Service: 122.550
Flight Service: 122.650
Flight Service: 122.000
Flight Service: 122.050

KCON/KDAW/KFIT CTAF (Archives)
Concord, New Hampshire, United States

Feed Status: UP
Listen in your browser - HTML5 player(in browser, HTML5)
Click here to listen with your own player(launches your MP3 player)

KMHT 241953Z 13006KT 10SM BKN024 OVC036 24/17 A3013 RMK AO2 SLP214 T02440172

KMHT Airport Info (Airnav.com)

KMHT Flight Activity (Flightaware)

Listeners: 1 out of 2509 total

NH/MA Area CTAF: 122.700

MA/NH/RI/CT Area CTAF (Archives)
Concord, New Hampshire, United States

Feed Status: UP
Listen in your browser - HTML5 player(in browser, HTML5)
Click here to listen with your own player(launches your MP3 player)

KBOS 241954Z 06007KT 10SM SCT006 BKN009 OVC022 19/17 A3016 RMK AO2 SLP212 T01890172 $

KBOS Airport Info (Airnav.com)

KBOS Flight Activity (Flightaware)

Listeners: 1 out of 2509 total

Air-to-Air: 122.750
Bridgeport Flight Service: 122.200
CTAF: 122.700
CTAF: 122.800
CTAF: 122.900
CTAF: 123.000
Emergency/Guard: 121.500

MA/NH/RI/CT Area CTAF (Archives)
Concord, New Hampshire, United States

Feed Status: UP
Listen in your browser - HTML5 player(in browser, HTML5)
Click here to listen with your own player(launches your MP3 player)

KBOS 241954Z 06007KT 10SM SCT006 BKN009 OVC022 19/17 A3016 RMK AO2 SLP212 T01890172 $

KBOS Airport Info (Airnav.com)

KBOS Flight Activity (Flightaware)

Listeners: 1 out of 2509 total

Air-to-Air: 122.750
Bridgeport Flight Service: 122.200
CTAF: 122.700
CTAF: 122.800
CTAF: 122.900
CTAF: 123.000
Emergency/Guard: 121.500

MA/NH/RI/CT Area CTAF (Archives)
Concord, New Hampshire, United States

Feed Status: UP
Listen in your browser - HTML5 player(in browser, HTML5)
Click here to listen with your own player(launches your MP3 player)

KBOS 241954Z 06007KT 10SM SCT006 BKN009 OVC022 19/17 A3016 RMK AO2 SLP212 T01890172 $

KBOS Airport Info (Airnav.com)

KBOS Flight Activity (Flightaware)

Listeners: 1 out of 2509 total

Air-to-Air: 122.750
Bridgeport Flight Service: 122.200
CTAF: 122.700
CTAF: 122.800
CTAF: 122.900
CTAF: 123.000
Emergency/Guard: 121.500

KCPM CTAF (Archives)
Compton, California, United States

Feed Status: UP
Listen in your browser - HTML5 player(in browser, HTML5)
Click here to listen with your own player(launches your MP3 player)

KCPM Airport Info (Airnav.com)

KCPM Flight Activity (Flightaware)

Listeners: 0 out of 2509 total

Compton CTAF: 123.050

KCPR Gnd/Twr/App (Archives)
Casper, Wyoming, United States

Feed Status: UP
Listen in your browser - HTML5 player(in browser, HTML5)
Click here to listen with your own player(launches your MP3 player)

KCPR 242014Z 17005KT 8SM CLR 34/02 A3027 RMK AO2 T03390022

KCPR Airport Info (Airnav.com)

KCPR Flight Activity (Flightaware)

Listeners: 0 out of 2509 total

Casper Approach: 120.650
Casper Ground: 121.900
Casper Tower: 118.300

KCPR Twr/App/ZDV/Radio (Archives)
Casper, Wyoming, United States

Feed Status: UP
Listen in your browser - HTML5 player(in browser, HTML5)
Click here to listen with your own player(launches your MP3 player)

KCPR 242014Z 17005KT 8SM CLR 34/02 A3027 RMK AO2 T03390022

KCPR Airport Info (Airnav.com)

KCPR Flight Activity (Flightaware)

Listeners: 1 out of 2509 total

Casper Approach: 120.650
Casper Ground: 121.900
Casper Radio: 122.600
Casper Tower: 118.300
Denver Center (Sector 22 Casper Low): 135.600

KCPS Del/Gnd/Twr/App (Archives)
Cahokia/St Louis, Illinois, United States

Feed Status: UP
Listen in your browser - HTML5 player(in browser, HTML5)
Click here to listen with your own player(launches your MP3 player)

KCPS 241953Z 22006KT 10SM BKN048 32/20 A3011 RMK AO2 SLP192 T03220200

KCPS Airport Info (Airnav.com)

KCPS Flight Activity (Flightaware)

Listeners: 0 out of 2509 total

Downtown Clearance Delivery: 118.275
Downtown Ground: 121.800
Downtown Tower: 119.925
St. Louis Approach/Departure: 123.700

KCQF CTAF/Misc (Archives)
Fairhope, Alabama, United States

Feed Status: UP
Listen in your browser - HTML5 player(in browser, HTML5)
Click here to listen with your own player(launches your MP3 player)

KCQF 242015Z AUTO 23005KT 10SM CLR A3011 RMK AO2

KCQF Airport Info (Airnav.com)

KCQF Flight Activity (Flightaware)

Listeners: 1 out of 2509 total

Emergency/Guard: 121.500
Fairhope CTAF: 123.000

KCRE ATIS (Archives)
North Myrtle Beach, South Carolina, United States

Feed Status: UP
Listen in your browser - HTML5 player(in browser, HTML5)
Click here to listen with your own player(launches your MP3 player)

KCRE 241953Z 22014KT 10SM CLR 29/26 A3018 RMK AO1 LTG DSNT N AND NE SLP219 T02890256

KCRE Airport Info (Airnav.com)

KCRE Flight Activity (Flightaware)

Listeners: 0 out of 2509 total

Strand ATIS: 119.625

KCRE Ground/Tower (Archives)
North Myrtle Beach, South Carolina, United States

Feed Status: UP
Listen in your browser - HTML5 player(in browser, HTML5)
Click here to listen with your own player(launches your MP3 player)

KCRE 241953Z 22014KT 10SM CLR 29/26 A3018 RMK AO1 LTG DSNT N AND NE SLP219 T02890256

KCRE Airport Info (Airnav.com)

KCRE Flight Activity (Flightaware)

Listeners: 0 out of 2509 total

Strand Ground: 121.800
Strand Tower: 124.600

KCRE Guard (Archives)
North Myrtle Beach, South Carolina, United States

Feed Status: UP
Listen in your browser - HTML5 player(in browser, HTML5)
Click here to listen with your own player(launches your MP3 player)

KCRE 241953Z 22014KT 10SM CLR 29/26 A3018 RMK AO1 LTG DSNT N AND NE SLP219 T02890256

KCRE Airport Info (Airnav.com)

KCRE Flight Activity (Flightaware)

Listeners: 0 out of 2509 total

Emergency/Guard: 121.500

KCRQ Tower (Archives)
Carlsbad, California, United States

Feed Status: UP
Listen in your browser - HTML5 player(in browser, HTML5)
Click here to listen with your own player(launches your MP3 player)

KCRQ 241953Z AUTO VRB06KT 10SM CLR 25/18 A3003 RMK AO2 SLP165 T02500183

KCRQ Airport Info (Airnav.com)

KCRQ Flight Activity (Flightaware)

Listeners: 2 out of 2509 total

Palomar Tower: 118.600

KCTJ/KLGC CTAF
Carrollton, Georgia, United States

Feed Status: DOWN
Offline since: 2024-06-21 16:09:38 UTC

KCCO 242035Z AUTO 03004KT 10SM VCTS SCT035 BKN045 BKN070 30/21 A3018 RMK AO2 LTG DSNT S T03010213

KCCO Airport Info (Airnav.com)

KCTJ/KLGC CTAF: 122.975

KCUB CTAF (Archives)
Columbia, South Carolina, United States

Feed Status: UP
Listen in your browser - HTML5 player(in browser, HTML5)
Click here to listen with your own player(launches your MP3 player)

KCUB 241953Z AUTO VRB03KT 10SM BKN049 BKN060 34/22 A3013 RMK AO2 LTG DSNT SE-SW SLP199 T03440217 $

KCUB Airport Info (Airnav.com)

KCUB Flight Activity (Flightaware)

Listeners: 0 out of 2509 total

Columbia CTAF: 123.075

KWDR/KCVC/KCNI CTAF (Archives)
Atlanta, Georgia, United States

Feed Status: UP
Listen in your browser - HTML5 player(in browser, HTML5)
Click here to listen with your own player(launches your MP3 player)

KWDR 242015Z AUTO 00000KT 10SM SCT036 BKN045 30/20 A3018 RMK AO2 LTG DSNT SE

KWDR Airport Info (Airnav.com)

KWDR Flight Activity (Flightaware)

Listeners: 0 out of 2509 total

KWDR/KCVC/KCNI CTAF: 123.000

KCVO CTAF/Misc (Archives)
Corvallis, Oregon, United States

Feed Status: UP
Listen in your browser - HTML5 player(in browser, HTML5)
Click here to listen with your own player(launches your MP3 player)

KCVO 241956Z VRB06KT 10SM CLR 26/11 A3010 RMK AO2 SLP192 T02610111

KCVO Airport Info (Airnav.com)

KCVO Flight Activity (Flightaware)

Listeners: 0 out of 2509 total

Cascade Approach: 127.500
Cascade Approach: 119.600
Corvallis CTAF: 123.075
Seattle Center (Sector 6 Low): 125.800

KCXP CTAF (Archives)
Carson City, Nevada, United States

Feed Status: UP
Listen in your browser - HTML5 player(in browser, HTML5)
Click here to listen with your own player(launches your MP3 player)

KCXP 242015Z AUTO 26014KT 10SM CLR 35/09 A3025 RMK AO2

KCXP Airport Info (Airnav.com)

KCXP Flight Activity (Flightaware)

Listeners: 0 out of 2509 total

Carson City CTAF: 123.000

KCXY Ground (Archives)
Harrisburg, Pennsylvania, United States

Feed Status: UP
Listen in your browser - HTML5 player(in browser, HTML5)
Click here to listen with your own player(launches your MP3 player)

KMDT 241956Z 22007KT 10SM FEW035 SCT050 OVC220 30/21 A3005 RMK AO2 SLP175 T03000206

KMDT Airport Info (Airnav.com)

KMDT Flight Activity (Flightaware)

Listeners: 0 out of 2509 total

Capital City Ground: 121.900

KCXY Ground/Tower (Archives)
Harrisburg, Pennsylvania, United States

Feed Status: UP
Listen in your browser - HTML5 player(in browser, HTML5)
Click here to listen with your own player(launches your MP3 player)

KMDT 241956Z 22007KT 10SM FEW035 SCT050 OVC220 30/21 A3005 RMK AO2 SLP175 T03000206

KMDT Airport Info (Airnav.com)

KMDT Flight Activity (Flightaware)

Listeners: 0 out of 2509 total

Capital City Ground: 121.900
Capital City Tower: 119.500

KCXY Tower (Archives)
Harrisburg, Pennsylvania, United States

Feed Status: UP
Listen in your browser - HTML5 player(in browser, HTML5)
Click here to listen with your own player(launches your MP3 player)

KMDT 241956Z 22007KT 10SM FEW035 SCT050 OVC220 30/21 A3005 RMK AO2 SLP175 T03000206

KMDT Airport Info (Airnav.com)

KMDT Flight Activity (Flightaware)

Listeners: 0 out of 2509 total

Capital City Tower: 119.500

KCYS Gnd/Twr/App/Center (Archives)
Cheyenne, Wyoming, United States

Feed Status: UP
Listen in your browser - HTML5 player(in browser, HTML5)
Click here to listen with your own player(launches your MP3 player)

KCYS 241953Z AUTO 10006KT 9SM CLR 32/01 A3034 RMK AO2 SLP177 T03220011

KCYS Airport Info (Airnav.com)

KCYS Flight Activity (Flightaware)

Listeners: 1 out of 2509 total

Cheyenne Approach: 124.550
Cheyenne Ground: 121.900
Cheyenne Tower: 118.700
Denver Center (Sector 21 Cheyenne Low): 125.900
Emergency/Guard: 121.500

KCZL CTAF (Archives)
Calhoun, Georgia, United States

Feed Status: UP
Listen in your browser - HTML5 player(in browser, HTML5)
Click here to listen with your own player(launches your MP3 player)

KCZL 242015Z AUTO 00000KT 10SM 29/23 A3017 RMK AO2

KCZL Airport Info (Airnav.com)

KCZL Flight Activity (Flightaware)

Listeners: 0 out of 2509 total

Calhoun CTAF: 122.800

KDAA/KADW Tower (Archives)
Fort Belvoir, Virginia, United States

Feed Status: UP
Listen in your browser - HTML5 player(in browser, HTML5)
Click here to listen with your own player(launches your MP3 player)

KDAA 241955Z AUTO 20004KT 10SM FEW170 30/23 A3006 RMK AO2 SLP182 T03030234 $

KDAA Airport Info (Airnav.com)

KDAA Flight Activity (Flightaware)

Listeners: 1 out of 2509 total

Andrews Tower: 118.400
Andrews Tower: 349.000
Davison Tower: 241.000
Davison Tower: 126.300
Davison Tower: 229.400

KCON/KDAW/KFIT CTAF (Archives)
Rochester, New Hampshire, United States

Feed Status: UP
Listen in your browser - HTML5 player(in browser, HTML5)
Click here to listen with your own player(launches your MP3 player)

KMHT 241953Z 13006KT 10SM BKN024 OVC036 24/17 A3013 RMK AO2 SLP214 T02440172

KMHT Airport Info (Airnav.com)

KMHT Flight Activity (Flightaware)

Listeners: 1 out of 2509 total

NH/MA Area CTAF: 122.700

KDBQ ATIS (Archives)
Dubuque, Iowa, United States

Feed Status: UP
Listen in your browser - HTML5 player(in browser, HTML5)
Click here to listen with your own player(launches your MP3 player)

KDBQ 241953Z 04003KT 10SM SCT020 BKN044 OVC055 24/19 A3016 RMK AO2 SLP208 T02440189

KDBQ Airport Info (Airnav.com)

KDBQ Flight Activity (Flightaware)

Listeners: 0 out of 2509 total

Dubuque ATIS: 127.250

KDBQ Ground (Archives)
Dubuque, Iowa, United States

Feed Status: UP
Listen in your browser - HTML5 player(in browser, HTML5)
Click here to listen with your own player(launches your MP3 player)

KDBQ 241953Z 04003KT 10SM SCT020 BKN044 OVC055 24/19 A3016 RMK AO2 SLP208 T02440189

KDBQ Airport Info (Airnav.com)

KDBQ Flight Activity (Flightaware)

Listeners: 0 out of 2509 total

Dubuque Ground: 121.800

KDBQ Ground/Tower (Archives)
Dubuque, Iowa, United States

Feed Status: UP
Listen in your browser - HTML5 player(in browser, HTML5)
Click here to listen with your own player(launches your MP3 player)

KDBQ 241953Z 04003KT 10SM SCT020 BKN044 OVC055 24/19 A3016 RMK AO2 SLP208 T02440189

KDBQ Airport Info (Airnav.com)

KDBQ Flight Activity (Flightaware)

Listeners: 0 out of 2509 total

Dubuque Ground: 121.800
Dubuque Tower: 119.500

KDBQ Guard (Archives)
Dubuque, Iowa, United States

Feed Status: UP
Listen in your browser - HTML5 player(in browser, HTML5)
Click here to listen with your own player(launches your MP3 player)

KDBQ 241953Z 04003KT 10SM SCT020 BKN044 OVC055 24/19 A3016 RMK AO2 SLP208 T02440189

KDBQ Airport Info (Airnav.com)

KDBQ Flight Activity (Flightaware)

Listeners: 0 out of 2509 total

Emergency/Guard: 121.500

KDBQ Tower (Archives)
Dubuque, Iowa, United States

Feed Status: UP
Listen in your browser - HTML5 player(in browser, HTML5)
Click here to listen with your own player(launches your MP3 player)

KDBQ 241953Z 04003KT 10SM SCT020 BKN044 OVC055 24/19 A3016 RMK AO2 SLP208 T02440189

KDBQ Airport Info (Airnav.com)

KDBQ Flight Activity (Flightaware)

Listeners: 0 out of 2509 total

Dubuque Tower: 119.500

KDED CTAF (Archives)
DeLand, Florida, United States

Feed Status: UP
Listen in your browser - HTML5 player(in browser, HTML5)
Click here to listen with your own player(launches your MP3 player)

KDED 242010Z AUTO 08010KT 10SM SCT036 SCT047 SCT090 32/25 A3015 RMK AO2 T03210248

KDED Airport Info (Airnav.com)

KDED Flight Activity (Flightaware)

Listeners: 0 out of 2509 total

DeLand CTAF/UNICOM: 123.075

KDED CTAF/Misc
DeLand, Florida, United States

Feed Status: DOWN
Offline since: 2024-07-09 06:46:22 UTC

KDED 242010Z AUTO 08010KT 10SM SCT036 SCT047 SCT090 32/25 A3015 RMK AO2 T03210248

KDED Airport Info (Airnav.com)

DeLand CTAF/UNICOM: 123.075
Skydive DeLand: 122.850

KDED Emergency/Guard (Archives)
DeLand, Florida, United States

Feed Status: UP
Listen in your browser - HTML5 player(in browser, HTML5)
Click here to listen with your own player(launches your MP3 player)

KDED 242010Z AUTO 08010KT 10SM SCT036 SCT047 SCT090 32/25 A3015 RMK AO2 T03210248

KDED Airport Info (Airnav.com)

KDED Flight Activity (Flightaware)

Listeners: 0 out of 2509 total

Emergency/Guard: 121.500

KDLH Gnd/Twr/App (Archives)
Duluth, Minnesota, United States

Feed Status: UP
Listen in your browser - HTML5 player(in browser, HTML5)
Click here to listen with your own player(launches your MP3 player)

KDLH 241955Z 13009KT 10SM FEW026 FEW050 22/09 A3023 RMK AO2 SLP239 T02170094

KDLH Airport Info (Airnav.com)

KDLH Flight Activity (Flightaware)

Listeners: 1 out of 2509 total

Duluth Approach/Departure: 125.450
Duluth Ground: 121.900
Duluth Tower: 118.300

KDMW AWOS #1 (Archives)
Westminster, Maryland, United States

Feed Status: UP
Listen in your browser - HTML5 player(in browser, HTML5)
Click here to listen with your own player(launches your MP3 player)

KDMW 242005Z AUTO 20004KT 10SM BKN035 BKN040 32/21 A3010 RMK AO2

KDMW Airport Info (Airnav.com)

KDMW Flight Activity (Flightaware)

Listeners: 0 out of 2509 total

Carroll County AWOS: 121.250

KDMW AWOS #2
Westminster, Maryland, United States

Feed Status: DOWN
Offline since: 2024-07-20 14:56:39 UTC

KDMW 242005Z AUTO 20004KT 10SM BKN035 BKN040 32/21 A3010 RMK AO2

KDMW Airport Info (Airnav.com)

Carroll County AWOS: 121.250

KDMW CTAF #1 (Archives)
Westminster, Maryland, United States

Feed Status: UP
Listen in your browser - HTML5 player(in browser, HTML5)
Click here to listen with your own player(launches your MP3 player)

KDMW 242005Z AUTO 20004KT 10SM BKN035 BKN040 32/21 A3010 RMK AO2

KDMW Airport Info (Airnav.com)

KDMW Flight Activity (Flightaware)

Listeners: 0 out of 2509 total

Carroll County CTAF: 122.700

KDMW CTAF #2
Westminster, Maryland, United States

Feed Status: DOWN
Offline since: 2024-07-20 14:56:39 UTC

KDMW 242005Z AUTO 20004KT 10SM BKN035 BKN040 32/21 A3010 RMK AO2

KDMW Airport Info (Airnav.com)

Carroll County CTAF: 122.700

KDMW Emergency/Guard #1 (Archives)
Westminster, Maryland, United States

Feed Status: UP
Listen in your browser - HTML5 player(in browser, HTML5)
Click here to listen with your own player(launches your MP3 player)

KDMW 242005Z AUTO 20004KT 10SM BKN035 BKN040 32/21 A3010 RMK AO2

KDMW Airport Info (Airnav.com)

KDMW Flight Activity (Flightaware)

Listeners: 0 out of 2509 total

Emergency/Guard: 121.500

KDMW Emergency/Guard #2
Westminster, Maryland, United States

Feed Status: DOWN
Offline since: 2024-07-20 14:56:39 UTC

KDMW 242005Z AUTO 20004KT 10SM BKN035 BKN040 32/21 A3010 RMK AO2

KDMW Airport Info (Airnav.com)

Emergency/Guard: 121.500

KDOV ATIS
Dover, Delaware, United States

Feed Status: DOWN
Offline since: 2024-07-21 06:16:22 UTC

KDOV 241958Z 11010KT 10SM SCT024 BKN032 25/23 A3007 RMK AO2A SLP186 RAB30E57

KDOV Airport Info (Airnav.com)

Dover ATIS: 127.825

KDOV Del/Gnd/Twr/App (Archives)
Dover, Delaware, United States

Feed Status: UP
Listen in your browser - HTML5 player(in browser, HTML5)
Click here to listen with your own player(launches your MP3 player)

KDOV 241958Z 11010KT 10SM SCT024 BKN032 25/23 A3007 RMK AO2A SLP186 RAB30E57

KDOV Airport Info (Airnav.com)

KDOV Flight Activity (Flightaware)

Listeners: 1 out of 2509 total

Dover Approach/Departure: 132.425
Dover Approach/Departure: 132.425
Dover Clearance Delivery: 118.050
Dover Clearance Delivery: 125.550
Dover Ground: 118.875
Dover Tower: 126.350

KDOV Gnd/App
Dover, Delaware, United States

Feed Status: DOWN
Offline since: 2024-07-18 12:45:39 UTC

KDOV 241958Z 11010KT 10SM SCT024 BKN032 25/23 A3007 RMK AO2A SLP186 RAB30E57

KDOV Airport Info (Airnav.com)

Dover Approach/Departure: 132.425
Dover Ground: 118.875

KDOV Tower
Dover, Delaware, United States

Feed Status: DOWN
Offline since: 2024-07-21 06:16:22 UTC

KDOV 241958Z 11010KT 10SM SCT024 BKN032 25/23 A3007 RMK AO2A SLP186 RAB30E57

KDOV Airport Info (Airnav.com)

Dover Tower: 126.350

KDPA ATIS (Archives)
Chicago, Illinois, United States

Feed Status: UP
Listen in your browser - HTML5 player(in browser, HTML5)
Click here to listen with your own player(launches your MP3 player)

KDPA 241952Z 03004KT 10SM FEW026 BKN040 OVC047 24/18 A3013 RMK AO2 SLP199 T02390178

KDPA Airport Info (Airnav.com)

KDPA Flight Activity (Flightaware)

Listeners: 0 out of 2509 total

DuPage ATIS: 132.075

KDPA Chicago Approach (Archives)
Chicago, Illinois, United States

Feed Status: UP
Listen in your browser - HTML5 player(in browser, HTML5)
Click here to listen with your own player(launches your MP3 player)

KORD 241951Z 05006KT 10SM BKN026 BKN040 24/18 A3013 RMK AO2 SLP200 T02390178

KORD Airport Info (Airnav.com)

KORD Flight Activity (Flightaware)

Listeners: 0 out of 2509 total

Chicago Approach/Departure: 133.500

KDPA Del/Gnd/Twr/Misc (Archives)
Chicago, Illinois, United States

Feed Status: UP
Listen in your browser - HTML5 player(in browser, HTML5)
Click here to listen with your own player(launches your MP3 player)

KDPA 241952Z 03004KT 10SM FEW026 BKN040 OVC047 24/18 A3013 RMK AO2 SLP199 T02390178

KDPA Airport Info (Airnav.com)

KDPA Flight Activity (Flightaware)

Listeners: 0 out of 2509 total

DuPage Clearance Delivery: 119.750
DuPage Flight Center (FBO): 464.375
DuPage Ground: 121.800
DuPage Ground Operations: 469.5875
DuPage Ground Operations: 453.225
DuPage Ground Operations (Airport Authority): 453.500
DuPage Tower: 120.900
DuPage UNICOM ("Flight Center"): 122.950
Flight Service Station (FSS) RCO: 122.550

KDTO ASOS (Archives)
Denton, Texas, United States

Feed Status: UP
Listen in your browser - HTML5 player(in browser, HTML5)
Click here to listen with your own player(launches your MP3 player)

KDTO 241953Z 12005KT 10SM BKN048 BKN070 32/21 A3011 RMK AO2 SLP187 T03170206

KDTO Airport Info (Airnav.com)

KDTO Flight Activity (Flightaware)

Listeners: 0 out of 2509 total

Denton ASOS: 119.325

KDTO Gnd/Twr (Archives)
Denton, Texas, United States

Feed Status: UP
Listen in your browser - HTML5 player(in browser, HTML5)
Click here to listen with your own player(launches your MP3 player)

KDTO 241953Z 12005KT 10SM BKN048 BKN070 32/21 A3011 RMK AO2 SLP187 T03170206

KDTO Airport Info (Airnav.com)

KDTO Flight Activity (Flightaware)

Listeners: 3 out of 2509 total

Denton Ground: 123.950
Denton Tower: 119.950

KDTO Tower (Archives)
Denton, Texas, United States

Feed Status: UP
Listen in your browser - HTML5 player(in browser, HTML5)
Click here to listen with your own player(launches your MP3 player)

KDTO 241953Z 12005KT 10SM BKN048 BKN070 32/21 A3011 RMK AO2 SLP187 T03170206

KDTO Airport Info (Airnav.com)

KDTO Flight Activity (Flightaware)

Listeners: 0 out of 2509 total

Denton Tower: 119.950

KDVO CTAF (Archives)
Novato, California, United States

Feed Status: UP
Listen in your browser - HTML5 player(in browser, HTML5)
Click here to listen with your own player(launches your MP3 player)

KDVO 242015Z AUTO 00000KT 10SM CLR 33/15 A3001 RMK AO2

KDVO Airport Info (Airnav.com)

KDVO Flight Activity (Flightaware)

Listeners: 0 out of 2509 total

Novato CTAF: 123.075

KDVT ATIS (Archives)
Phoenix, Arizona, United States

Feed Status: UP
Listen in your browser - HTML5 player(in browser, HTML5)
Click here to listen with your own player(launches your MP3 player)

KDVT 241953Z 24007G15KT 10SM CLR 41/17 A2999 RMK AO2 SLP125 T04060167

KDVT Airport Info (Airnav.com)

KDVT Flight Activity (Flightaware)

Listeners: 3 out of 2509 total

Deer Valley ATIS: 126.500

KDVT Clearance Delivery (Archives)
Phoenix, Arizona, United States

Feed Status: UP
Listen in your browser - HTML5 player(in browser, HTML5)
Click here to listen with your own player(launches your MP3 player)

KDVT 241953Z 24007G15KT 10SM CLR 41/17 A2999 RMK AO2 SLP125 T04060167

KDVT Airport Info (Airnav.com)

KDVT Flight Activity (Flightaware)

Listeners: 0 out of 2509 total

Deer Valley Clearance Delivery: 123.900

KDVT Delivery/Ground (Archives)
Phoenix, Arizona, United States

Feed Status: UP
Listen in your browser - HTML5 player(in browser, HTML5)
Click here to listen with your own player(launches your MP3 player)

KDVT 241953Z 24007G15KT 10SM CLR 41/17 A2999 RMK AO2 SLP125 T04060167

KDVT Airport Info (Airnav.com)

KDVT Flight Activity (Flightaware)

Listeners: 0 out of 2509 total

Deer Valley Clearance Delivery: 123.900
Deer Valley Ground: 121.800

KDVT Ground (Archives)
Phoenix, Arizona, United States

Feed Status: UP
Listen in your browser - HTML5 player(in browser, HTML5)
Click here to listen with your own player(launches your MP3 player)

KDVT 241953Z 24007G15KT 10SM CLR 41/17 A2999 RMK AO2 SLP125 T04060167

KDVT Airport Info (Airnav.com)

KDVT Flight Activity (Flightaware)

Listeners: 0 out of 2509 total

Deer Valley Ground: 121.800

KDVT Tower (Both) (Archives)
Phoenix, Arizona, United States

Feed Status: UP
Listen in your browser - HTML5 player(in browser, HTML5)
Click here to listen with your own player(launches your MP3 player)

KDVT 241953Z 24007G15KT 10SM CLR 41/17 A2999 RMK AO2 SLP125 T04060167

KDVT Airport Info (Airnav.com)

KDVT Flight Activity (Flightaware)

Listeners: 0 out of 2509 total

Deer Valley Tower (North): 120.200
Deer Valley Tower (South): 118.400

KDVT Tower (North) (Archives)
Phoenix, Arizona, United States

Feed Status: UP
Listen in your browser - HTML5 player(in browser, HTML5)
Click here to listen with your own player(launches your MP3 player)

KDVT 241953Z 24007G15KT 10SM CLR 41/17 A2999 RMK AO2 SLP125 T04060167

KDVT Airport Info (Airnav.com)

KDVT Flight Activity (Flightaware)

Listeners: 0 out of 2509 total

Deer Valley Tower (North): 120.200

KDVT Tower (South) (Archives)
Phoenix, Arizona, United States

Feed Status: UP
Listen in your browser - HTML5 player(in browser, HTML5)
Click here to listen with your own player(launches your MP3 player)

KDVT 241953Z 24007G15KT 10SM CLR 41/17 A2999 RMK AO2 SLP125 T04060167

KDVT Airport Info (Airnav.com)

KDVT Flight Activity (Flightaware)

Listeners: 4 out of 2509 total

Deer Valley Tower (South): 118.400

KDWH Del/ Gnd/Twr (Archives)
Houston, Texas, United States

Feed Status: UP
Listen in your browser - HTML5 player(in browser, HTML5)
Click here to listen with your own player(launches your MP3 player)

KDWH 242000Z 33003KT 10SM BKN027 31/23 A3007 RMK AO2 T03060228

KDWH Airport Info (Airnav.com)

KDWH Flight Activity (Flightaware)

Listeners: 2 out of 2509 total

Hooks Clearance Delivery: 119.450
Hooks Ground: 121.800
Hooks Tower (E): 127.400
Hooks Tower (W): 118.400
Hooks UNICOM: 122.950

KDXR ATIS (Archives)
Danbury, Connecticut, United States

Feed Status: UP
Listen in your browser - HTML5 player(in browser, HTML5)
Click here to listen with your own player(launches your MP3 player)

KDXR 242027Z 16005KT 10SM SCT021 26/22 A3011 RMK AO2 T02610217 $

KDXR Airport Info (Airnav.com)

KDXR Flight Activity (Flightaware)

Listeners: 0 out of 2509 total

Danbury ATIS: 127.750

KDXR Ground/Tower (Archives)
Danbury, Connecticut, United States

Feed Status: UP
Listen in your browser - HTML5 player(in browser, HTML5)
Click here to listen with your own player(launches your MP3 player)

KDXR 242027Z 16005KT 10SM SCT021 26/22 A3011 RMK AO2 T02610217 $

KDXR Airport Info (Airnav.com)

KDXR Flight Activity (Flightaware)

Listeners: 1 out of 2509 total

Danbury Ground: 121.600
Danbury Tower: 119.400

KDYB CTAF (Archives)
Summerville, South Carolina, United States

Feed Status: UP
Listen in your browser - HTML5 player(in browser, HTML5)
Click here to listen with your own player(launches your MP3 player)

KDYB 242015Z AUTO 00000KT 10SM VCTS SCT029 SCT040 SCT055 26/24 A3017 RMK AO2 LTG DSNT NW-NE

KDYB Airport Info (Airnav.com)

KDYB Flight Activity (Flightaware)

Listeners: 0 out of 2509 total

Summerville CTAF: 123.000

KDYL CTAF #1
Doylestown, Pennsylvania, United States

Feed Status: DOWN
Offline since: 2024-07-23 01:33:22 UTC

KDYL 241954Z AUTO 19004KT 10SM CLR 26/20 A3009 RMK AO2 SLP184 T02610200 $

KDYL Airport Info (Airnav.com)

Doylestown CTAF/UNICOM: 122.975

KDYL CTAF #2 (Archives)
Doylestown, Pennsylvania, United States

Feed Status: UP
Listen in your browser - HTML5 player(in browser, HTML5)
Click here to listen with your own player(launches your MP3 player)

KDYL 241954Z AUTO 19004KT 10SM CLR 26/20 A3009 RMK AO2 SLP184 T02610200 $

KDYL Airport Info (Airnav.com)

KDYL Flight Activity (Flightaware)

Listeners: 0 out of 2509 total

Doylestown CTAF/UNICOM: 122.975

KEAR AWOS (Archives)
Kearney, Nebraska, United States

Feed Status: UP
Listen in your browser - HTML5 player(in browser, HTML5)
Click here to listen with your own player(launches your MP3 player)

KEAR 241956Z AUTO 17010KT 10SM CLR 32/20 A3015 RMK AO2 SLP189 T03170200

KEAR Airport Info (Airnav.com)

KEAR Flight Activity (Flightaware)

Listeners: 0 out of 2509 total

Kearney AWOS: 123.875

KEAR Columbus Radio (Archives)
Kearney, Nebraska, United States

Feed Status: UP
Listen in your browser - HTML5 player(in browser, HTML5)
Click here to listen with your own player(launches your MP3 player)

KEAR 241956Z AUTO 17010KT 10SM CLR 32/20 A3015 RMK AO2 SLP189 T03170200

KEAR Airport Info (Airnav.com)

KEAR Flight Activity (Flightaware)

Listeners: 0 out of 2509 total

Columbus Radio: 122.550

KEAR CTAF (Archives)
Kearney, Nebraska, United States

Feed Status: UP
Listen in your browser - HTML5 player(in browser, HTML5)
Click here to listen with your own player(launches your MP3 player)

KEAR 241956Z AUTO 17010KT 10SM CLR 32/20 A3015 RMK AO2 SLP189 T03170200

KEAR Airport Info (Airnav.com)

KEAR Flight Activity (Flightaware)

Listeners: 0 out of 2509 total

Kearney CTAF: 123.000

KEAU Tower
Eau Claire, Wisconsin, United States

Feed Status: DOWN
Offline since: 2024-06-13 15:08:05 UTC

KEAU 241956Z VRB03KT 10SM SCT038 23/13 A3020 RMK AO2 SLP224 T02330133

KEAU Airport Info (Airnav.com)

Eau Claire Tower: 118.575

KEDC ATIS (Archives)
Austin, Texas, United States

Feed Status: UP
Listen in your browser - HTML5 player(in browser, HTML5)
Click here to listen with your own player(launches your MP3 player)

KEDC 242015Z AUTO 00000KT 7SM FEW043 FEW049 SCT055 32/23 A3006 RMK AO2

KEDC Airport Info (Airnav.com)

KEDC Flight Activity (Flightaware)

Listeners: out of 2509 total

Executive ATIS/AWOS: 118.825

KEDC Austin App/Dep
Austin, Texas, United States

Feed Status: DOWN
Offline since: 2024-07-24 20:10:22 UTC

KEDC 242015Z AUTO 00000KT 7SM FEW043 FEW049 SCT055 32/23 A3006 RMK AO2

KEDC Airport Info (Airnav.com)

Auston Approach/Departure: 127.225

KEDC Clearance Delivery
Austin, Texas, United States

Feed Status: DOWN
Offline since: 2024-07-24 06:35:22 UTC

KEDC 242015Z AUTO 00000KT 7SM FEW043 FEW049 SCT055 32/23 A3006 RMK AO2

KEDC Airport Info (Airnav.com)

Executive Clearance Delivery (when Tower is closed): 126.025

KEDC Clearance/Ground (Archives)
Austin, Texas, United States

Feed Status: UP
Listen in your browser - HTML5 player(in browser, HTML5)
Click here to listen with your own player(launches your MP3 player)

KEDC 242015Z AUTO 00000KT 7SM FEW043 FEW049 SCT055 32/23 A3006 RMK AO2

KEDC Airport Info (Airnav.com)

KEDC Flight Activity (Flightaware)

Listeners: out of 2509 total

Executive Clearance Delivery (when Tower is closed): 126.025
Executive Ground: 119.450

KEDC Del/Gnd/Twr (Archives)
Austin, Texas, United States

Feed Status: UP
Listen in your browser - HTML5 player(in browser, HTML5)
Click here to listen with your own player(launches your MP3 player)

KEDC 242015Z AUTO 00000KT 7SM FEW043 FEW049 SCT055 32/23 A3006 RMK AO2

KEDC Airport Info (Airnav.com)

KEDC Flight Activity (Flightaware)

Listeners: out of 2509 total

Executive Ground: 119.450
Executive Tower: 120.300

KEDC Ground
Austin, Texas, United States

Feed Status: DOWN
Offline since: 2024-07-24 20:40:06 UTC

KEDC 242015Z AUTO 00000KT 7SM FEW043 FEW049 SCT055 32/23 A3006 RMK AO2

KEDC Airport Info (Airnav.com)

Executive Ground: 119.450

KEDC Ground/Tower (Archives)
Austin, Texas, United States

Feed Status: UP
Listen in your browser - HTML5 player(in browser, HTML5)
Click here to listen with your own player(launches your MP3 player)

KEDC 242015Z AUTO 00000KT 7SM FEW043 FEW049 SCT055 32/23 A3006 RMK AO2

KEDC Airport Info (Airnav.com)

KEDC Flight Activity (Flightaware)

Listeners: out of 2509 total

Executive Ground: 119.450
Executive Tower: 120.300

KEDC Tower
Austin, Texas, United States

Feed Status: DOWN
Offline since: 2024-07-24 20:40:06 UTC

KEDC 242015Z AUTO 00000KT 7SM FEW043 FEW049 SCT055 32/23 A3006 RMK AO2

KEDC Airport Info (Airnav.com)

Executive Tower: 120.300

KEDU CTAF (Archives)
Davis, California, United States

Feed Status: UP
Listen in your browser - HTML5 player(in browser, HTML5)
Click here to listen with your own player(launches your MP3 player)

KEDU 242015Z AUTO 10SM SCT030 39/04 A2996 RMK AO1

KEDU Airport Info (Airnav.com)

KEDU Flight Activity (Flightaware)

Listeners: 4 out of 2509 total

University CTAF: 123.075

KEEN CTAF (Archives)
Keene, New Hampshire, United States

Feed Status: UP
Listen in your browser - HTML5 player(in browser, HTML5)
Click here to listen with your own player(launches your MP3 player)

KMHT 241953Z 13006KT 10SM BKN024 OVC036 24/17 A3013 RMK AO2 SLP214 T02440172

KMHT Airport Info (Airnav.com)

KMHT Flight Activity (Flightaware)

Listeners: 0 out of 2509 total

Keene CTAF: 123.000

MA/NH/RI/CT Area CTAF (Archives)
Keene, New Hampshire, United States

Feed Status: UP
Listen in your browser - HTML5 player(in browser, HTML5)
Click here to listen with your own player(launches your MP3 player)

KBOS 241954Z 06007KT 10SM SCT006 BKN009 OVC022 19/17 A3016 RMK AO2 SLP212 T01890172 $

KBOS Airport Info (Airnav.com)

KBOS Flight Activity (Flightaware)

Listeners: 1 out of 2509 total

Air-to-Air: 122.750
Bridgeport Flight Service: 122.200
CTAF: 122.700
CTAF: 122.800
CTAF: 122.900
CTAF: 123.000
Emergency/Guard: 121.500

MA/NH/RI/CT Area CTAF (Archives)
Keene, New Hampshire, United States

Feed Status: UP
Listen in your browser - HTML5 player(in browser, HTML5)
Click here to listen with your own player(launches your MP3 player)

KBOS 241954Z 06007KT 10SM SCT006 BKN009 OVC022 19/17 A3016 RMK AO2 SLP212 T01890172 $

KBOS Airport Info (Airnav.com)

KBOS Flight Activity (Flightaware)

Listeners: 1 out of 2509 total

Air-to-Air: 122.750
Bridgeport Flight Service: 122.200
CTAF: 122.700
CTAF: 122.800
CTAF: 122.900
CTAF: 123.000
Emergency/Guard: 121.500

MA/NH/RI/CT Area CTAF (Archives)
Keene, New Hampshire, United States

Feed Status: UP
Listen in your browser - HTML5 player(in browser, HTML5)
Click here to listen with your own player(launches your MP3 player)

KBOS 241954Z 06007KT 10SM SCT006 BKN009 OVC022 19/17 A3016 RMK AO2 SLP212 T01890172 $

KBOS Airport Info (Airnav.com)

KBOS Flight Activity (Flightaware)

Listeners: 1 out of 2509 total

Air-to-Air: 122.750
Bridgeport Flight Service: 122.200
CTAF: 122.700
CTAF: 122.800
CTAF: 122.900
CTAF: 123.000
Emergency/Guard: 121.500

KEFD Tower (Archives)
Houston, Texas, United States

Feed Status: UP
Listen in your browser - HTML5 player(in browser, HTML5)
Click here to listen with your own player(launches your MP3 player)

KEFD 241954Z 17008KT 10SM SCT012 BKN070 27/23 A3008

KEFD Airport Info (Airnav.com)

KEFD Flight Activity (Flightaware)

Listeners: 9 out of 2509 total

Ellington Tower: 126.050

KFTG/KEIK/KBDU/KLMO/Misc (Archives)
Erie, Colorado, United States

Feed Status: UP
Listen in your browser - HTML5 player(in browser, HTML5)
Click here to listen with your own player(launches your MP3 player)

KDEN 241953Z 00000KT 8SM FEW140 33/03 A3030 RMK AO2 SLP173 T03330033

KDEN Airport Info (Airnav.com)

KDEN Flight Activity (Flightaware)

Listeners: 2 out of 2509 total

Air-to-Air Fixed Wing: 122.750
Air-to-Air Informal: 123.450
Boulder CTAF: 122.725
Erie CTAF: 123.000
Front Range Tower: 120.200
KBKF Tower: 121.000
Longmont CTAF: 122.975
MULTICOM: 122.900
UNICOM: 122.950

KELM App/Dep (Archives)
Elmira, New York, United States

Feed Status: UP
Listen in your browser - HTML5 player(in browser, HTML5)
Click here to listen with your own player(launches your MP3 player)

KELM 241953Z 21010KT 10SM SCT110 29/19 A3002 RMK AO2 LTG DSNT NE RAB24E34 SLP157 P0000 T02890194

KELM Airport Info (Airnav.com)

KELM Flight Activity (Flightaware)

Listeners: 0 out of 2509 total

Elmira Approach/Departure: 128.425
Elmira Approach/Departure (Backup): 118.150
Elmira Approach/Departure (Ithica): 124.300

KELM ATIS (Archives)
Elmira, New York, United States

Feed Status: UP
Listen in your browser - HTML5 player(in browser, HTML5)
Click here to listen with your own player(launches your MP3 player)

KELM 241953Z 21010KT 10SM SCT110 29/19 A3002 RMK AO2 LTG DSNT NE RAB24E34 SLP157 P0000 T02890194

KELM Airport Info (Airnav.com)

KELM Flight Activity (Flightaware)

Listeners: 0 out of 2509 total

Elmira ATIS: 125.475

KELM Del/Gnd/Twr/App (Archives)
Elmira, New York, United States

Feed Status: UP
Listen in your browser - HTML5 player(in browser, HTML5)
Click here to listen with your own player(launches your MP3 player)

KELM 241953Z 21010KT 10SM SCT110 29/19 A3002 RMK AO2 LTG DSNT NE RAB24E34 SLP157 P0000 T02890194

KELM Airport Info (Airnav.com)

KELM Flight Activity (Flightaware)

Listeners: 0 out of 2509 total

Elmira Approach/Departure: 128.425
Elmira Approach/Departure (Backup): 118.150
Elmira Approach/Departure (Ithica): 124.300
Elmira Clearance Delivery/Ground: 121.900
Elmira Tower: 121.100

KELM Del/Ground (Archives)
Elmira, New York, United States

Feed Status: UP
Listen in your browser - HTML5 player(in browser, HTML5)
Click here to listen with your own player(launches your MP3 player)

KELM 241953Z 21010KT 10SM SCT110 29/19 A3002 RMK AO2 LTG DSNT NE RAB24E34 SLP157 P0000 T02890194

KELM Airport Info (Airnav.com)

KELM Flight Activity (Flightaware)

Listeners: 0 out of 2509 total

Elmira Clearance Delivery/Ground: 121.900

KELM Emergency/Guard (Archives)
Elmira, New York, United States

Feed Status: UP
Listen in your browser - HTML5 player(in browser, HTML5)
Click here to listen with your own player(launches your MP3 player)

KELM 241953Z 21010KT 10SM SCT110 29/19 A3002 RMK AO2 LTG DSNT NE RAB24E34 SLP157 P0000 T02890194

KELM Airport Info (Airnav.com)

KELM Flight Activity (Flightaware)

Listeners: 0 out of 2509 total

Emergency/Guard: 121.500

KELM Tower (Archives)
Elmira, New York, United States

Feed Status: UP
Listen in your browser - HTML5 player(in browser, HTML5)
Click here to listen with your own player(launches your MP3 player)

KELM 241953Z 21010KT 10SM SCT110 29/19 A3002 RMK AO2 LTG DSNT NE RAB24E34 SLP157 P0000 T02890194

KELM Airport Info (Airnav.com)

KELM Flight Activity (Flightaware)

Listeners: 0 out of 2509 total

Elmira Tower: 121.100

KEMT Gnd/Twr (Archives)
El Monte, California, United States

Feed Status: UP
Listen in your browser - HTML5 player(in browser, HTML5)
Click here to listen with your own player(launches your MP3 player)

KEMT 241945Z 23005KT 10SM FEW100 33/16 A3002

KEMT Airport Info (Airnav.com)

KEMT Flight Activity (Flightaware)

Listeners: 1 out of 2509 total

El Monte Ground: 125.900
El Monte Tower: 121.200
Santa Fe Dam Practice Area: 123.300

KENW Ground/Tower (Archives)
Kenosha, Wisconsin, United States

Feed Status: UP
Listen in your browser - HTML5 player(in browser, HTML5)
Click here to listen with your own player(launches your MP3 player)

KENW 241953Z 06006KT 10SM OVC030 24/17 A3016 RMK AO2 SLP208 T02390167

KENW Airport Info (Airnav.com)

KENW Flight Activity (Flightaware)

Listeners: 0 out of 2509 total

Kenosha Ground: 121.875
Kenosha Tower: 118.600

KEQY CTAF (Archives)
Monroe, North Carolina, United States

Feed Status: UP
Listen in your browser - HTML5 player(in browser, HTML5)
Click here to listen with your own player(launches your MP3 player)

KEQY 241953Z AUTO 24005KT 10SM CLR 32/23 A3014 RMK AO2 SLP202 T03170228

KEQY Airport Info (Airnav.com)

KEQY Flight Activity (Flightaware)

Listeners: 0 out of 2509 total

Monroe CTAF: 122.700

KEST CTAF (Archives)
Estherville, Iowa, United States

Feed Status: UP
Listen in your browser - HTML5 player(in browser, HTML5)
Click here to listen with your own player(launches your MP3 player)

KEST 241952Z AUTO 09007KT 10SM SCT025 OVC036 24/18 A3016 RMK AO2 SLP207 T02440183

KEST Airport Info (Airnav.com)

KEST Flight Activity (Flightaware)

Listeners: 0 out of 2509 total

Estherville CTAF: 122.975

KEUL CTAF
Nampa, Idaho, United States

Feed Status: DOWN
Offline since: 2024-05-27 02:24:05 UTC

KMAN 242015Z AUTO VRB04G10KT 7SM CLR 39/14 A3000 RMK A01

KMAN Airport Info (Airnav.com)

Caldwell CTAF: 123.000

KEVB ATIS (Archives)
New Smyrna Beach, Florida, United States

Feed Status: UP
Listen in your browser - HTML5 player(in browser, HTML5)
Click here to listen with your own player(launches your MP3 player)

KEVB 241947Z 14015G21KT 10SM SCT025 32/26 A3017

KEVB Airport Info (Airnav.com)

KEVB Flight Activity (Flightaware)

Listeners: 0 out of 2509 total

New Smyrna ATIS: 124.625

KEVB Gnd/Twr (Archives)
New Smyrna Beach, Florida, United States

Feed Status: UP
Listen in your browser - HTML5 player(in browser, HTML5)
Click here to listen with your own player(launches your MP3 player)

KEVB 241947Z 14015G21KT 10SM SCT025 32/26 A3017

KEVB Airport Info (Airnav.com)

KEVB Flight Activity (Flightaware)

Listeners: 0 out of 2509 total

New Smyrna Ground: 121.325
New Smyrna Tower: 119.675

KEVB Ground (Archives)
New Smyrna Beach, Florida, United States

Feed Status: UP
Listen in your browser - HTML5 player(in browser, HTML5)
Click here to listen with your own player(launches your MP3 player)

KEVB 241947Z 14015G21KT 10SM SCT025 32/26 A3017

KEVB Airport Info (Airnav.com)

KEVB Flight Activity (Flightaware)

Listeners: 0 out of 2509 total

New Smyrna Ground: 121.325

KEVB Tower (Archives)
New Smyrna Beach, Florida, United States

Feed Status: UP
Listen in your browser - HTML5 player(in browser, HTML5)
Click here to listen with your own player(launches your MP3 player)

KEVB 241947Z 14015G21KT 10SM SCT025 32/26 A3017

KEVB Airport Info (Airnav.com)

KEVB Flight Activity (Flightaware)

Listeners: 0 out of 2509 total

New Smyrna Tower: 119.675

KFAR Tower (Archives)
Fargo, North Dakota, United States

Feed Status: UP
Listen in your browser - HTML5 player(in browser, HTML5)
Click here to listen with your own player(launches your MP3 player)

KFAR 241953Z 13010G16KT 10SM FEW041 27/16 A3016 RMK AO2 SLP209 T02720156

KFAR Airport Info (Airnav.com)

KFAR Flight Activity (Flightaware)

Listeners: 5 out of 2509 total

Fargo Tower: 133.800

KFCM Tower (Archives)
Minneapolis, Minnesota, United States

Feed Status: UP
Listen in your browser - HTML5 player(in browser, HTML5)
Click here to listen with your own player(launches your MP3 player)

KFCM 241953Z 11008KT 10SM FEW048 26/14 A3018 RMK AO2 SLP217 T02560139

KFCM Airport Info (Airnav.com)

KFCM Flight Activity (Flightaware)

Listeners: 1 out of 2509 total

Flying Cloud Tower: 119.150

KFDK ATIS (Archives)
Frederick, Maryland, United States

Feed Status: UP
Listen in your browser - HTML5 player(in browser, HTML5)
Click here to listen with your own player(launches your MP3 player)

KFDK 241947Z 24004KT 10SM SCT043 33/22 A3008

KFDK Airport Info (Airnav.com)

KFDK Flight Activity (Flightaware)

Listeners: 0 out of 2509 total

Frederick ATIS: 124.875

KFDK Del/Gnd/Twr/CTAF #1 (Archives)
Frederick, Maryland, United States

Feed Status: UP
Listen in your browser - HTML5 player(in browser, HTML5)
Click here to listen with your own player(launches your MP3 player)

KFDK 241947Z 24004KT 10SM SCT043 33/22 A3008

KFDK Airport Info (Airnav.com)

KFDK Flight Activity (Flightaware)

Listeners: 0 out of 2509 total

Clearance Delivery (Potomac Approach): 126.900
Frederick Ground: 127.425
Frederick Tower/CTAF: 132.400

KFFC CTAF
Atlanta, Georgia, United States

Feed Status: DOWN
Offline since: 2024-06-21 16:09:38 UTC

KCCO 242035Z AUTO 03004KT 10SM VCTS SCT035 BKN045 BKN070 30/21 A3018 RMK AO2 LTG DSNT S T03010213

KCCO Airport Info (Airnav.com)

Falcon CTAF: 123.050

KFFZ ATIS (Archives)
Mesa, Arizona, United States

Feed Status: UP
Listen in your browser - HTML5 player(in browser, HTML5)
Click here to listen with your own player(launches your MP3 player)

KFFZ Airport Info (Airnav.com)

KFFZ Flight Activity (Flightaware)

Listeners: 0 out of 2509 total

Falcon ATIS: 118.250

KFFZ Ground (Archives)
Mesa, Arizona, United States

Feed Status: UP
Listen in your browser - HTML5 player(in browser, HTML5)
Click here to listen with your own player(launches your MP3 player)

KFFZ Airport Info (Airnav.com)

KFFZ Flight Activity (Flightaware)

Listeners: 0 out of 2509 total

Falcon Ground: 121.300

KFFZ Twr #1 (Archives)
Mesa, Arizona, United States

Feed Status: UP
Listen in your browser - HTML5 player(in browser, HTML5)
Click here to listen with your own player(launches your MP3 player)

KFFZ Airport Info (Airnav.com)

KFFZ Flight Activity (Flightaware)

Listeners: 0 out of 2509 total

Falcon Tower (North, 4L/22R): 119.700
Falcon Tower (South)/CTAF: 124.600

KFFZ Twr (North) (Archives)
Mesa, Arizona, United States

Feed Status: UP
Listen in your browser - HTML5 player(in browser, HTML5)
Click here to listen with your own player(launches your MP3 player)

KFFZ Airport Info (Airnav.com)

KFFZ Flight Activity (Flightaware)

Listeners: 0 out of 2509 total

Falcon Tower (North, 4L/22R): 119.700

KFFZ Twr (South)/CTAF (Archives)
Mesa, Arizona, United States

Feed Status: UP
Listen in your browser - HTML5 player(in browser, HTML5)
Click here to listen with your own player(launches your MP3 player)

KFFZ Airport Info (Airnav.com)

KFFZ Flight Activity (Flightaware)

Listeners: 0 out of 2509 total

Falcon Tower (South)/CTAF: 124.600

KFHU Gnd/Twr/Radar (Archives)
Fort Huachuca/Sierra Vista, Arizona, United States

Feed Status: UP
Listen in your browser - HTML5 player(in browser, HTML5)
Click here to listen with your own player(launches your MP3 player)

KFHU 241955Z AUTO 00000KT 10SM SCT090 SCT340 32/10 A3031 RMK AO2 SLP181 T03220102

KFHU Airport Info (Airnav.com)

KFHU Flight Activity (Flightaware)

Listeners: 0 out of 2509 total

Libby AAF GCA Radar: 127.050
Libby AAF GCA Radar: 254.350
Libby Ground: 121.700
Libby Ground: 268.700
Libby Tower: 124.950
Libby Tower: 284.750

KCON/KDAW/KFIT CTAF (Archives)
Fitchburg, Massachusetts, United States

Feed Status: UP
Listen in your browser - HTML5 player(in browser, HTML5)
Click here to listen with your own player(launches your MP3 player)

KMHT 241953Z 13006KT 10SM BKN024 OVC036 24/17 A3013 RMK AO2 SLP214 T02440172

KMHT Airport Info (Airnav.com)

KMHT Flight Activity (Flightaware)

Listeners: 1 out of 2509 total

NH/MA Area CTAF: 122.700

MA/NH/RI/CT Area CTAF (Archives)
Fitchburg, Massachusetts, United States

Feed Status: UP
Listen in your browser - HTML5 player(in browser, HTML5)
Click here to listen with your own player(launches your MP3 player)

KBOS 241954Z 06007KT 10SM SCT006 BKN009 OVC022 19/17 A3016 RMK AO2 SLP212 T01890172 $

KBOS Airport Info (Airnav.com)

KBOS Flight Activity (Flightaware)

Listeners: 1 out of 2509 total

Air-to-Air: 122.750
Bridgeport Flight Service: 122.200
CTAF: 122.700
CTAF: 122.800
CTAF: 122.900
CTAF: 123.000
Emergency/Guard: 121.500

MA/NH/RI/CT Area CTAF (Archives)
Fitchburg, Massachusetts, United States

Feed Status: UP
Listen in your browser - HTML5 player(in browser, HTML5)
Click here to listen with your own player(launches your MP3 player)

KBOS 241954Z 06007KT 10SM SCT006 BKN009 OVC022 19/17 A3016 RMK AO2 SLP212 T01890172 $

KBOS Airport Info (Airnav.com)

KBOS Flight Activity (Flightaware)

Listeners: 1 out of 2509 total

Air-to-Air: 122.750
Bridgeport Flight Service: 122.200
CTAF: 122.700
CTAF: 122.800
CTAF: 122.900
CTAF: 123.000
Emergency/Guard: 121.500

MA/NH/RI/CT Area CTAF (Archives)
Fitchburg, Massachusetts, United States

Feed Status: UP
Listen in your browser - HTML5 player(in browser, HTML5)
Click here to listen with your own player(launches your MP3 player)

KBOS 241954Z 06007KT 10SM SCT006 BKN009 OVC022 19/17 A3016 RMK AO2 SLP212 T01890172 $

KBOS Airport Info (Airnav.com)

KBOS Flight Activity (Flightaware)

Listeners: 1 out of 2509 total

Air-to-Air: 122.750
Bridgeport Flight Service: 122.200
CTAF: 122.700
CTAF: 122.800
CTAF: 122.900
CTAF: 123.000
Emergency/Guard: 121.500

KFKA CTAF (Archives)
Preston, Minnesota, United States

Feed Status: UP
Listen in your browser - HTML5 player(in browser, HTML5)
Click here to listen with your own player(launches your MP3 player)

KFKA 242015Z AUTO 00000KT 10SM FEW028 BKN038 23/18 A3018 RMK AO2

KFKA Airport Info (Airnav.com)

KFKA Flight Activity (Flightaware)

Listeners: 0 out of 2509 total

Preston CTAF: 122.900

KFLG Ground/Tower (Archives)
Flagstaff, Arizona, United States

Feed Status: UP
Listen in your browser - HTML5 player(in browser, HTML5)
Click here to listen with your own player(launches your MP3 player)

KFLG 241957Z 08007G16KT 340V330 10SM SCT080 SCT100 29/09 A3045 RMK AO2 LTG DSNT NE AND E SLP184 T02940094

KFLG Airport Info (Airnav.com)

KFLG Flight Activity (Flightaware)

Listeners: 1 out of 2509 total

Flagstaff Ground: 121.900
Flagstaff Tower: 134.550

KFLO App/Dep (Archives)
Florence, South Carolina, United States

Feed Status: UP
Listen in your browser - HTML5 player(in browser, HTML5)
Click here to listen with your own player(launches your MP3 player)

KFLO 242011Z 16005KT 10SM VCTS FEW055 SCT095 BKN110 27/23 A3017 RMK AO2 LTG DSNT NE AND SW RAE05 TSE05 P0000 T02670233

KFLO Airport Info (Airnav.com)

KFLO Flight Activity (Flightaware)

Listeners: 1 out of 2509 total

Florence Approach: 135.250
Florence Approach: 118.600

KFLO ATIS (Archives)
Florence, South Carolina, United States

Feed Status: UP
Listen in your browser - HTML5 player(in browser, HTML5)
Click here to listen with your own player(launches your MP3 player)

KFLO 242011Z 16005KT 10SM VCTS FEW055 SCT095 BKN110 27/23 A3017 RMK AO2 LTG DSNT NE AND SW RAE05 TSE05 P0000 T02670233

KFLO Airport Info (Airnav.com)

KFLO Flight Activity (Flightaware)

Listeners: 0 out of 2509 total

Florence ATIS: 123.625

KFLO Emergency/Guard (Archives)
Florence, South Carolina, United States

Feed Status: UP
Listen in your browser - HTML5 player(in browser, HTML5)
Click here to listen with your own player(launches your MP3 player)

KFLO 242011Z 16005KT 10SM VCTS FEW055 SCT095 BKN110 27/23 A3017 RMK AO2 LTG DSNT NE AND SW RAE05 TSE05 P0000 T02670233

KFLO Airport Info (Airnav.com)

KFLO Flight Activity (Flightaware)

Listeners: 0 out of 2509 total

Emergency/Guard: 121.500

KFLO Gnd/Twr/App (Archives)
Florence, South Carolina, United States

Feed Status: UP
Listen in your browser - HTML5 player(in browser, HTML5)
Click here to listen with your own player(launches your MP3 player)

KFLO 242011Z 16005KT 10SM VCTS FEW055 SCT095 BKN110 27/23 A3017 RMK AO2 LTG DSNT NE AND SW RAE05 TSE05 P0000 T02670233

KFLO Airport Info (Airnav.com)

KFLO Flight Activity (Flightaware)

Listeners: 0 out of 2509 total

Florence Approach: 118.600
Florence Approach: 135.250
Florence Ground: 121.900
Florence Tower: 125.100

KFLO Ground (Archives)
Florence, South Carolina, United States

Feed Status: UP
Listen in your browser - HTML5 player(in browser, HTML5)
Click here to listen with your own player(launches your MP3 player)

KFLO 242011Z 16005KT 10SM VCTS FEW055 SCT095 BKN110 27/23 A3017 RMK AO2 LTG DSNT NE AND SW RAE05 TSE05 P0000 T02670233

KFLO Airport Info (Airnav.com)

KFLO Flight Activity (Flightaware)

Listeners: 0 out of 2509 total

Florence Ground: 121.900

KFLO Tower (Archives)
Florence, South Carolina, United States

Feed Status: UP
Listen in your browser - HTML5 player(in browser, HTML5)
Click here to listen with your own player(launches your MP3 player)

KFLO 242011Z 16005KT 10SM VCTS FEW055 SCT095 BKN110 27/23 A3017 RMK AO2 LTG DSNT NE AND SW RAE05 TSE05 P0000 T02670233

KFLO Airport Info (Airnav.com)

KFLO Flight Activity (Flightaware)

Listeners: 0 out of 2509 total

Florence Tower: 125.100

Boston Approach (Cape North) (Archives)
Falmouth, Massachusetts, United States

Feed Status: UP
Listen in your browser - HTML5 player(in browser, HTML5)
Click here to listen with your own player(launches your MP3 player)

KFMH 241945Z 13008KT 2SM BR OVC003 19/19 A3016

KFMH Airport Info (Airnav.com)

KFMH Flight Activity (Flightaware)

Listeners: 4 out of 2509 total

Boston Approach (Cape North Arrival): 118.200

Boston Approach (OTIS Arrival) (Archives)
Falmouth, Massachusetts, United States

Feed Status: UP
Listen in your browser - HTML5 player(in browser, HTML5)
Click here to listen with your own player(launches your MP3 player)

KFMH 241945Z 13008KT 2SM BR OVC003 19/19 A3016

KFMH Airport Info (Airnav.com)

KFMH Flight Activity (Flightaware)

Listeners: 0 out of 2509 total

Boston Approach (OTIS Arrival): 126.300

KFMH ATIS (Archives)
Falmouth, Massachusetts, United States

Feed Status: UP
Listen in your browser - HTML5 player(in browser, HTML5)
Click here to listen with your own player(launches your MP3 player)

KFMH 241945Z 13008KT 2SM BR OVC003 19/19 A3016

KFMH Airport Info (Airnav.com)

KFMH Flight Activity (Flightaware)

Listeners: 0 out of 2509 total

Coast Guard ATIS: 120.475

KFMH Ground (Archives)
Falmouth, Massachusetts, United States

Feed Status: UP
Listen in your browser - HTML5 player(in browser, HTML5)
Click here to listen with your own player(launches your MP3 player)

KFMH 241945Z 13008KT 2SM BR OVC003 19/19 A3016

KFMH Airport Info (Airnav.com)

KFMH Flight Activity (Flightaware)

Listeners: 0 out of 2509 total

Coast Guard Ground: 124.150

KFMH Tower (Archives)
Falmouth, Massachusetts, United States

Feed Status: UP
Listen in your browser - HTML5 player(in browser, HTML5)
Click here to listen with your own player(launches your MP3 player)

KFMH 241945Z 13008KT 2SM BR OVC003 19/19 A3016

KFMH Airport Info (Airnav.com)

KFMH Flight Activity (Flightaware)

Listeners: 0 out of 2509 total

Coast Guard Tower: 128.425

KFMN Gnd/Twr/App (Archives)
Farmington, New Mexico, United States

Feed Status: UP
Listen in your browser - HTML5 player(in browser, HTML5)
Click here to listen with your own player(launches your MP3 player)

KFMN 241953Z VRB03KT 10SM CLR 33/06 A3029 RMK AO2 SLP181 T03330056

KFMN Airport Info (Airnav.com)

KFMN Flight Activity (Flightaware)

Listeners: 0 out of 2509 total

Denver Center (Sector 36 Farmington Low): 118.575
Emergency/Guard: 121.500
Farmington Ground: 121.700
Farmington Tower: 118.900

KFMY ATIS (Archives)
Fort Myers, Florida, United States

Feed Status: UP
Listen in your browser - HTML5 player(in browser, HTML5)
Click here to listen with your own player(launches your MP3 player)

KFMY 242016Z 20010G16KT 10SM TS FEW041 SCT060 33/24 A3012 RMK AO2 LTG DSNT NE-SE TSB10 T03330239

KFMY Airport Info (Airnav.com)

KFMY Flight Activity (Flightaware)

Listeners: 0 out of 2509 total

Page ATIS: 123.725

KFMY Emergency/Guard (Archives)
Fort Myers, Florida, United States

Feed Status: UP
Listen in your browser - HTML5 player(in browser, HTML5)
Click here to listen with your own player(launches your MP3 player)

KFMY 242016Z 20010G16KT 10SM TS FEW041 SCT060 33/24 A3012 RMK AO2 LTG DSNT NE-SE TSB10 T03330239

KFMY Airport Info (Airnav.com)

KFMY Flight Activity (Flightaware)

Listeners: 0 out of 2509 total

Emergency/Guard: 121.500

KFMY Ground #1 (Archives)
Fort Myers, Florida, United States

Feed Status: UP
Listen in your browser - HTML5 player(in browser, HTML5)
Click here to listen with your own player(launches your MP3 player)

KFMY 242016Z 20010G16KT 10SM TS FEW041 SCT060 33/24 A3012 RMK AO2 LTG DSNT NE-SE TSB10 T03330239

KFMY Airport Info (Airnav.com)

KFMY Flight Activity (Flightaware)

Listeners: 0 out of 2509 total

Page Clearance/Ground: 121.700

KFMY Ground #2 (Archives)
Fort Myers, Florida, United States

Feed Status: UP
Listen in your browser - HTML5 player(in browser, HTML5)
Click here to listen with your own player(launches your MP3 player)

KFMY 242016Z 20010G16KT 10SM TS FEW041 SCT060 33/24 A3012 RMK AO2 LTG DSNT NE-SE TSB10 T03330239

KFMY Airport Info (Airnav.com)

KFMY Flight Activity (Flightaware)

Listeners: 0 out of 2509 total

Page Clearance/Ground: 121.700

KFMY Ground/Tower (Archives)
Fort Myers, Florida, United States

Feed Status: UP
Listen in your browser - HTML5 player(in browser, HTML5)
Click here to listen with your own player(launches your MP3 player)

KFMY 242016Z 20010G16KT 10SM TS FEW041 SCT060 33/24 A3012 RMK AO2 LTG DSNT NE-SE TSB10 T03330239

KFMY Airport Info (Airnav.com)

KFMY Flight Activity (Flightaware)

Listeners: 0 out of 2509 total

Page Clearance/Ground: 121.700
Page Tower: 119.000

KFMY Tower (Archives)
Fort Myers, Florida, United States

Feed Status: UP
Listen in your browser - HTML5 player(in browser, HTML5)
Click here to listen with your own player(launches your MP3 player)

KFMY 242016Z 20010G16KT 10SM TS FEW041 SCT060 33/24 A3012 RMK AO2 LTG DSNT NE-SE TSB10 T03330239

KFMY Airport Info (Airnav.com)

KFMY Flight Activity (Flightaware)

Listeners: 0 out of 2509 total

Page Tower: 119.000

KFNL ASRI (FBO)
Fort Collins/Loveland, Colorado, United States

Feed Status: DOWN
Offline since: 2024-07-24 20:01:39 UTC

KFNL 241956Z 19009KT 9SM FU CLR 33/03 A3028 RMK AO2 SLP183 T03330033 PNO $

KFNL Airport Info (Airnav.com)

Fort Collins ASRI (FBO): 130.575

KFNL Ground
Fort Collins/Loveland, Colorado, United States

Feed Status: DOWN
Offline since: 2024-07-24 20:01:39 UTC

KFNL 241956Z 19009KT 9SM FU CLR 33/03 A3028 RMK AO2 SLP183 T03330033 PNO $

KFNL Airport Info (Airnav.com)

Fort Collins Ground: 121.650

KFNL Ground/Tower
Fort Collins/Loveland, Colorado, United States

Feed Status: DOWN
Offline since: 2024-07-24 20:01:39 UTC

KFNL 241956Z 19009KT 9SM FU CLR 33/03 A3028 RMK AO2 SLP183 T03330033 PNO $

KFNL Airport Info (Airnav.com)

Fort Collins Ground: 121.650
Fort Collins Tower/CTAF: 118.400

KFNL Tower/CTAF
Fort Collins/Loveland, Colorado, United States

Feed Status: DOWN
Offline since: 2024-07-24 20:01:39 UTC

KFNL 241956Z 19009KT 9SM FU CLR 33/03 A3028 RMK AO2 SLP183 T03330033 PNO $

KFNL Airport Info (Airnav.com)

Fort Collins Tower/CTAF: 118.400

KTOP/KFOE Gnd/Twr/CTAF (Archives)
Topeka, Kansas, United States

Feed Status: UP
Listen in your browser - HTML5 player(in browser, HTML5)
Click here to listen with your own player(launches your MP3 player)

KTOP 241953Z VRB04KT 10SM CLR 33/19 A3011 RMK AO2 SLP186 T03330189

KTOP Airport Info (Airnav.com)

KTOP Flight Activity (Flightaware)

Listeners: 0 out of 2509 total

Forbes Ground: 118.425
Forbes Tower/CTAF: 120.800
KFOE ANG Ops: 255.500
Topeka Ground: 121.700
Topeka Tower/CTAF: 118.700
UNICOM: 122.950

KFPR ATIS (Archives)
Fort Pierce, Florida, United States

Feed Status: UP
Listen in your browser - HTML5 player(in browser, HTML5)
Click here to listen with your own player(launches your MP3 player)

KFPR 241953Z 11015KT 10SM CLR 33/24 A3016 RMK AO2 SLP211 T03280244

KFPR Airport Info (Airnav.com)

KFPR Flight Activity (Flightaware)

Listeners: 0 out of 2509 total

Fort Pierce ATIS: 134.825

KFPR Ground (Archives)
Fort Pierce, Florida, United States

Feed Status: UP
Listen in your browser - HTML5 player(in browser, HTML5)
Click here to listen with your own player(launches your MP3 player)

KFPR 241953Z 11015KT 10SM CLR 33/24 A3016 RMK AO2 SLP211 T03280244

KFPR Airport Info (Airnav.com)

KFPR Flight Activity (Flightaware)

Listeners: 1 out of 2509 total

Ft Pierce Ground: 119.550

KFPR Ground/Tower (Archives)
Fort Pierce, Florida, United States

Feed Status: UP
Listen in your browser - HTML5 player(in browser, HTML5)
Click here to listen with your own player(launches your MP3 player)

KFPR 241953Z 11015KT 10SM CLR 33/24 A3016 RMK AO2 SLP211 T03280244

KFPR Airport Info (Airnav.com)

KFPR Flight Activity (Flightaware)

Listeners: 1 out of 2509 total

Ft Pierce Ground: 119.550
Ft Pierce Tower: 128.200

KFPR Tower (Archives)
Fort Pierce, Florida, United States

Feed Status: UP
Listen in your browser - HTML5 player(in browser, HTML5)
Click here to listen with your own player(launches your MP3 player)

KFPR 241953Z 11015KT 10SM CLR 33/24 A3016 RMK AO2 SLP211 T03280244

KFPR Airport Info (Airnav.com)

KFPR Flight Activity (Flightaware)

Listeners: 1 out of 2509 total

Ft Pierce Tower: 128.200

Palm Beach App/Dep (Archives)
Fort Pierce, Florida, United States

Feed Status: UP
Listen in your browser - HTML5 player(in browser, HTML5)
Click here to listen with your own player(launches your MP3 player)

KFPR 241953Z 11015KT 10SM CLR 33/24 A3016 RMK AO2 SLP211 T03280244

KFPR Airport Info (Airnav.com)

KFPR Flight Activity (Flightaware)

Listeners: 0 out of 2509 total

Palm Beach Approach/Departure: 123.625

KFRG ATIS (Archives)
Farmingdale, New York, United States

Feed Status: UP
Listen in your browser - HTML5 player(in browser, HTML5)
Click here to listen with your own player(launches your MP3 player)

KFRG 242015Z 17008KT 10SM SCT018 SCT028 28/22 A3008 RMK AO2 T02780222

KFRG Airport Info (Airnav.com)

KFRG Flight Activity (Flightaware)

Listeners: 1 out of 2509 total

Republic ATIS: 126.650

KFRG Ground #2 (Archives)
Farmingdale, New York, United States

Feed Status: UP
Listen in your browser - HTML5 player(in browser, HTML5)
Click here to listen with your own player(launches your MP3 player)

KFRG 242015Z 17008KT 10SM SCT018 SCT028 28/22 A3008 RMK AO2 T02780222

KFRG Airport Info (Airnav.com)

KFRG Flight Activity (Flightaware)

Listeners: 0 out of 2509 total

Republic Ground: 121.600

KFRG Ground/Tower #2 (Archives)
Farmingdale, New York, United States

Feed Status: UP
Listen in your browser - HTML5 player(in browser, HTML5)
Click here to listen with your own player(launches your MP3 player)

KFRG 242015Z 17008KT 10SM SCT018 SCT028 28/22 A3008 RMK AO2 T02780222

KFRG Airport Info (Airnav.com)

KFRG Flight Activity (Flightaware)

Listeners: 0 out of 2509 total

Republic Ground: 121.600
Republic Tower: 118.800
Republic Tower: 124.500

KFRG Tower #1 (Archives)
Farmingdale, New York, United States

Feed Status: UP
Listen in your browser - HTML5 player(in browser, HTML5)
Click here to listen with your own player(launches your MP3 player)

KFRG 242015Z 17008KT 10SM SCT018 SCT028 28/22 A3008 RMK AO2 T02780222

KFRG Airport Info (Airnav.com)

KFRG Flight Activity (Flightaware)

Listeners: 1 out of 2509 total

Republic Tower: 118.800

KFRG Tower #2 (Archives)
Farmingdale, New York, United States

Feed Status: UP
Listen in your browser - HTML5 player(in browser, HTML5)
Click here to listen with your own player(launches your MP3 player)

KFRG 242015Z 17008KT 10SM SCT018 SCT028 28/22 A3008 RMK AO2 T02780222

KFRG Airport Info (Airnav.com)

KFRG Flight Activity (Flightaware)

Listeners: 2 out of 2509 total

Republic Tower: 118.800
Republic Tower: 124.500

KFSD Twr/App/Dep/ZMP (Archives)
Sioux Falls, South Dakota, United States

Feed Status: UP
Listen in your browser - HTML5 player(in browser, HTML5)
Click here to listen with your own player(launches your MP3 player)

KFSD 241956Z 10010KT 9SM BKN028 28/21 A3014 RMK AO2 SLP200 T02780206

KFSD Airport Info (Airnav.com)

KFSD Flight Activity (Flightaware)

Listeners: 4 out of 2509 total

Minneapolis Center (Sector 33 PIR Low): 132.050
Sioux Falls Approach/Departure: 125.800
Sioux Falls Tower: 118.300

KFTW Del/Gnd/Twr (Archives)
Fort Worth, Texas, United States

Feed Status: UP
Listen in your browser - HTML5 player(in browser, HTML5)
Click here to listen with your own player(launches your MP3 player)

KFTW 241953Z 04006KT 10SM FEW050 32/18 A3009 RMK AO2 SLP182 T03220183

KFTW Airport Info (Airnav.com)

KFTW Flight Activity (Flightaware)

Listeners: 2 out of 2509 total

Meacham Clearance Delivery: 124.650
Meacham Ground: 121.900
Meacham Tower: 118.300

KFTW Del/Ground (Archives)
Fort Worth, Texas, United States

Feed Status: UP
Listen in your browser - HTML5 player(in browser, HTML5)
Click here to listen with your own player(launches your MP3 player)

KFTW 241953Z 04006KT 10SM FEW050 32/18 A3009 RMK AO2 SLP182 T03220183

KFTW Airport Info (Airnav.com)

KFTW Flight Activity (Flightaware)

Listeners: 0 out of 2509 total

Meacham Clearance Delivery: 124.650
Meacham Ground: 121.900

KFTW Tower (Archives)
Fort Worth, Texas, United States

Feed Status: UP
Listen in your browser - HTML5 player(in browser, HTML5)
Click here to listen with your own player(launches your MP3 player)

KFTW 241953Z 04006KT 10SM FEW050 32/18 A3009 RMK AO2 SLP182 T03220183

KFTW Airport Info (Airnav.com)

KFTW Flight Activity (Flightaware)

Listeners: out of 2509 total

Meacham Tower: 118.300

Regional App (Meacham North) (Archives)
Fort Worth, Texas, United States

Feed Status: UP
Listen in your browser - HTML5 player(in browser, HTML5)
Click here to listen with your own player(launches your MP3 player)

KFTW 241953Z 04006KT 10SM FEW050 32/18 A3009 RMK AO2 SLP182 T03220183

KFTW Airport Info (Airnav.com)

KFTW Flight Activity (Flightaware)

Listeners: 0 out of 2509 total

Regional Approach (Meacham North): 118.100

Regional App (Meacham South) (Archives)
Fort Worth, Texas, United States

Feed Status: UP
Listen in your browser - HTML5 player(in browser, HTML5)
Click here to listen with your own player(launches your MP3 player)

KDFW 241953Z 11006KT 10SM SCT044 32/21 A3009 RMK AO2 SLP179 T03170206

KDFW Airport Info (Airnav.com)

KDFW Flight Activity (Flightaware)

Listeners: 1 out of 2509 total

Regional Approach (Meacham South): 135.975

Regional Approach (Meacham North/South) (Archives)
Fort Worth, Texas, United States

Feed Status: UP
Listen in your browser - HTML5 player(in browser, HTML5)
Click here to listen with your own player(launches your MP3 player)

KFTW 241953Z 04006KT 10SM FEW050 32/18 A3009 RMK AO2 SLP182 T03220183

KFTW Airport Info (Airnav.com)

KFTW Flight Activity (Flightaware)

Listeners: 1 out of 2509 total

Regional Approach (Meacham North): 118.100
Regional Approach (Meacham South): 135.975

Atlanta Approach (N. Sat) (Archives)
Atlanta, Georgia, United States

Feed Status: UP
Listen in your browser - HTML5 player(in browser, HTML5)
Click here to listen with your own player(launches your MP3 player)

KRYY 241950Z 34005KT 10SM BKN030 28/22 A3022 RMK AO2 SLPNO T02800220 $

KRYY Airport Info (Airnav.com)

KRYY Flight Activity (Flightaware)

Listeners: 2 out of 2509 total

Atlanta Approach (North Satellite): 121.000

KFTY Ground/Tower (Archives)
Atlanta, Georgia, United States

Feed Status: UP
Listen in your browser - HTML5 player(in browser, HTML5)
Click here to listen with your own player(launches your MP3 player)

KFTY 241953Z 00000KT 10SM SCT039 31/21 A3016 RMK AO2 SLP204 T03060211

KFTY Airport Info (Airnav.com)

KFTY Flight Activity (Flightaware)

Listeners: 0 out of 2509 total

County Ground: 121.700
County Tower: 118.450

KFUL Ground/Tower (Archives)
Fullerton, California, United States

Feed Status: UP
Listen in your browser - HTML5 player(in browser, HTML5)
Click here to listen with your own player(launches your MP3 player)

KFUL 241953Z VRB03KT 9SM CLR 31/16 A3000 RMK AO2 SLP159 T03060161

KFUL Airport Info (Airnav.com)

KFUL Flight Activity (Flightaware)

Listeners: 0 out of 2509 total

Fullerton Ground: 121.800
Fullerton Tower: 119.100

KFWS Ground/Tower (Archives)
Fort Worth, Texas, United States

Feed Status: UP
Listen in your browser - HTML5 player(in browser, HTML5)
Click here to listen with your own player(launches your MP3 player)

KFWS 241955Z 08007KT 10SM BKN048 33/18 A3012

KFWS Airport Info (Airnav.com)

KFWS Flight Activity (Flightaware)

Listeners: 2 out of 2509 total

Spinks Ground: 119.475
Spinks Tower/CTAF: 124.625

KFXE ATIS (Archives)
Fort Lauderdale, Florida, United States

Feed Status: UP
Listen in your browser - HTML5 player(in browser, HTML5)
Click here to listen with your own player(launches your MP3 player)

KFXE 241953Z 09011KT 10SM FEW026 FEW080 SCT100 32/26 A3014 RMK AO2 RAB27E45 SLP209 P0000 T03220261

KFXE Airport Info (Airnav.com)

KFXE Flight Activity (Flightaware)

Listeners: 1 out of 2509 total

Executive ATIS: 119.850

KFXE Ground (Archives)
Fort Lauderdale, Florida, United States

Feed Status: UP
Listen in your browser - HTML5 player(in browser, HTML5)
Click here to listen with your own player(launches your MP3 player)

KFXE 241953Z 09011KT 10SM FEW026 FEW080 SCT100 32/26 A3014 RMK AO2 RAB27E45 SLP209 P0000 T03220261

KFXE Airport Info (Airnav.com)

KFXE Flight Activity (Flightaware)

Listeners: 0 out of 2509 total

Executive Ground: 121.750

KFXE Practice Area (Archives)
Fort Lauderdale, Florida, United States

Feed Status: UP
Listen in your browser - HTML5 player(in browser, HTML5)
Click here to listen with your own player(launches your MP3 player)

KFXE 241953Z 09011KT 10SM FEW026 FEW080 SCT100 32/26 A3014 RMK AO2 RAB27E45 SLP209 P0000 T03220261

KFXE Airport Info (Airnav.com)

KFXE Flight Activity (Flightaware)

Listeners: 0 out of 2509 total

Coral Springs/Everglades Practice Area: 123.450

KFYV Gnd/Twr/App/ZME (Archives)
Fayetteville, Arkansas, United States

Feed Status: UP
Listen in your browser - HTML5 player(in browser, HTML5)
Click here to listen with your own player(launches your MP3 player)

KFYV 241953Z VRB03KT 10SM CLR 32/19 A3015 RMK AO2 SLP194 T03170194

KFYV Airport Info (Airnav.com)

KFYV Flight Activity (Flightaware)

Listeners: 3 out of 2509 total

Drake Ground: 121.800
Drake Tower: 128.000
Jonesboro Flight Service Station (FSS): 122.300
Memphis Center (High): 132.550
Memphis Center (High): 353.800
Razorback Approach: 121.000

KGAI CTAF/UNICOM (Archives)
Gaithersburg, Maryland, United States

Feed Status: UP
Listen in your browser - HTML5 player(in browser, HTML5)
Click here to listen with your own player(launches your MP3 player)

KGAI 241956Z AUTO 27006KT 10SM -RA SCT065 BKN090 OVC100 26/22 A3012 RMK AO2 RAB39 SLP207 P0000 T02610222

KGAI Airport Info (Airnav.com)

KGAI Flight Activity (Flightaware)

Listeners: 0 out of 2509 total

Gaithersburg CTAF: 123.075

KGBG CTAF (Archives)
Galesburg, Illinois, United States

Feed Status: UP
Listen in your browser - HTML5 player(in browser, HTML5)
Click here to listen with your own player(launches your MP3 player)

KGBG 242015Z AUTO 02009KT 10SM BKN028 BKN034 OVC046 28/22 A3013 RMK AO2 T02780217

KGBG Airport Info (Airnav.com)

KGBG Flight Activity (Flightaware)

Listeners: 0 out of 2509 total

Emergency/Guard: 121.500
Galesburg CTAF: 123.000

KGDM/KORE CTAF (Archives)
Gardner, Massachusetts, United States

Feed Status: UP
Listen in your browser - HTML5 player(in browser, HTML5)
Click here to listen with your own player(launches your MP3 player)

KGDM Airport Info (Airnav.com)

KGDM Flight Activity (Flightaware)

Listeners: 0 out of 2509 total

Gardner CTAF: 122.800

KGED ASOS (Archives)
Georgetown, Delaware, United States

Feed Status: UP
Listen in your browser - HTML5 player(in browser, HTML5)
Click here to listen with your own player(launches your MP3 player)

KGED 241954Z AUTO 18004KT 10SM SCT055 SCT075 BKN095 26/23 A3010 RMK AO2 RAE45 SLP191 T02610233 PNO $

KGED Airport Info (Airnav.com)

KGED Flight Activity (Flightaware)

Listeners: 0 out of 2509 total

Georgetown ASOS: 118.375

KGED Clearance Delivery (Archives)
Georgetown, Delaware, United States

Feed Status: UP
Listen in your browser - HTML5 player(in browser, HTML5)
Click here to listen with your own player(launches your MP3 player)

KGED 241954Z AUTO 18004KT 10SM SCT055 SCT075 BKN095 26/23 A3010 RMK AO2 RAE45 SLP191 T02610233 PNO $

KGED Airport Info (Airnav.com)

KGED Flight Activity (Flightaware)

Listeners: 0 out of 2509 total

Georgetown Clearance Delivery (Dover Approach): 125.550

KGED CTAF (Archives)
Georgetown, Delaware, United States

Feed Status: UP
Listen in your browser - HTML5 player(in browser, HTML5)
Click here to listen with your own player(launches your MP3 player)

KGED 241954Z AUTO 18004KT 10SM SCT055 SCT075 BKN095 26/23 A3010 RMK AO2 RAE45 SLP191 T02610233 PNO $

KGED Airport Info (Airnav.com)

KGED Flight Activity (Flightaware)

Listeners: 0 out of 2509 total

Georgetown CTAF: 123.000

KGED Emergency/Guard (Archives)
Georgetown, Delaware, United States

Feed Status: UP
Listen in your browser - HTML5 player(in browser, HTML5)
Click here to listen with your own player(launches your MP3 player)

KGED 241954Z AUTO 18004KT 10SM SCT055 SCT075 BKN095 26/23 A3010 RMK AO2 RAE45 SLP191 T02610233 PNO $

KGED Airport Info (Airnav.com)

KGED Flight Activity (Flightaware)

Listeners: 0 out of 2509 total

Emergency/Guard: 121.500

KGEU App/Dep (Archives)
Glendale, Arizona, United States

Feed Status: UP
Listen in your browser - HTML5 player(in browser, HTML5)
Click here to listen with your own player(launches your MP3 player)

KGEU 241948Z 24004KT 10SM FEW100 SCT200 41/14 A2993

KGEU Airport Info (Airnav.com)

KGEU Flight Activity (Flightaware)

Listeners: 0 out of 2509 total

Luke Approach/Departure: 118.150

KGEU ATIS (Archives)
Glendale, Arizona, United States

Feed Status: UP
Listen in your browser - HTML5 player(in browser, HTML5)
Click here to listen with your own player(launches your MP3 player)

KGEU 241948Z 24004KT 10SM FEW100 SCT200 41/14 A2993

KGEU Airport Info (Airnav.com)

KGEU Flight Activity (Flightaware)

Listeners: 0 out of 2509 total

Glendale ATIS: 119.425

KGEU Ground (Archives)
Glendale, Arizona, United States

Feed Status: UP
Listen in your browser - HTML5 player(in browser, HTML5)
Click here to listen with your own player(launches your MP3 player)

KGEU 241948Z 24004KT 10SM FEW100 SCT200 41/14 A2993

KGEU Airport Info (Airnav.com)

KGEU Flight Activity (Flightaware)

Listeners: 0 out of 2509 total

Glendale Ground: 118.000

KGEU Tower (Archives)
Glendale, Arizona, United States

Feed Status: UP
Listen in your browser - HTML5 player(in browser, HTML5)
Click here to listen with your own player(launches your MP3 player)

KGEU 241948Z 24004KT 10SM FEW100 SCT200 41/14 A2993

KGEU Airport Info (Airnav.com)

KGEU Flight Activity (Flightaware)

Listeners: 0 out of 2509 total

Glendale Tower: 121.000

KGFK Approach (Archives)
Grand Forks, North Dakota, United States

Feed Status: UP
Listen in your browser - HTML5 player(in browser, HTML5)
Click here to listen with your own player(launches your MP3 player)

KGFK 241953Z 15012KT 8SM SCT036 26/16 A3014 RMK AO2 SLP204 T02610161

KGFK Airport Info (Airnav.com)

KGFK Flight Activity (Flightaware)

Listeners: 0 out of 2509 total

Grand Forks Approach: 118.100
Grand Forks Approach (VFR): 132.300

KGFK ATIS (Archives)
Grand Forks, North Dakota, United States

Feed Status: UP
Listen in your browser - HTML5 player(in browser, HTML5)
Click here to listen with your own player(launches your MP3 player)

KGFK 241953Z 15012KT 8SM SCT036 26/16 A3014 RMK AO2 SLP204 T02610161

KGFK Airport Info (Airnav.com)

KGFK Flight Activity (Flightaware)

Listeners: 0 out of 2509 total

Grand Forks ATIS: 119.400

KGFK Ground (Archives)
Grand Forks, North Dakota, United States

Feed Status: UP
Listen in your browser - HTML5 player(in browser, HTML5)
Click here to listen with your own player(launches your MP3 player)

KGFK 241953Z 15012KT 8SM SCT036 26/16 A3014 RMK AO2 SLP204 T02610161

KGFK Airport Info (Airnav.com)

KGFK Flight Activity (Flightaware)

Listeners: 0 out of 2509 total

Grand Forks Ground: 124.575

KGFK Tower (Both) (Archives)
Grand Forks, North Dakota, United States

Feed Status: UP
Listen in your browser - HTML5 player(in browser, HTML5)
Click here to listen with your own player(launches your MP3 player)

KGFK 241953Z 15012KT 8SM SCT036 26/16 A3014 RMK AO2 SLP204 T02610161

KGFK Airport Info (Airnav.com)

KGFK Flight Activity (Flightaware)

Listeners: 0 out of 2509 total

Grand Forks Tower (IFR/VFR): 118.400
Grand Forks Tower (VFR): 120.550

KGFK Tower 1 (118.4/IFR/VFR) (Archives)
Grand Forks, North Dakota, United States

Feed Status: UP
Listen in your browser - HTML5 player(in browser, HTML5)
Click here to listen with your own player(launches your MP3 player)

KGFK 241953Z 15012KT 8SM SCT036 26/16 A3014 RMK AO2 SLP204 T02610161

KGFK Airport Info (Airnav.com)

KGFK Flight Activity (Flightaware)

Listeners: 0 out of 2509 total

Grand Forks Tower (IFR/VFR): 118.400

KGFK Tower 2 (120.55/VFR) (Archives)
Grand Forks, North Dakota, United States

Feed Status: UP
Listen in your browser - HTML5 player(in browser, HTML5)
Click here to listen with your own player(launches your MP3 player)

KGFK 241953Z 15012KT 8SM SCT036 26/16 A3014 RMK AO2 SLP204 T02610161

KGFK Airport Info (Airnav.com)

KGFK Flight Activity (Flightaware)

Listeners: 0 out of 2509 total

Grand Forks Tower (VFR): 120.550

KGFL CTAF/App (Archives)
Glens Falls, New York, United States

Feed Status: UP
Listen in your browser - HTML5 player(in browser, HTML5)
Click here to listen with your own player(launches your MP3 player)

KGFL 241953Z AUTO 19012KT 10SM CLR 27/20 A3004 RMK AO2 SLP169 T02720200

KGFL Airport Info (Airnav.com)

KGFL Flight Activity (Flightaware)

Listeners: 0 out of 2509 total

Albany Approach: 118.050
Albany Approach: 132.825
Glens Falls Unicom: 123.000
Unicom (Granville, Schroon Lake, Argyle, Heber Air: 122.900
Unicom (Saratoga Co., Rutland, Ticonderoga, Round : 122.800

KGGE CTAF (Archives)
Georgetown, South Carolina, United States

Feed Status: UP
Listen in your browser - HTML5 player(in browser, HTML5)
Click here to listen with your own player(launches your MP3 player)

KGGE 242015Z AUTO 20005KT 10SM CLR 29/24 A3019 RMK AO2 LTG DSNT NE AND W

KGGE Airport Info (Airnav.com)

KGGE Flight Activity (Flightaware)

Listeners: 0 out of 2509 total

Georgetown CTAF: 123.000

KGGG App/Dep (Archives)
Longview, Texas, United States

Feed Status: UP
Listen in your browser - HTML5 player(in browser, HTML5)
Click here to listen with your own player(launches your MP3 player)

KGGG 241953Z AUTO 02006KT 10SM FEW029 FEW038 29/24 A3009 RMK AO2 RAE15 SLP181 P0000 T02890239

KGGG Airport Info (Airnav.com)

KGGG Flight Activity (Flightaware)

Listeners: 2 out of 2509 total

Longview Approach (East): 127.325
Longview Approach (West): 128.750

KGGG Gnd/Twr (Archives)
Longview, Texas, United States

Feed Status: UP
Listen in your browser - HTML5 player(in browser, HTML5)
Click here to listen with your own player(launches your MP3 player)

KGGG 241953Z AUTO 02006KT 10SM FEW029 FEW038 29/24 A3009 RMK AO2 RAE15 SLP181 P0000 T02890239

KGGG Airport Info (Airnav.com)

KGGG Flight Activity (Flightaware)

Listeners: 1 out of 2509 total

EastTex Ground: 121.600
EastTex Tower: 119.200

KGIF ASOS (Archives)
Winter Haven, Florida, United States

Feed Status: UP
Listen in your browser - HTML5 player(in browser, HTML5)
Click here to listen with your own player(launches your MP3 player)

KGIF 242010Z AUTO 18009KT 10SM BKN055 BKN070 31/24 A3015 RMK AO2 LTG DSNT SE T03110244

KGIF Airport Info (Airnav.com)

KGIF Flight Activity (Flightaware)

Listeners: 0 out of 2509 total

Winter Haven ASOS: 133.675

KGIF CTAF/GCO/Guard (Archives)
Winter Haven, Florida, United States

Feed Status: UP
Listen in your browser - HTML5 player(in browser, HTML5)
Click here to listen with your own player(launches your MP3 player)

KGIF 242010Z AUTO 18009KT 10SM BKN055 BKN070 31/24 A3015 RMK AO2 LTG DSNT SE T03110244

KGIF Airport Info (Airnav.com)

KGIF Flight Activity (Flightaware)

Listeners: 0 out of 2509 total

Emergency/Guard: 121.500
Winter Haven CTAF: 123.050
Winter Haven GCO (Clearance Delivery): 121.725
Winter Haven Temp. Tower (only during Sun 'n Fun): 119.125

KGIF GCO/Guard (Archives)
Winter Haven, Florida, United States

Feed Status: UP
Listen in your browser - HTML5 player(in browser, HTML5)
Click here to listen with your own player(launches your MP3 player)

KGIF 242010Z AUTO 18009KT 10SM BKN055 BKN070 31/24 A3015 RMK AO2 LTG DSNT SE T03110244

KGIF Airport Info (Airnav.com)

KGIF Flight Activity (Flightaware)

Listeners: 0 out of 2509 total

Emergency/Guard: 121.500
Winter Haven GCO (Clearance Delivery): 121.725

KGIF/F57 CTAF (Archives)
Winter Haven, Florida, United States

Feed Status: UP
Listen in your browser - HTML5 player(in browser, HTML5)
Click here to listen with your own player(launches your MP3 player)

KGIF 242010Z AUTO 18009KT 10SM BKN055 BKN070 31/24 A3015 RMK AO2 LTG DSNT SE T03110244

KGIF Airport Info (Airnav.com)

KGIF Flight Activity (Flightaware)

Listeners: 0 out of 2509 total

Winter Haven CTAF: 123.050
Winter Haven Temp. Tower (only during Sun 'n Fun): 119.125

KPCM/KGIF CTAF (Archives)
Winter Haven, Florida, United States

Feed Status: UP
Listen in your browser - HTML5 player(in browser, HTML5)
Click here to listen with your own player(launches your MP3 player)

KLAL 241950Z 05005KT 10SM BKN047 34/21 A3014

KLAL Airport Info (Airnav.com)

KLAL Flight Activity (Flightaware)

Listeners: 0 out of 2509 total

Plant City/Winter Haven CTAF: 123.050

KGJT Gnd/Twr/App/ZDV (Archives)
Grand Junction, Colorado, United States

Feed Status: UP
Listen in your browser - HTML5 player(in browser, HTML5)
Click here to listen with your own player(launches your MP3 player)

KGJT 241953Z 26007KT 5SM FU FEW002 35/03 A3022 RMK AO2 SLP148 T03500033

KGJT Airport Info (Airnav.com)

KGJT Flight Activity (Flightaware)

Listeners: 0 out of 2509 total

Denver Approach: 119.700
Denver Center (Sector 11 Grand Junction Low): 134.500
Grand Junction Ground: 121.700
Grand Junction Tower: 118.100

KGKT CTAF (Archives)
Sevierville, Tennessee, United States

Feed Status: UP
Listen in your browser - HTML5 player(in browser, HTML5)
Click here to listen with your own player(launches your MP3 player)

KGKT 242016Z AUTO 10SM FEW037 FEW055 SCT075 28/23 A3017 RMK A01

KGKT Airport Info (Airnav.com)

KGKT Flight Activity (Flightaware)

Listeners: 0 out of 2509 total

Gatlinburg CTAF: 123.000

KGKY Ground/Tower (Archives)
Arlington, Texas, United States

Feed Status: UP
Listen in your browser - HTML5 player(in browser, HTML5)
Click here to listen with your own player(launches your MP3 player)

KGKY 241953Z 03004KT 10SM BKN047 31/19 A3010 RMK AO2 SLP182 T03110194

KGKY Airport Info (Airnav.com)

KGKY Flight Activity (Flightaware)

Listeners: 0 out of 2509 total

Arlington Ground: 121.875
Arlington Tower: 128.625

KGMU ATIS (Archives)
Greenville, South Carolina, United States

Feed Status: UP
Listen in your browser - HTML5 player(in browser, HTML5)
Click here to listen with your own player(launches your MP3 player)

KGMU 241953Z 22007KT 10SM CLR 31/21 A3017 RMK AO2 SLP204 T03060211

KGMU Airport Info (Airnav.com)

KGMU Flight Activity (Flightaware)

Listeners: 0 out of 2509 total

Greenville ATIS: 127.075

KGMU Ground (Archives)
Greenville, South Carolina, United States

Feed Status: UP
Listen in your browser - HTML5 player(in browser, HTML5)
Click here to listen with your own player(launches your MP3 player)

KGMU 241953Z 22007KT 10SM CLR 31/21 A3017 RMK AO2 SLP204 T03060211

KGMU Airport Info (Airnav.com)

KGMU Flight Activity (Flightaware)

Listeners: 0 out of 2509 total

Greenville Ground: 121.250

KGMU Ground/Tower (Archives)
Greenville, South Carolina, United States

Feed Status: UP
Listen in your browser - HTML5 player(in browser, HTML5)
Click here to listen with your own player(launches your MP3 player)

KGMU 241953Z 22007KT 10SM CLR 31/21 A3017 RMK AO2 SLP204 T03060211

KGMU Airport Info (Airnav.com)

KGMU Flight Activity (Flightaware)

Listeners: 1 out of 2509 total

Greenville Ground: 121.250
Greenville Tower: 119.900

KGMU Tower (Archives)
Greenville, South Carolina, United States

Feed Status: UP
Listen in your browser - HTML5 player(in browser, HTML5)
Click here to listen with your own player(launches your MP3 player)

KGMU 241953Z 22007KT 10SM CLR 31/21 A3017 RMK AO2 SLP204 T03060211

KGMU Airport Info (Airnav.com)

KGMU Flight Activity (Flightaware)

Listeners: 0 out of 2509 total

Greenville Tower: 119.900

KGNV Ground/Tower (Archives)
Gainesville, Florida, United States

Feed Status: UP
Listen in your browser - HTML5 player(in browser, HTML5)
Click here to listen with your own player(launches your MP3 player)

KGNV 241953Z 17009KT 10SM SCT050 SCT065 BKN080 33/23 A3016 RMK AO2 LTG DSNT E AND SW AND W SLP209 T03330233

KGNV Airport Info (Airnav.com)

KGNV Flight Activity (Flightaware)

Listeners: 1 out of 2509 total

Gainesville Ground: 121.700
Gainesville Tower: 119.550

KGPI Great Falls Radio (Archives)
Kalispell, Montana, United States

Feed Status: UP
Listen in your browser - HTML5 player(in browser, HTML5)
Click here to listen with your own player(launches your MP3 player)

KGPI 241955Z 16010G18KT 9SM CLR 32/09 A2999 RMK AO2 SLP137 T03220094

KGPI Airport Info (Airnav.com)

KGPI Flight Activity (Flightaware)

Listeners: 0 out of 2509 total

Great Falls Radio: 122.500

KGPI Ground (Archives)
Kalispell, Montana, United States

Feed Status: UP
Listen in your browser - HTML5 player(in browser, HTML5)
Click here to listen with your own player(launches your MP3 player)

KGPI 241955Z 16010G18KT 9SM CLR 32/09 A2999 RMK AO2 SLP137 T03220094

KGPI Airport Info (Airnav.com)

KGPI Flight Activity (Flightaware)

Listeners: 0 out of 2509 total

Glacier Ground: 121.600

KGPI Tower (Archives)
Kalispell, Montana, United States

Feed Status: UP
Listen in your browser - HTML5 player(in browser, HTML5)
Click here to listen with your own player(launches your MP3 player)

KGPI 241955Z 16010G18KT 9SM CLR 32/09 A2999 RMK AO2 SLP137 T03220094

KGPI Airport Info (Airnav.com)

KGPI Flight Activity (Flightaware)

Listeners: 0 out of 2509 total

Glacier Tower: 124.550

KGPM Tower
Grand Prairie, Texas, United States

Feed Status: DOWN
Offline since: 2024-06-03 11:04:39 UTC

KGPM 241950Z 09005KT 10SM SCT040 BKN060 30/18 A3011

KGPM Airport Info (Airnav.com)

Grand Prairie Tower: 128.550

KGPT Gnd/Twr/App (Archives)
Gulfport, Mississippi, United States

Feed Status: UP
Listen in your browser - HTML5 player(in browser, HTML5)
Click here to listen with your own player(launches your MP3 player)

KGPT 241953Z 18008KT 10SM SCT031 BKN070 31/24 A3009 RMK AO2 SLP189 T03110244

KGPT Airport Info (Airnav.com)

KGPT Flight Activity (Flightaware)

Listeners: 0 out of 2509 total

Gulfport Approach/Departure (East): 124.600
Gulfport Approach/Departure (East/UHF): 254.250
Gulfport Approach/Departure (West): 127.500
Gulfport Approach/Departure (West/UHF): 351.400
Gulfport Ground: 120.400
Gulfport Tower: 123.700
Gulfport Tower (UHF): 339.800

KGQQ CTAF/Del/App (Archives)
Galion, Ohio, United States

Feed Status: UP
Listen in your browser - HTML5 player(in browser, HTML5)
Click here to listen with your own player(launches your MP3 player)

KGQQ Airport Info (Airnav.com)

KGQQ Flight Activity (Flightaware)

Listeners: 0 out of 2509 total

Galion Clearance Delivery: 126.800
Galion CTAF/UNICOM: 122.800
Mansfield Approach: 124.200

KGTU Gnd/Twr (Archives)
Georgetown, Texas, United States

Feed Status: UP
Listen in your browser - HTML5 player(in browser, HTML5)
Click here to listen with your own player(launches your MP3 player)

KGTU 241956Z 05007KT 10SM SCT041 BKN055 31/19 A3012 RMK AO2 SLP191 T03110194

KGTU Airport Info (Airnav.com)

KGTU Flight Activity (Flightaware)

Listeners: 2 out of 2509 total

Georgetown Ground: 119.125
Georgetown Tower: 120.225

KGVL AWOS (Archives)
Gainesville, Georgia, United States

Feed Status: UP
Listen in your browser - HTML5 player(in browser, HTML5)
Click here to listen with your own player(launches your MP3 player)

KGVL 241953Z AUTO 31003KT 10SM CLR 29/20 A3021 RMK AO2 SLP213 T02940200

KGVL Airport Info (Airnav.com)

KGVL Flight Activity (Flightaware)

Listeners: 0 out of 2509 total

Gainesville AWOS: 126.475

KGVL CTAF #1 (Archives)
Gainesville, Georgia, United States

Feed Status: UP
Listen in your browser - HTML5 player(in browser, HTML5)
Click here to listen with your own player(launches your MP3 player)

KGVL 241953Z AUTO 31003KT 10SM CLR 29/20 A3021 RMK AO2 SLP213 T02940200

KGVL Airport Info (Airnav.com)

KGVL Flight Activity (Flightaware)

Listeners: 0 out of 2509 total

Gainesville Clearance (Atlanta Center or TRACON): 134.800
Gainesville CTAF: 123.075

KGVL CTAF #2 (Archives)
Gainesville, Georgia, United States

Feed Status: UP
Listen in your browser - HTML5 player(in browser, HTML5)
Click here to listen with your own player(launches your MP3 player)

KGVL 241953Z AUTO 31003KT 10SM CLR 29/20 A3021 RMK AO2 SLP213 T02940200

KGVL Airport Info (Airnav.com)

KGVL Flight Activity (Flightaware)

Listeners: 0 out of 2509 total

Gainesville CTAF: 123.075

KGVL Emergency/Guard (Archives)
Gainesville, Georgia, United States

Feed Status: UP
Listen in your browser - HTML5 player(in browser, HTML5)
Click here to listen with your own player(launches your MP3 player)

KGVL 241953Z AUTO 31003KT 10SM CLR 29/20 A3021 RMK AO2 SLP213 T02940200

KGVL Airport Info (Airnav.com)

KGVL Flight Activity (Flightaware)

Listeners: 0 out of 2509 total

Emergency/Guard: 121.500

KGWB AWOS (Archives)
Auburn, Indiana, United States

Feed Status: UP
Listen in your browser - HTML5 player(in browser, HTML5)
Click here to listen with your own player(launches your MP3 player)

KGWB 242015Z AUTO 32007KT 10SM SCT031 SCT037 SCT045 25/17 A3012 RMK AO2

KGWB Airport Info (Airnav.com)

KGWB Flight Activity (Flightaware)

Listeners: 0 out of 2509 total

De Kalb AWOS: 124.150

KGWB CTAF (Archives)
Auburn, Indiana, United States

Feed Status: UP
Listen in your browser - HTML5 player(in browser, HTML5)
Click here to listen with your own player(launches your MP3 player)

KGWB 242015Z AUTO 32007KT 10SM SCT031 SCT037 SCT045 25/17 A3012 RMK AO2

KGWB Airport Info (Airnav.com)

KGWB Flight Activity (Flightaware)

Listeners: 0 out of 2509 total

De Kalb CTAF: 123.000

KGYH Tower (Archives)
Greenville, South Carolina, United States

Feed Status: UP
Listen in your browser - HTML5 player(in browser, HTML5)
Click here to listen with your own player(launches your MP3 player)

KGMU 241953Z 22007KT 10SM CLR 31/21 A3017 RMK AO2 SLP204 T03060211

KGMU Airport Info (Airnav.com)

KGMU Flight Activity (Flightaware)

Listeners: 0 out of 2509 total

Donaldson Tower: 133.325

KGYR Ground (Archives)
Goodyear, Arizona, United States

Feed Status: UP
Listen in your browser - HTML5 player(in browser, HTML5)
Click here to listen with your own player(launches your MP3 player)

KGYR 241947Z 23008G14KT 10SM FEW100 SCT180 SCT250 42/17 A2996

KGYR Airport Info (Airnav.com)

KGYR Flight Activity (Flightaware)

Listeners: 0 out of 2509 total

Goodyear Ground: 121.700

KGYR Ground/Tower (Archives)
Goodyear, Arizona, United States

Feed Status: UP
Listen in your browser - HTML5 player(in browser, HTML5)
Click here to listen with your own player(launches your MP3 player)

KGYR 241947Z 23008G14KT 10SM FEW100 SCT180 SCT250 42/17 A2996

KGYR Airport Info (Airnav.com)

KGYR Flight Activity (Flightaware)

Listeners: 0 out of 2509 total

Goodyear Ground: 121.700
Goodyear Tower: 120.100

KGYR Tower (Archives)
Goodyear, Arizona, United States

Feed Status: UP
Listen in your browser - HTML5 player(in browser, HTML5)
Click here to listen with your own player(launches your MP3 player)

KGYR 241947Z 23008G14KT 10SM FEW100 SCT180 SCT250 42/17 A2996

KGYR Airport Info (Airnav.com)

KGYR Flight Activity (Flightaware)

Listeners: 0 out of 2509 total

Goodyear Tower: 120.100

KHAF CTAF (Archives)
Half Moon Bay, California, United States

Feed Status: UP
Listen in your browser - HTML5 player(in browser, HTML5)
Click here to listen with your own player(launches your MP3 player)

KHAF 242015Z AUTO 15008KT 4SM HZ CLR 20/16 A3008 RMK AO2

KHAF Airport Info (Airnav.com)

KHAF Flight Activity (Flightaware)

Listeners: 0 out of 2509 total

Half Moon Bay CTAF: 122.800

KHEF Del/Gnd/Twr (Archives)
Manassas, Virginia, United States

Feed Status: UP
Listen in your browser - HTML5 player(in browser, HTML5)
Click here to listen with your own player(launches your MP3 player)

KHEF 241956Z VRB03KT 10SM CLR 29/22 A3009 RMK AO2 SLP193 T02940217 PNO $

KHEF Airport Info (Airnav.com)

KHEF Flight Activity (Flightaware)

Listeners: 2 out of 2509 total

Manassas Clearance Delivery (after Tower closes): 120.200
Manassas Ground: 121.800
Manassas Tower: 133.100

KHFD Ground/Tower (Archives)
Hartford, Connecticut, United States

Feed Status: UP
Listen in your browser - HTML5 player(in browser, HTML5)
Click here to listen with your own player(launches your MP3 player)

KHFD 241953Z 17003KT 10SM BKN009 BKN012 OVC019 25/22 A3010 RMK AO2 SLP192 T02500217

KHFD Airport Info (Airnav.com)

KHFD Flight Activity (Flightaware)

Listeners: 0 out of 2509 total

Brainard Ground: 121.600
Brainard Tower: 119.600

KHGR Tower (Archives)
Hagerstown, Maryland, United States

Feed Status: UP
Listen in your browser - HTML5 player(in browser, HTML5)
Click here to listen with your own player(launches your MP3 player)

KMRB 241953Z 24007KT 10SM CLR 28/18 A3007 RMK AO2 SLP179 T02830183

KMRB Airport Info (Airnav.com)

KMRB Flight Activity (Flightaware)

Listeners: 0 out of 2509 total

Hagerstown Tower: 120.300

KHHR ATIS (Archives)
Hawthorne, California, United States

Feed Status: UP
Listen in your browser - HTML5 player(in browser, HTML5)
Click here to listen with your own player(launches your MP3 player)

KHHR 121953Z 30007KT 7SM CLR 22/17 A2988 RMK AO2 SLP115 T02170167

KHHR Airport Info (Airnav.com)

KHHR Flight Activity (Flightaware)

Listeners: 0 out of 2509 total

Hawthorne ATIS: 118.400

KHHR Emergency/Guard (Archives)
Hawthorne, California, United States

Feed Status: UP
Listen in your browser - HTML5 player(in browser, HTML5)
Click here to listen with your own player(launches your MP3 player)

KHHR 121953Z 30007KT 7SM CLR 22/17 A2988 RMK AO2 SLP115 T02170167

KHHR Airport Info (Airnav.com)

KHHR Flight Activity (Flightaware)

Listeners: 0 out of 2509 total

Emergency/Guard: 121.500

KHHR Ground (Archives)
Hawthorne, California, United States

Feed Status: UP
Listen in your browser - HTML5 player(in browser, HTML5)
Click here to listen with your own player(launches your MP3 player)

KHHR 121953Z 30007KT 7SM CLR 22/17 A2988 RMK AO2 SLP115 T02170167

KHHR Airport Info (Airnav.com)

KHHR Flight Activity (Flightaware)

Listeners: 0 out of 2509 total

Hawthorne Ground: 125.100

KHHR Ground/Tower (Archives)
Hawthorne, California, United States

Feed Status: UP
Listen in your browser - HTML5 player(in browser, HTML5)
Click here to listen with your own player(launches your MP3 player)

KHHR 121953Z 30007KT 7SM CLR 22/17 A2988 RMK AO2 SLP115 T02170167

KHHR Airport Info (Airnav.com)

KHHR Flight Activity (Flightaware)

Listeners: 0 out of 2509 total

Hawthorne Ground: 125.100
Hawthorne Tower: 121.100

KHHR Tower (Archives)
Hawthorne, California, United States

Feed Status: UP
Listen in your browser - HTML5 player(in browser, HTML5)
Click here to listen with your own player(launches your MP3 player)

KHHR 121953Z 30007KT 7SM CLR 22/17 A2988 RMK AO2 SLP115 T02170167

KHHR Airport Info (Airnav.com)

KHHR Flight Activity (Flightaware)

Listeners: 0 out of 2509 total

Hawthorne Tower: 121.100

KHIO Ground (Archives)
Portland, Oregon, United States

Feed Status: UP
Listen in your browser - HTML5 player(in browser, HTML5)
Click here to listen with your own player(launches your MP3 player)

KHIO 241953Z 10SM CLR 25/08 A3009 RMK AO2 SLP186 T02500083

KHIO Airport Info (Airnav.com)

KHIO Flight Activity (Flightaware)

Listeners: 0 out of 2509 total

Hillsboro Ground: 121.700

KHIO Tower (Both) (Archives)
Portland, Oregon, United States

Feed Status: UP
Listen in your browser - HTML5 player(in browser, HTML5)
Click here to listen with your own player(launches your MP3 player)

KHIO 241953Z 10SM CLR 25/08 A3009 RMK AO2 SLP186 T02500083

KHIO Airport Info (Airnav.com)

KHIO Flight Activity (Flightaware)

Listeners: 6 out of 2509 total

Hillsboro Tower: 119.300
Hillsboro Tower: 132.800

KHIO Tower (Primary) (Archives)
Portland, Oregon, United States

Feed Status: UP
Listen in your browser - HTML5 player(in browser, HTML5)
Click here to listen with your own player(launches your MP3 player)

KHIO 241953Z 10SM CLR 25/08 A3009 RMK AO2 SLP186 T02500083

KHIO Airport Info (Airnav.com)

KHIO Flight Activity (Flightaware)

Listeners: 0 out of 2509 total

Hillsboro Tower: 119.300

KHKY ASOS
Hickory, North Carolina, United States

Feed Status: DOWN
Offline since: 2023-09-18 16:20:05 UTC

KHKY 241953Z 19006KT 10SMSM CLR 29/23 A3017

KHKY Airport Info (Airnav.com)

Hickory ASOS: 118.325

KHKY Clearance Delivery (ZTL) (Archives)
Hickory, North Carolina, United States

Feed Status: UP
Listen in your browser - HTML5 player(in browser, HTML5)
Click here to listen with your own player(launches your MP3 player)

KHKY 241953Z 19006KT 10SMSM CLR 29/23 A3017

KHKY Airport Info (Airnav.com)

KHKY Flight Activity (Flightaware)

Listeners: 0 out of 2509 total

Hickory Clearance Delivery (Atlanta Center): 124.250

KHKY Emergency/Guard (Archives)
Hickory, North Carolina, United States

Feed Status: UP
Listen in your browser - HTML5 player(in browser, HTML5)
Click here to listen with your own player(launches your MP3 player)

KHKY 241953Z 19006KT 10SMSM CLR 29/23 A3017

KHKY Airport Info (Airnav.com)

KHKY Flight Activity (Flightaware)

Listeners: 0 out of 2509 total

Emergency/Guard: 121.500

KHKY Ground (Archives)
Hickory, North Carolina, United States

Feed Status: UP
Listen in your browser - HTML5 player(in browser, HTML5)
Click here to listen with your own player(launches your MP3 player)

KHKY 241953Z 19006KT 10SMSM CLR 29/23 A3017

KHKY Airport Info (Airnav.com)

KHKY Flight Activity (Flightaware)

Listeners: 0 out of 2509 total

Hickory Ground: 121.700

KHKY Tower (Archives)
Hickory, North Carolina, United States

Feed Status: UP
Listen in your browser - HTML5 player(in browser, HTML5)
Click here to listen with your own player(launches your MP3 player)

KHKY 241953Z 19006KT 10SMSM CLR 29/23 A3017

KHKY Airport Info (Airnav.com)

KHKY Flight Activity (Flightaware)

Listeners: 0 out of 2509 total

Hickory Tower: 128.150

KHMT CTAF (Archives)
Hemet, California, United States

Feed Status: UP
Listen in your browser - HTML5 player(in browser, HTML5)
Click here to listen with your own player(launches your MP3 player)

KHMT 242015Z AUTO 24004KT 10SM CLR 40/14 A3005 RMK AO2

KHMT Airport Info (Airnav.com)

KHMT Flight Activity (Flightaware)

Listeners: 0 out of 2509 total

Hemet CTAF: 123.000

KHND ATIS (Archives)
Las Vegas, Nevada, United States

Feed Status: UP
Listen in your browser - HTML5 player(in browser, HTML5)
Click here to listen with your own player(launches your MP3 player)

KHND 241956Z VRB05KT 10SM CLR 39/16 A3009 RMK AO2 SLP169 T03890156

KHND Airport Info (Airnav.com)

KHND Flight Activity (Flightaware)

Listeners: 0 out of 2509 total

Henderson ATIS: 120.775

KHND Ground/Tower (Archives)
Las Vegas, Nevada, United States

Feed Status: UP
Listen in your browser - HTML5 player(in browser, HTML5)
Click here to listen with your own player(launches your MP3 player)

KHND 241956Z VRB05KT 10SM CLR 39/16 A3009 RMK AO2 SLP169 T03890156

KHND Airport Info (Airnav.com)

KHND Flight Activity (Flightaware)

Listeners: 1 out of 2509 total

Henderson Ground: 127.800
Henderson Tower: 125.100

KHPN ATIS (Archives)
White Plains, New York, United States

Feed Status: UP
Listen in your browser - HTML5 player(in browser, HTML5)
Click here to listen with your own player(launches your MP3 player)

KHPN 241956Z VRB04KT 9SM BKN011 25/22 A3010 RMK AO2 SLP186 T02500217

KHPN Airport Info (Airnav.com)

KHPN Flight Activity (Flightaware)

Listeners: 0 out of 2509 total

Westchester County ATIS: 133.800

KHPN Del/Gnd/Tower #1 (Archives)
White Plains, New York, United States

Feed Status: UP
Listen in your browser - HTML5 player(in browser, HTML5)
Click here to listen with your own player(launches your MP3 player)

KHPN 241956Z VRB04KT 9SM BKN011 25/22 A3010 RMK AO2 SLP186 T02500217

KHPN Airport Info (Airnav.com)

KHPN Flight Activity (Flightaware)

Listeners: 0 out of 2509 total

Westchester Clearance Delivery: 127.250
Westchester Ground: 121.825
Westchester Tower: 118.575

KHPN Delivery/Ground (Archives)
White Plains, New York, United States

Feed Status: UP
Listen in your browser - HTML5 player(in browser, HTML5)
Click here to listen with your own player(launches your MP3 player)

KHPN 241956Z VRB04KT 9SM BKN011 25/22 A3010 RMK AO2 SLP186 T02500217

KHPN Airport Info (Airnav.com)

KHPN Flight Activity (Flightaware)

Listeners: 0 out of 2509 total

Westchester Clearance Delivery: 127.250
Westchester Ground: 121.825

KHPN Tower (Archives)
New York, New York, United States

Feed Status: UP
Listen in your browser - HTML5 player(in browser, HTML5)
Click here to listen with your own player(launches your MP3 player)

KHPN 241956Z VRB04KT 9SM BKN011 25/22 A3010 RMK AO2 SLP186 T02500217

KHPN Airport Info (Airnav.com)

KHPN Flight Activity (Flightaware)

Listeners: 0 out of 2509 total

Westchester Tower: 118.575

KHPN Tower (Archives)
New York, New York, United States

Feed Status: UP
Listen in your browser - HTML5 player(in browser, HTML5)
Click here to listen with your own player(launches your MP3 player)

KHPN 241956Z VRB04KT 9SM BKN011 25/22 A3010 RMK AO2 SLP186 T02500217

KHPN Airport Info (Airnav.com)

KHPN Flight Activity (Flightaware)

Listeners: 0 out of 2509 total

Westchester Tower: 118.575

NY Approach (NOBBI/NYACK/HAARP) (Archives)
New York, New York, United States

Feed Status: UP
Listen in your browser - HTML5 player(in browser, HTML5)
Click here to listen with your own player(launches your MP3 player)

KHPN 241956Z VRB04KT 9SM BKN011 25/22 A3010 RMK AO2 SLP186 T02500217

KHPN Airport Info (Airnav.com)

KHPN Flight Activity (Flightaware)

Listeners: 0 out of 2509 total

New York Approach (HAARP Sector): 135.350
New York Approach (HAARP Sector): 120.800
New York Approach (NOBBI Sector): 126.400
New York Approach (NYACK Sector): 120.550

KHRL Gnd/Twr/App
Harlingen, Texas, United States

Feed Status: DOWN
Offline since: 2024-02-01 04:06:05 UTC

KHRL 241952Z 11012KT 10SM SCT018 SCT024 BKN043 31/26 A3002 RMK AO2 SLP164 T03060256

KHRL Airport Info (Airnav.com)

Harlingen Clearance/Ground: 121.700
Harlingen Tower: 119.300
Valley Approach: 120.700

KHRO CTAF/ZME/Misc (Archives)
Harrison, Arkansas, United States

Feed Status: UP
Listen in your browser - HTML5 player(in browser, HTML5)
Click here to listen with your own player(launches your MP3 player)

KHRO 241953Z AUTO 01005KT 10SM CLR 31/18 A3017 RMK AO2 SLP201 T03060178 $

KHRO Airport Info (Airnav.com)

KHRO Flight Activity (Flightaware)

Listeners: 2 out of 2509 total

Boone County CTAF: 123.000
Jonesboro FSS: 122.450
Jonesboro FSS: 255.400
KBBG Tower (aircraft only): 128.150
Memphis Center (Low): 126.850
Memphis Center (Low): 281.550
Memphis Center (Ultra-High): 133.025
Memphis Center (Ultra-High): 284.750
Springfield Approach (aircraft only): 126.350

KHRT ATIS
Mary Esther, Florida, United States

Feed Status: DOWN
Offline since: 2024-06-08 13:36:22 UTC

KHRT 241955Z 23011KT 10SM SCT020 SCT100 32/26 A3010 RMK AO2A SLP191 T03180256 $

KHRT Airport Info (Airnav.com)

Hurlburt ATIS: 134.475

KHRT Gnd/Misc
Mary Esther, Florida, United States

Feed Status: DOWN
Offline since: 2024-06-08 13:36:22 UTC

KHRT 241955Z 23011KT 10SM SCT020 SCT100 32/26 A3010 RMK AO2A SLP191 T03180256 $

KHRT Airport Info (Airnav.com)

Hurlburt Command Post: 143.000
Hurlburt Command Post: 251.250
Hurlburt Ground: 123.975
Hurlburt Ground: 275.800

KHRT Tower
Mary Esther, Florida, United States

Feed Status: DOWN
Offline since: 2024-06-08 13:36:22 UTC

KHRT 241955Z 23011KT 10SM SCT020 SCT100 32/26 A3010 RMK AO2A SLP191 T03180256 $

KHRT Airport Info (Airnav.com)

Hurlburt Tower: 126.500
Hurlburt Tower: 351.675

KHSD CTAF (Archives)
Oklahoma City, Oklahoma, United States

Feed Status: UP
Listen in your browser - HTML5 player(in browser, HTML5)
Click here to listen with your own player(launches your MP3 player)

KHSD Airport Info (Airnav.com)

KHSD Flight Activity (Flightaware)

Listeners: 0 out of 2509 total

Sundance CTAF: 122.700

KHUF App/Dep (Archives)
Terre Haute, Indiana, United States

Feed Status: UP
Listen in your browser - HTML5 player(in browser, HTML5)
Click here to listen with your own player(launches your MP3 player)

KHUF 241953Z 22009KT 10SM SCT049 32/21 A3011 RMK AO2 LTG DSNT NE SLP190 T03170206

KHUF Airport Info (Airnav.com)

KHUF Flight Activity (Flightaware)

Listeners: 0 out of 2509 total

Hulman Approach: 125.450

KHUF Emergency/Guard (Archives)
Terre Haute, Indiana, United States

Feed Status: UP
Listen in your browser - HTML5 player(in browser, HTML5)
Click here to listen with your own player(launches your MP3 player)

KHUF 241953Z 22009KT 10SM SCT049 32/21 A3011 RMK AO2 LTG DSNT NE SLP190 T03170206

KHUF Airport Info (Airnav.com)

KHUF Flight Activity (Flightaware)

Listeners: 0 out of 2509 total

Emergency/Guard: 121.500

KHUF Gnd/Twr (Archives)
Terre Haute, Indiana, United States

Feed Status: UP
Listen in your browser - HTML5 player(in browser, HTML5)
Click here to listen with your own player(launches your MP3 player)

KHUF 241953Z 22009KT 10SM SCT049 32/21 A3011 RMK AO2 LTG DSNT NE SLP190 T03170206

KHUF Airport Info (Airnav.com)

KHUF Flight Activity (Flightaware)

Listeners: 0 out of 2509 total

Hulman Ground/Clearance: 121.600
Hulman Tower: 134.725

KHUF Gnd/Twr/App (Archives)
Terre Haute, Indiana, United States

Feed Status: UP
Listen in your browser - HTML5 player(in browser, HTML5)
Click here to listen with your own player(launches your MP3 player)

KHUF 241953Z 22009KT 10SM SCT049 32/21 A3011 RMK AO2 LTG DSNT NE SLP190 T03170206

KHUF Airport Info (Airnav.com)

KHUF Flight Activity (Flightaware)

Listeners: 0 out of 2509 total

Hulman Approach: 125.450
Hulman Ground/Clearance: 121.600
Hulman Tower: 134.725
Indianapolis Center (Sector 35 Terre Haute Low): 132.200
Indianapolis Center (Sector 80 King High): 134.175

KHUF Ground (Archives)
Terre Haute, Indiana, United States

Feed Status: UP
Listen in your browser - HTML5 player(in browser, HTML5)
Click here to listen with your own player(launches your MP3 player)

KHUF 241953Z 22009KT 10SM SCT049 32/21 A3011 RMK AO2 LTG DSNT NE SLP190 T03170206

KHUF Airport Info (Airnav.com)

KHUF Flight Activity (Flightaware)

Listeners: 0 out of 2509 total

Hulman Ground/Clearance: 121.600

KHUF Tower (Archives)
Terre Haute, Indiana, United States

Feed Status: UP
Listen in your browser - HTML5 player(in browser, HTML5)
Click here to listen with your own player(launches your MP3 player)

KHUF 241953Z 22009KT 10SM SCT049 32/21 A3011 RMK AO2 LTG DSNT NE SLP190 T03170206

KHUF Airport Info (Airnav.com)

KHUF Flight Activity (Flightaware)

Listeners: 0 out of 2509 total

Hulman Tower: 134.725

KHUL ASOS (Archives)
Houlton, Maine, United States

Feed Status: UP
Listen in your browser - HTML5 player(in browser, HTML5)
Click here to listen with your own player(launches your MP3 player)

KHUL 241953Z AUTO VRB04KT 10SM FEW037 SCT100 23/16 A3019 RMK AO2 SLP223 T02280156

KHUL Airport Info (Airnav.com)

KHUL Flight Activity (Flightaware)

Listeners: 0 out of 2509 total

Houlton ASOS: 132.025

KHUL/KPQI/ZBW01/15 (Archives)
Houlton, Maine, United States

Feed Status: UP
Listen in your browser - HTML5 player(in browser, HTML5)
Click here to listen with your own player(launches your MP3 player)

KHUL 241953Z AUTO VRB04KT 10SM FEW037 SCT100 23/16 A3019 RMK AO2 SLP223 T02280156

KHUL Airport Info (Airnav.com)

KHUL Flight Activity (Flightaware)

Listeners: 2 out of 2509 total

Boston Center (Sector 01 Millinocket High Sector): 128.050
Boston Center (Sector 01 Millinocket High Sector): 319.100
Boston Center (Surry 15 Low Sector): 120.250
Boston Center (Surry 15 Low Sector): 346.400
Boston Center (Surry 15 Low Sector): 124.750
Emergency/Guard: 121.500
Houlton CTAF/UNICOM: 122.800
Presque Isle CTAF/UNICOM: 122.800

KHUT Ground/Twr (Archives)
Hutchinson, Kansas, United States

Feed Status: UP
Listen in your browser - HTML5 player(in browser, HTML5)
Click here to listen with your own player(launches your MP3 player)

KHUT 241952Z 20008G14KT 10SM BKN075 33/16 A3013 RMK AO2 SLP179 T03330156

KHUT Airport Info (Airnav.com)

KHUT Flight Activity (Flightaware)

Listeners: 1 out of 2509 total

Emergency/Guard: 121.500
Hutchinson Ground: 121.900
Hutchinson Tower: 118.500

KHVN Area Emergency/Guard (Archives)
New Haven, Connecticut, United States

Feed Status: UP
Listen in your browser - HTML5 player(in browser, HTML5)
Click here to listen with your own player(launches your MP3 player)

KHVN 241953Z 11011KT 10SM SCT005 SCT015 SCT040 25/22 A3010 RMK AO2 SLP192 T02500222

KHVN Airport Info (Airnav.com)

KHVN Flight Activity (Flightaware)

Listeners: 0 out of 2509 total

Emergency/Guard: 121.500

KHVN ATIS (Archives)
New Haven, Connecticut, United States

Feed Status: UP
Listen in your browser - HTML5 player(in browser, HTML5)
Click here to listen with your own player(launches your MP3 player)

KHVN 241953Z 11011KT 10SM SCT005 SCT015 SCT040 25/22 A3010 RMK AO2 SLP192 T02500222

KHVN Airport Info (Airnav.com)

KHVN Flight Activity (Flightaware)

Listeners: 0 out of 2509 total

New Haven ATIS: 133.650

KHVN Ground (Archives)
New Haven, Connecticut, United States

Feed Status: UP
Listen in your browser - HTML5 player(in browser, HTML5)
Click here to listen with your own player(launches your MP3 player)

KHVN 241953Z 11011KT 10SM SCT005 SCT015 SCT040 25/22 A3010 RMK AO2 SLP192 T02500222

KHVN Airport Info (Airnav.com)

KHVN Flight Activity (Flightaware)

Listeners: 0 out of 2509 total

New Haven Ground: 121.700

KHVN Ground/Tower #1 (Archives)
New Haven, Connecticut, United States

Feed Status: UP
Listen in your browser - HTML5 player(in browser, HTML5)
Click here to listen with your own player(launches your MP3 player)

KHVN 241953Z 11011KT 10SM SCT005 SCT015 SCT040 25/22 A3010 RMK AO2 SLP192 T02500222

KHVN Airport Info (Airnav.com)

KHVN Flight Activity (Flightaware)

Listeners: 0 out of 2509 total

New Haven Ground: 121.700
New Haven Tower: 124.800

KHVN Ground/Tower #2 (Archives)
New Haven, Connecticut, United States

Feed Status: UP
Listen in your browser - HTML5 player(in browser, HTML5)
Click here to listen with your own player(launches your MP3 player)

KHVN 241953Z 11011KT 10SM SCT005 SCT015 SCT040 25/22 A3010 RMK AO2 SLP192 T02500222

KHVN Airport Info (Airnav.com)

KHVN Flight Activity (Flightaware)

Listeners: 0 out of 2509 total

New Haven Ground: 121.700
New Haven Tower: 124.800

KHVN Tower (Archives)
New Haven, Connecticut, United States

Feed Status: UP
Listen in your browser - HTML5 player(in browser, HTML5)
Click here to listen with your own player(launches your MP3 player)

KHVN 241953Z 11011KT 10SM SCT005 SCT015 SCT040 25/22 A3010 RMK AO2 SLP192 T02500222

KHVN Airport Info (Airnav.com)

KHVN Flight Activity (Flightaware)

Listeners: 0 out of 2509 total

New Haven Tower: 124.800

KHWD Ground/Tower (Archives)
Hayward, California, United States

Feed Status: UP
Listen in your browser - HTML5 player(in browser, HTML5)
Click here to listen with your own player(launches your MP3 player)

KHWD 241954Z 29012KT 10SM CLR 28/15 A3003 RMK AO2 SLP176 T02830150

KHWD Airport Info (Airnav.com)

KHWD Flight Activity (Flightaware)

Listeners: 0 out of 2509 total

Hayward Ground: 121.400
Hayward Tower: 118.900
Hayward Tower: 120.200

KHWO ATIS
Hollywood, Florida, United States

Feed Status: DOWN
Offline since: 2024-07-12 09:17:22 UTC

KHWO 241953Z AUTO 10SM SCT034 SCT049 BKN080 34/23 A3015 RMK AO2 SLP209 T03440228 $

KHWO Airport Info (Airnav.com)

North Perry ATIS: 135.475

KHWO Ground
Hollywood, Florida, United States

Feed Status: DOWN
Offline since: 2024-07-12 09:17:22 UTC

KHWO 241953Z AUTO 10SM SCT034 SCT049 BKN080 34/23 A3015 RMK AO2 SLP209 T03440228 $

KHWO Airport Info (Airnav.com)

North Perry Ground: 120.450

KHWO Tower (Both) #1
Hollywood, Florida, United States

Feed Status: DOWN
Offline since: 2024-07-12 09:17:22 UTC

KHWO 241953Z AUTO 10SM SCT034 SCT049 BKN080 34/23 A3015 RMK AO2 SLP209 T03440228 $

KHWO Airport Info (Airnav.com)

North Perry Tower (Primary): 132.100
North Perry Tower (Secondary): 134.300

KHWO Tower (Both) #2 (Archives)
Hollywood, Florida, United States

Feed Status: UP
Listen in your browser - HTML5 player(in browser, HTML5)
Click here to listen with your own player(launches your MP3 player)

KHWO 241953Z AUTO 10SM SCT034 SCT049 BKN080 34/23 A3015 RMK AO2 SLP209 T03440228 $

KHWO Airport Info (Airnav.com)

KHWO Flight Activity (Flightaware)

Listeners: 0 out of 2509 total

North Perry Tower (Primary): 132.100
North Perry Tower (Secondary): 134.300

KHWO Tower (Primary) #1
Hollywood, Florida, United States

Feed Status: DOWN
Offline since: 2024-06-30 22:49:05 UTC

KHWO 241953Z AUTO 10SM SCT034 SCT049 BKN080 34/23 A3015 RMK AO2 SLP209 T03440228 $

KHWO Airport Info (Airnav.com)

North Perry Tower (Primary): 132.100

KHWO Tower (Primary) #2 (Archives)
Hollywood, Florida, United States

Feed Status: UP
Listen in your browser - HTML5 player(in browser, HTML5)
Click here to listen with your own player(launches your MP3 player)

KHWO 241953Z AUTO 10SM SCT034 SCT049 BKN080 34/23 A3015 RMK AO2 SLP209 T03440228 $

KHWO Airport Info (Airnav.com)

KHWO Flight Activity (Flightaware)

Listeners: 1 out of 2509 total

North Perry Tower (Primary): 132.100

KHWO Tower (Secondary) #1
Hollywood, Florida, United States

Feed Status: DOWN
Offline since: 2024-07-12 09:17:22 UTC

KHWO 241953Z AUTO 10SM SCT034 SCT049 BKN080 34/23 A3015 RMK AO2 SLP209 T03440228 $

KHWO Airport Info (Airnav.com)

North Perry Tower (Secondary): 134.300

KHWO Tower (Secondary) #2 (Archives)
Hollywood, Florida, United States

Feed Status: UP
Listen in your browser - HTML5 player(in browser, HTML5)
Click here to listen with your own player(launches your MP3 player)

KHWO 241953Z AUTO 10SM SCT034 SCT049 BKN080 34/23 A3015 RMK AO2 SLP209 T03440228 $

KHWO Airport Info (Airnav.com)

KHWO Flight Activity (Flightaware)

Listeners: 0 out of 2509 total

North Perry Tower (Secondary): 134.300

KHWV CTAF
Shirley, New York, United States

Feed Status: DOWN
Offline since: 2024-07-15 19:00:40 UTC

KHWV 242026Z AUTO 20004KT 10SM BKN015 BKN023 27/22 A3009 RMK AO2 T02720222

KHWV Airport Info (Airnav.com)

Brookhaven CTAF: 122.800
Emergency/Guard: 121.500

KHXD Ground/Tower (Archives)
Hilton Head Island, South Carolina, United States

Feed Status: UP
Listen in your browser - HTML5 player(in browser, HTML5)
Click here to listen with your own player(launches your MP3 player)

KHXD 241950Z 19011KT 10SM CLR 30/25 A3019

KHXD Airport Info (Airnav.com)

KHXD Flight Activity (Flightaware)

Listeners: 0 out of 2509 total

Hilton Head Ground: 121.100
Hilton Head Tower: 118.975

Boston Approach (Cape North) (Archives)
Hyannis, Massachusetts, United States

Feed Status: UP
Listen in your browser - HTML5 player(in browser, HTML5)
Click here to listen with your own player(launches your MP3 player)

KFMH 241945Z 13008KT 2SM BR OVC003 19/19 A3016

KFMH Airport Info (Airnav.com)

KFMH Flight Activity (Flightaware)

Listeners: 4 out of 2509 total

Boston Approach (Cape North Arrival): 118.200

KHYI Gnd/Twr/Misc (Archives)
Austin, Texas, United States

Feed Status: UP
Listen in your browser - HTML5 player(in browser, HTML5)
Click here to listen with your own player(launches your MP3 player)

KHYI 241956Z 06008KT 10SM FEW037 SCT046 SCT100 32/22 A3008 RMK AO2 LTG DSNT S SLP181 T03170222

KHYI Airport Info (Airnav.com)

KHYI Flight Activity (Flightaware)

Listeners: 1 out of 2509 total

San Marcos Ground: 120.125
San Marcos Tower: 126.825

KHYS CTAF
Hays, Kansas, United States

Feed Status: DOWN
Offline since: 2024-05-10 19:36:05 UTC

KHYS 241956Z AUTO VRB04KT 10SM CLR 33/13 A3015 RMK AO2 SLP194 T03280133

KHYS Airport Info (Airnav.com)

Hays CTAF: 122.800

KIAG Del/Gnd/Twr #1
Niagara Falls, New York, United States

Feed Status: DOWN
Offline since: 2024-06-29 17:11:05 UTC

KIAG 241953Z 22012G21KT 10SM FEW033 28/20 A2998 RMK AO2 SLP147 T02830200

KIAG Airport Info (Airnav.com)

Niagara Clearance Delivery: 119.250
Niagara Falls Pilot-to-Pilot Advisory: 122.050
Niagara Ground: 121.700
Niagara Tower: 118.500

KIAG Del/Gnd/Twr #2 (Archives)
Niagara Falls, New York, United States

Feed Status: UP
Listen in your browser - HTML5 player(in browser, HTML5)
Click here to listen with your own player(launches your MP3 player)

KIAG 241953Z 22012G21KT 10SM FEW033 28/20 A2998 RMK AO2 SLP147 T02830200

KIAG Airport Info (Airnav.com)

KIAG Flight Activity (Flightaware)

Listeners: 1 out of 2509 total

Niagara Clearance Delivery: 119.250
Niagara Emergency/Guard: 121.500
Niagara Ground: 121.700
Niagara Tower: 118.500
Niagara UNICOM: 122.950

KIKV Del/CTAF (Archives)
Ankeny, Iowa, United States

Feed Status: UP
Listen in your browser - HTML5 player(in browser, HTML5)
Click here to listen with your own player(launches your MP3 player)

KIKV 242015Z AUTO 03006KT 5SM HZ FEW035 SCT042 BKN060 29/22 A3011 RMK AO2

KIKV Airport Info (Airnav.com)

KIKV Flight Activity (Flightaware)

Listeners: 0 out of 2509 total

Ankeny Clearance Delivery (Des Moines via RCO): 126.650
Ankeny CTAF: 122.900

KILM Gnd/Twr/App (Archives)
Wilmington, North Carolina, United States

Feed Status: UP
Listen in your browser - HTML5 player(in browser, HTML5)
Click here to listen with your own player(launches your MP3 player)

KILM 241953Z 20009KT 10SM FEW037 SCT044 31/24 A3018 RMK AO2 LTG DSNT SW-NW SLP219 T03110239

KILM Airport Info (Airnav.com)

KILM Flight Activity (Flightaware)

Listeners: 1 out of 2509 total

Emergency/Guard: 121.500
Wilmington Approach: 118.250
Wilmington Approach: 135.750
Wilmington Approach: 317.425
Wilmington Approach: 284.650
Wilmington Ground: 121.900
Wilmington Ground: 348.600
Wilmington Tower: 119.900
Wilmington Tower: 239.300

KILM Gnd/Twr/App/ZDC (Archives)
Wilmington, North Carolina, United States

Feed Status: UP
Listen in your browser - HTML5 player(in browser, HTML5)
Click here to listen with your own player(launches your MP3 player)

KILM 241953Z 20009KT 10SM FEW037 SCT044 31/24 A3018 RMK AO2 LTG DSNT SW-NW SLP219 T03110239

KILM Airport Info (Airnav.com)

KILM Flight Activity (Flightaware)

Listeners: 0 out of 2509 total

Emergency/Guard: 121.500
Washington Center (Sector 35 Wilmington High): 269.150
Washington Center (Sector 35 Wilmington High): 124.025
Wilmington Approach: 317.425
Wilmington Approach: 284.650
Wilmington Approach: 135.750
Wilmington Approach: 118.250
Wilmington Ground: 121.900
Wilmington Ground: 348.600
Wilmington Tower: 239.300
Wilmington Tower: 119.900

KIMS AWOS (Archives)
Madison, Indiana, United States

Feed Status: UP
Listen in your browser - HTML5 player(in browser, HTML5)
Click here to listen with your own player(launches your MP3 player)

KIMS 242015Z AUTO 20009KT 10SM SCT046 SCT070 SCT080 25/21 A3015 RMK AO2

KIMS Airport Info (Airnav.com)

KIMS Flight Activity (Flightaware)

Listeners: 0 out of 2509 total

Madison AWOS Weather: 119.175

KIMS CTAF (Archives)
Madison, Indiana, United States

Feed Status: UP
Listen in your browser - HTML5 player(in browser, HTML5)
Click here to listen with your own player(launches your MP3 player)

KIMS 242015Z AUTO 20009KT 10SM SCT046 SCT070 SCT080 25/21 A3015 RMK AO2

KIMS Airport Info (Airnav.com)

KIMS Flight Activity (Flightaware)

Listeners: 0 out of 2509 total

Madison CTAF: 123.000

KINF CTAF (Archives)
Inverness, Florida, United States

Feed Status: UP
Listen in your browser - HTML5 player(in browser, HTML5)
Click here to listen with your own player(launches your MP3 player)

KINF 242015Z AUTO 16005KT 7SM CLR 34/25 A3014 RMK AO2

KINF Airport Info (Airnav.com)

KINF Flight Activity (Flightaware)

Listeners: 0 out of 2509 total

Inverness CTAF: 122.725

KCID Gnd/Twr/App/KIOW (Archives)
Iowa City, Iowa, United States

Feed Status: UP
Listen in your browser - HTML5 player(in browser, HTML5)
Click here to listen with your own player(launches your MP3 player)

KCID 242023Z VRB03KT 7SM BKN026 BKN033 26/21 A3013 RMK AO2 T02610206

KCID Airport Info (Airnav.com)

KCID Flight Activity (Flightaware)

Listeners: 0 out of 2509 total

Cedar Rapids Approach (091-269): 119.700
Cedar Rapids Approach (270-090): 134.050
Cedar Rapids Clearance Delivery: 125.450
Cedar Rapids Ground (0500-2330): 121.600
Cedar Rapids Tower (0500-2330): 118.700
UNICOM C17 (Marion) and surrounding area: 122.700
UNICOM IA24 Green Castle: 122.900
UNICOM KIOW (Iowa City) and surrounding area: 122.800

KIPJ CTAF/Del (Archives)
Lincolnton, North Carolina, United States

Feed Status: UP
Listen in your browser - HTML5 player(in browser, HTML5)
Click here to listen with your own player(launches your MP3 player)

KIPJ 242005Z AUTO 00000KT 10SM SCT027 30/23 A3015 RMK AO2 T02960232

KIPJ Airport Info (Airnav.com)

KIPJ Flight Activity (Flightaware)

Listeners: 0 out of 2509 total

Lincolnton Clearance Delivery: 124.900
Lincolnton CTAF: 123.050

KIPT Gnd/Twr/ZNY (Archives)
Williamsport, Pennsylvania, United States

Feed Status: UP
Listen in your browser - HTML5 player(in browser, HTML5)
Click here to listen with your own player(launches your MP3 player)

KIPT 241954Z 17008KT 10SM SCT035 28/21 A3004 RMK AO2 SLP167 T02780206

KIPT Airport Info (Airnav.com)

KIPT Flight Activity (Flightaware)

Listeners: 0 out of 2509 total

Emergency/Guard: 121.500
Flight Service: 122.200
Williamsport Ground: 121.900
Williamsport Tower: 119.100

KISM Ground (Archives)
Orlando, Florida, United States

Feed Status: UP
Listen in your browser - HTML5 player(in browser, HTML5)
Click here to listen with your own player(launches your MP3 player)

KJSM Airport Info (Airnav.com)

KJSM Flight Activity (Flightaware)

Listeners: 0 out of 2509 total

Kissimmee Ground/Clearance Delivery: 121.700

KISM Ground/Tower (Archives)
Orlando, Florida, United States

Feed Status: UP
Listen in your browser - HTML5 player(in browser, HTML5)
Click here to listen with your own player(launches your MP3 player)

KJSM Airport Info (Airnav.com)

KJSM Flight Activity (Flightaware)

Listeners: 0 out of 2509 total

Kissimmee Ground/Clearance Delivery: 121.700
Kissimmee Tower/CTAF: 124.450

KISM Tower (Archives)
Orlando, Florida, United States

Feed Status: UP
Listen in your browser - HTML5 player(in browser, HTML5)
Click here to listen with your own player(launches your MP3 player)

KJSM Airport Info (Airnav.com)

KJSM Flight Activity (Flightaware)

Listeners: 0 out of 2509 total

Kissimmee Tower/CTAF: 124.450

KIUA CTAF (Archives)
Canandaigua, New York, United States

Feed Status: UP
Listen in your browser - HTML5 player(in browser, HTML5)
Click here to listen with your own player(launches your MP3 player)

KIUA 242035Z AUTO 27006KT 10SM CLR 26/17 A3001 RMK AO2 T02550169

KIUA Airport Info (Airnav.com)

KIUA Flight Activity (Flightaware)

Listeners: 0 out of 2509 total

Canandaigua CTAF: 122.800

KIWA ATIS (Archives)
Phoenix, Arizona, United States

Feed Status: UP
Listen in your browser - HTML5 player(in browser, HTML5)
Click here to listen with your own player(launches your MP3 player)

KIWA 241949Z 29008KT 10SM CLR 41/16 A3000

KIWA Airport Info (Airnav.com)

KIWA Flight Activity (Flightaware)

Listeners: 0 out of 2509 total

Gateway ATIS: 133.500

KIWA Clearance Delivery (Archives)
Phoenix, Arizona, United States

Feed Status: UP
Listen in your browser - HTML5 player(in browser, HTML5)
Click here to listen with your own player(launches your MP3 player)

KIWA 241949Z 29008KT 10SM CLR 41/16 A3000

KIWA Airport Info (Airnav.com)

KIWA Flight Activity (Flightaware)

Listeners: 0 out of 2509 total

Gateway Clearance Delivery: 135.050

KIWA Ground (Archives)
Phoenix, Arizona, United States

Feed Status: UP
Listen in your browser - HTML5 player(in browser, HTML5)
Click here to listen with your own player(launches your MP3 player)

KIWA 241949Z 29008KT 10SM CLR 41/16 A3000

KIWA Airport Info (Airnav.com)

KIWA Flight Activity (Flightaware)

Listeners: 0 out of 2509 total

Gateway Ground: 128.250

KIWA Tower (Archives)
Phoenix, Arizona, United States

Feed Status: UP
Listen in your browser - HTML5 player(in browser, HTML5)
Click here to listen with your own player(launches your MP3 player)

KIWA 241949Z 29008KT 10SM CLR 41/16 A3000

KIWA Airport Info (Airnav.com)

KIWA Flight Activity (Flightaware)

Listeners: 1 out of 2509 total

Gateway Tower (East): 124.750
Gateway Tower (West): 120.600

KIWS CTAF
Houston, Texas, United States

Feed Status: DOWN
Offline since: 2024-07-03 23:01:23 UTC

METAR NOT AVAILABLE

KIWS Airport Info (Airnav.com)

West Houston CTAF: 123.050

KJCA CTAF (Archives)
Jefferson, Georgia, United States

Feed Status: UP
Listen in your browser - HTML5 player(in browser, HTML5)
Click here to listen with your own player(launches your MP3 player)

KJCA 242015Z AUTO 00000KT 10SM SCT045 SCT050 30/21 A3018 RMK AO2 T03000208

KJCA Airport Info (Airnav.com)

KJCA Flight Activity (Flightaware)

Listeners: 0 out of 2509 total

Jefferson CTAF: 122.975

KJKA Twr/CTAF (Archives)
Gulf Shores, Alabama, United States

Feed Status: UP
Listen in your browser - HTML5 player(in browser, HTML5)
Click here to listen with your own player(launches your MP3 player)

KPNS 241953Z 28005KT 10SM FEW095 29/23 A3011 RMK AO2 LTG DSNT NE SLP197 T02890228

KPNS Airport Info (Airnav.com)

KPNS Flight Activity (Flightaware)

Listeners: 1 out of 2509 total

Jack Edwards Tower/CTAF: 118.650

KJLN ATIS (Archives)
Joplin, Missouri, United States

Feed Status: UP
Listen in your browser - HTML5 player(in browser, HTML5)
Click here to listen with your own player(launches your MP3 player)

KJLN 241953Z 04003KT 10SM CLR 32/19 A3015 RMK AO2 SLP196 T03220189

KJLN Airport Info (Airnav.com)

KJLN Flight Activity (Flightaware)

Listeners: 0 out of 2509 total

Joplin ATIS: 120.850

KJLN Ground (Archives)
Joplin, Missouri, United States

Feed Status: UP
Listen in your browser - HTML5 player(in browser, HTML5)
Click here to listen with your own player(launches your MP3 player)

KJLN 241953Z 04003KT 10SM CLR 32/19 A3015 RMK AO2 SLP196 T03220189

KJLN Airport Info (Airnav.com)

KJLN Flight Activity (Flightaware)

Listeners: 0 out of 2509 total

Joplin Ground: 121.600

KJLN Ground/Tower (Archives)
Joplin, Missouri, United States

Feed Status: UP
Listen in your browser - HTML5 player(in browser, HTML5)
Click here to listen with your own player(launches your MP3 player)

KJLN 241953Z 04003KT 10SM CLR 32/19 A3015 RMK AO2 SLP196 T03220189

KJLN Airport Info (Airnav.com)

KJLN Flight Activity (Flightaware)

Listeners: 0 out of 2509 total

Joplin Ground: 121.600
Joplin Tower: 119.800

KJLN Tower (Archives)
Joplin, Missouri, United States

Feed Status: UP
Listen in your browser - HTML5 player(in browser, HTML5)
Click here to listen with your own player(launches your MP3 player)

KJLN 241953Z 04003KT 10SM CLR 32/19 A3015 RMK AO2 SLP196 T03220189

KJLN Airport Info (Airnav.com)

KJLN Flight Activity (Flightaware)

Listeners: 0 out of 2509 total

Joplin Tower: 119.800

KJNX AWOS (Archives)
Smithfield, North Carolina, United States

Feed Status: UP
Listen in your browser - HTML5 player(in browser, HTML5)
Click here to listen with your own player(launches your MP3 player)

KJNX 242005Z AUTO 26004KT 10SM SCT034 31/25 A3014 RMK AO2 LTG DSNT E AND SE

KJNX Airport Info (Airnav.com)

KJNX Flight Activity (Flightaware)

Listeners: 0 out of 2509 total

Johnston AWOS: 120.225

KJNX CTAF (Archives)
Smithfield, North Carolina, United States

Feed Status: UP
Listen in your browser - HTML5 player(in browser, HTML5)
Click here to listen with your own player(launches your MP3 player)

KJNX 242005Z AUTO 26004KT 10SM SCT034 31/25 A3014 RMK AO2 LTG DSNT E AND SE

KJNX Airport Info (Airnav.com)

KJNX Flight Activity (Flightaware)

Listeners: 0 out of 2509 total

Johnston CTAF: 122.725

KJQF Ground/Tower (Archives)
Concord, North Carolina, United States

Feed Status: UP
Listen in your browser - HTML5 player(in browser, HTML5)
Click here to listen with your own player(launches your MP3 player)

KJQF 241950Z 27004KT 10SM CLR 32/21 A3018

KJQF Airport Info (Airnav.com)

KJQF Flight Activity (Flightaware)

Listeners: 0 out of 2509 total

Concord Ground: 121.850
Concord Tower: 134.650

KJRA/KJRB CTAF #3 (Archives)
New York, New York, United States

Feed Status: UP
Listen in your browser - HTML5 player(in browser, HTML5)
Click here to listen with your own player(launches your MP3 player)


Listeners: 0 out of 2509 total

Hudson River/New York Harbor/KJRA West 30th Street Heliport: 123.050

KJWN ATIS (Archives)
Nashville, Tennessee, United States

Feed Status: UP
Listen in your browser - HTML5 player(in browser, HTML5)
Click here to listen with your own player(launches your MP3 player)

KJWN 241950Z 26004KT 10SM FEW033 FEW065 30/21 A3013

KJWN Airport Info (Airnav.com)

KJWN Flight Activity (Flightaware)

Listeners: 0 out of 2509 total

Tune ATIS: 127.075

KJWN Gnd/Twr (Archives)
Nashville, Tennessee, United States

Feed Status: UP
Listen in your browser - HTML5 player(in browser, HTML5)
Click here to listen with your own player(launches your MP3 player)

KJWN 241950Z 26004KT 10SM FEW033 FEW065 30/21 A3013

KJWN Airport Info (Airnav.com)

KJWN Flight Activity (Flightaware)

Listeners: 0 out of 2509 total

Tune Ground: 121.700
Tune Tower: 119.450

KJWN Ground (Archives)
Nashville, Tennessee, United States

Feed Status: UP
Listen in your browser - HTML5 player(in browser, HTML5)
Click here to listen with your own player(launches your MP3 player)

KJWN 241950Z 26004KT 10SM FEW033 FEW065 30/21 A3013

KJWN Airport Info (Airnav.com)

KJWN Flight Activity (Flightaware)

Listeners: 0 out of 2509 total

Tune Ground: 121.700

KJWN Tower (Archives)
Nashville, Tennessee, United States

Feed Status: UP
Listen in your browser - HTML5 player(in browser, HTML5)
Click here to listen with your own player(launches your MP3 player)

KJWN 241950Z 26004KT 10SM FEW033 FEW065 30/21 A3013

KJWN Airport Info (Airnav.com)

KJWN Flight Activity (Flightaware)

Listeners: 1 out of 2509 total

Tune Tower: 119.450

KJWY/2TS6 CTAF/Unicom (Archives)
Midlothian/Waxahachie, Texas, United States

Feed Status: UP
Listen in your browser - HTML5 player(in browser, HTML5)
Click here to listen with your own player(launches your MP3 player)

KJWY 242015Z AUTO VRB05KT 10SM FEW037 30/21 A3012 RMK AO2 T03010211 TSNO $

KJWY Airport Info (Airnav.com)

KJWY Flight Activity (Flightaware)

Listeners: 1 out of 2509 total

Mid-Way CTAF/UNICOM: 122.975

KJYO AWOS (Archives)
Leesburg, Virginia, United States

Feed Status: UP
Listen in your browser - HTML5 player(in browser, HTML5)
Click here to listen with your own player(launches your MP3 player)

KJYO 242015Z AUTO 21005KT 10SM -RA SCT050 SCT070 OVC090 23/23 A3012 RMK AO2 P0001

KJYO Airport Info (Airnav.com)

KJYO Flight Activity (Flightaware)

Listeners: 0 out of 2509 total

Leesburg AWOS: 125.225

KJYO CTAF/Tower
Leesburg, Virginia, United States

Feed Status: DOWN
Offline since: 2024-06-19 21:53:39 UTC

KJYO 242015Z AUTO 21005KT 10SM -RA SCT050 SCT070 OVC090 23/23 A3012 RMK AO2 P0001

KJYO Airport Info (Airnav.com)

Leesburg Tower/CTAF: 127.500

KJYO Del/Gnd (Archives)
Leesburg, Virginia, United States

Feed Status: UP
Listen in your browser - HTML5 player(in browser, HTML5)
Click here to listen with your own player(launches your MP3 player)

KJYO 242015Z AUTO 21005KT 10SM -RA SCT050 SCT070 OVC090 23/23 A3012 RMK AO2 P0001

KJYO Airport Info (Airnav.com)

KJYO Flight Activity (Flightaware)

Listeners: 0 out of 2509 total

Leesburg Clearance Delivery (Potomac TRACON): 118.550
Leesburg Ground: 120.500

KJYO Del/Gnd/Twr/CTAF
Leesburg, Virginia, United States

Feed Status: DOWN
Offline since: 2024-07-01 07:50:05 UTC

KJYO 242015Z AUTO 21005KT 10SM -RA SCT050 SCT070 OVC090 23/23 A3012 RMK AO2 P0001

KJYO Airport Info (Airnav.com)

Leesburg Clearance Delivery (Potomac TRACON): 118.550
Leesburg Ground: 120.500
Leesburg Tower/CTAF: 127.500

ZDC Sectors 12/04 (Archives)
Leesburg, Virginia, United States

Feed Status: UP
Listen in your browser - HTML5 player(in browser, HTML5)
Click here to listen with your own player(launches your MP3 player)

KIAD 242018Z 30010KT 4SM R01R/4500VP6000FT -TSRA FEW009 BKN022CB BKN065 OVC139 25/22 A3011 RMK AO2 WSHFT 1939 RAB09 TSB09 OCNL LTGIC N AND S TS N AND S MOV E P0000 T02500217

KIAD Airport Info (Airnav.com)

KIAD Flight Activity (Flightaware)

Listeners: 1 out of 2509 total

Washington Center (Sector 04 Pinion High): 133.975
Washington Center (Sector 12 Brooke High): 126.875
Washington Center (ZDC Guard Dog Low (Shared w/Potomac TRACON): 135.525

KJZI CTAF (Archives)
Charleston, South Carolina, United States

Feed Status: UP
Listen in your browser - HTML5 player(in browser, HTML5)
Click here to listen with your own player(launches your MP3 player)

KJZI 242015Z AUTO 20011KT 10SM CLR 30/25 A3019 RMK AO2 LTG DSNT N

KJZI Airport Info (Airnav.com)

KJZI Flight Activity (Flightaware)

Listeners: 0 out of 2509 total

Charleston CTAF: 122.800

L35 AWOS (Archives)
Big Bear City, California, United States

Feed Status: UP
Listen in your browser - HTML5 player(in browser, HTML5)
Click here to listen with your own player(launches your MP3 player)

KL35 242015Z AUTO 05006KT 10SM BKN075 27/09 A3048 RMK AO2

KL35 Airport Info (Airnav.com)

KL35 Flight Activity (Flightaware)

Listeners: 0 out of 2509 total

Big Bear AWOS: 135.925

KLAF App/Dep (Archives)
Lafayette, Indiana, United States

Feed Status: UP
Listen in your browser - HTML5 player(in browser, HTML5)
Click here to listen with your own player(launches your MP3 player)

KLAF 241954Z 30005KT 10SM FEW060 BKN120 24/19 A3012 RMK AO2 SLP196 T02390194

KLAF Airport Info (Airnav.com)

KLAF Flight Activity (Flightaware)

Listeners: 0 out of 2509 total

Grissom Approach: 123.850

KLAF ATIS (Archives)
Lafayette, Indiana, United States

Feed Status: UP
Listen in your browser - HTML5 player(in browser, HTML5)
Click here to listen with your own player(launches your MP3 player)

KLAF 241954Z 30005KT 10SM FEW060 BKN120 24/19 A3012 RMK AO2 SLP196 T02390194

KLAF Airport Info (Airnav.com)

KLAF Flight Activity (Flightaware)

Listeners: 0 out of 2509 total

Lafayette ATIS: 127.750

KLAF Ground (Archives)
Lafayette, Indiana, United States

Feed Status: UP
Listen in your browser - HTML5 player(in browser, HTML5)
Click here to listen with your own player(launches your MP3 player)

KLAF 241954Z 30005KT 10SM FEW060 BKN120 24/19 A3012 RMK AO2 SLP196 T02390194

KLAF Airport Info (Airnav.com)

KLAF Flight Activity (Flightaware)

Listeners: 0 out of 2509 total

Lafayette Ground: 121.900

KLAF Tower (Archives)
Lafayette, Indiana, United States

Feed Status: UP
Listen in your browser - HTML5 player(in browser, HTML5)
Click here to listen with your own player(launches your MP3 player)

KLAF 241954Z 30005KT 10SM FEW060 BKN120 24/19 A3012 RMK AO2 SLP196 T02390194

KLAF Airport Info (Airnav.com)

KLAF Flight Activity (Flightaware)

Listeners: 0 out of 2509 total

Lafayette Tower: 119.600

KLAL ATIS (Archives)
Lakeland, Florida, United States

Feed Status: UP
Listen in your browser - HTML5 player(in browser, HTML5)
Click here to listen with your own player(launches your MP3 player)

KLAL 241950Z 05005KT 10SM BKN047 34/21 A3014

KLAL Airport Info (Airnav.com)

KLAL Flight Activity (Flightaware)

Listeners: 1 out of 2509 total

Lakeland ATIS: 118.025

KLAL Ground/Advisory (Archives)
Lakeland, Florida, United States

Feed Status: UP
Listen in your browser - HTML5 player(in browser, HTML5)
Click here to listen with your own player(launches your MP3 player)

KLAL 241950Z 05005KT 10SM BKN047 34/21 A3014

KLAL Airport Info (Airnav.com)

KLAL Flight Activity (Flightaware)

Listeners: 1 out of 2509 total

Lakeland Ground: 121.400
Lakeland Helicopter: 123.025
Lakeland IFR Ground Control: 127.100
Paradise City Advisory: 123.625
Sun 'n Fun Ground Advisory: 126.075
Warbird Parking Advisory: 125.025

KLAL Tower (Archives)
Lakeland, Florida, United States

Feed Status: UP
Listen in your browser - HTML5 player(in browser, HTML5)
Click here to listen with your own player(launches your MP3 player)

KLAL 241950Z 05005KT 10SM BKN047 34/21 A3014

KLAL Airport Info (Airnav.com)

KLAL Flight Activity (Flightaware)

Listeners: 1 out of 2509 total

Lakeland Tower: 124.500

KLAL Tower #2 (Archives)
Lakeland, Florida, United States

Feed Status: UP
Listen in your browser - HTML5 player(in browser, HTML5)
Click here to listen with your own player(launches your MP3 player)

KLAL 241950Z 05005KT 10SM BKN047 34/21 A3014

KLAL Airport Info (Airnav.com)

KLAL Flight Activity (Flightaware)

Listeners: 0 out of 2509 total

Lakeland Tower: 124.500

Tampa App/Dep (KLAL Area) (Archives)
Lakeland, Florida, United States

Feed Status: UP
Listen in your browser - HTML5 player(in browser, HTML5)
Click here to listen with your own player(launches your MP3 player)

KLAL 241950Z 05005KT 10SM BKN047 34/21 A3014

KLAL Airport Info (Airnav.com)

KLAL Flight Activity (Flightaware)

Listeners: 0 out of 2509 total

Tampa Approach (East of TPA 4000'/below): 119.900
Tampa Approach (Lakeland Area): 120.650

KLBF CTAF/Denver Center
North Platte, Nebraska, United States

Feed Status: DOWN
Offline since: 2024-06-03 00:13:39 UTC

KLBF 241953Z AUTO 09007KT 6SM HZ CLR 34/11 A3015 RMK AO2 SLP179 T03440106

KLBF Airport Info (Airnav.com)

Denver Center (Sector 19 North Platte Low): 132.700
North Platte CTAF: 123.000

KLBX CTAF
Angleton/Lake Jackson, Texas, United States

Feed Status: DOWN
Offline since: 2023-10-03 17:35:40 UTC

KLBX 242012Z AUTO 16007KT 9SM -RA FEW006 SCT095 24/24 A3009 RMK AO2 P0000 T02440244

KLBX Airport Info (Airnav.com)

KLBX CTAF: 123.000

KLCI AWOS (Archives)
Laconia, New Hampshire, United States

Feed Status: UP
Listen in your browser - HTML5 player(in browser, HTML5)
Click here to listen with your own player(launches your MP3 player)

KLCI 241956Z AUTO 13007KT 10SM OVC023 23/18 A3016 RMK AO2 SLP212 T02280178 PNO $

KLCI Airport Info (Airnav.com)

KLCI Flight Activity (Flightaware)

Listeners: 0 out of 2509 total

Laconia AWOS: 133.525

KLCI Clearance Delivery (Archives)
Laconia, New Hampshire, United States

Feed Status: UP
Listen in your browser - HTML5 player(in browser, HTML5)
Click here to listen with your own player(launches your MP3 player)

KLCI 241956Z AUTO 13007KT 10SM OVC023 23/18 A3016 RMK AO2 SLP212 T02280178 PNO $

KLCI Airport Info (Airnav.com)

KLCI Flight Activity (Flightaware)

Listeners: 0 out of 2509 total

Laconia Clearance Delivery (Boston Approach): 119.850

KLCI Del/CTAF (Archives)
Laconia, New Hampshire, United States

Feed Status: UP
Listen in your browser - HTML5 player(in browser, HTML5)
Click here to listen with your own player(launches your MP3 player)

KLCI 241956Z AUTO 13007KT 10SM OVC023 23/18 A3016 RMK AO2 SLP212 T02280178 PNO $

KLCI Airport Info (Airnav.com)

KLCI Flight Activity (Flightaware)

Listeners: 0 out of 2509 total

Laconia CTAF: 123.000

KLCK ATIS/AWOS (Archives)
Columbus, Ohio, United States

Feed Status: UP
Listen in your browser - HTML5 player(in browser, HTML5)
Click here to listen with your own player(launches your MP3 player)

KLCK 241955Z AUTO 26013G18KT 10SM SCT047 BKN055 BKN065 30/19 A3009 RMK AO2 T02990194

KLCK Airport Info (Airnav.com)

KLCK Flight Activity (Flightaware)

Listeners: 0 out of 2509 total

Rick ATIS/AWOS: 132.750

KLCK Del/Gnd (Archives)
Columbus, Ohio, United States

Feed Status: UP
Listen in your browser - HTML5 player(in browser, HTML5)
Click here to listen with your own player(launches your MP3 player)

KLCK 241955Z AUTO 26013G18KT 10SM SCT047 BKN055 BKN065 30/19 A3009 RMK AO2 T02990194

KLCK Airport Info (Airnav.com)

KLCK Flight Activity (Flightaware)

Listeners: 0 out of 2509 total

Rick Clearance Delivery/Ground: 125.275

KLCK Del/Gnd (UHF) (Archives)
Columbus, Ohio, United States

Feed Status: UP
Listen in your browser - HTML5 player(in browser, HTML5)
Click here to listen with your own player(launches your MP3 player)

KLCK 241955Z AUTO 26013G18KT 10SM SCT047 BKN055 BKN065 30/19 A3009 RMK AO2 T02990194

KLCK Airport Info (Airnav.com)

KLCK Flight Activity (Flightaware)

Listeners: 0 out of 2509 total

Rick Clearance Delivery/Ground (UHF/Military): 275.800

KLCK Emergency/Guard (Archives)
Columbus, Ohio, United States

Feed Status: UP
Listen in your browser - HTML5 player(in browser, HTML5)
Click here to listen with your own player(launches your MP3 player)

KLCK 241955Z AUTO 26013G18KT 10SM SCT047 BKN055 BKN065 30/19 A3009 RMK AO2 T02990194

KLCK Airport Info (Airnav.com)

KLCK Flight Activity (Flightaware)

Listeners: 0 out of 2509 total

Emergency/Guard: 121.500

KLCK Tower (Archives)
Columbus, Ohio, United States

Feed Status: UP
Listen in your browser - HTML5 player(in browser, HTML5)
Click here to listen with your own player(launches your MP3 player)

KLCK 241955Z AUTO 26013G18KT 10SM SCT047 BKN055 BKN065 30/19 A3009 RMK AO2 T02990194

KLCK Airport Info (Airnav.com)

KLCK Flight Activity (Flightaware)

Listeners: 0 out of 2509 total

Rick Tower: 120.050

KLCK Tower (UHF) (Archives)
Columbus, Ohio, United States

Feed Status: UP
Listen in your browser - HTML5 player(in browser, HTML5)
Click here to listen with your own player(launches your MP3 player)

KLCK 241955Z AUTO 26013G18KT 10SM SCT047 BKN055 BKN065 30/19 A3009 RMK AO2 T02990194

KLCK Airport Info (Airnav.com)

KLCK Flight Activity (Flightaware)

Listeners: 0 out of 2509 total

Rick Tower (UHF/Military): 348.400

KLCK UNICOM (Archives)
Columbus, Ohio, United States

Feed Status: UP
Listen in your browser - HTML5 player(in browser, HTML5)
Click here to listen with your own player(launches your MP3 player)

KLCK 241955Z AUTO 26013G18KT 10SM SCT047 BKN055 BKN065 30/19 A3009 RMK AO2 T02990194

KLCK Airport Info (Airnav.com)

KLCK Flight Activity (Flightaware)

Listeners: 0 out of 2509 total

Rick UNICOM: 122.950

KLEE App/Dep (Archives)
Leesburg, Florida, United States

Feed Status: UP
Listen in your browser - HTML5 player(in browser, HTML5)
Click here to listen with your own player(launches your MP3 player)

KLEE 241953Z 06008KT 10SM SCT085 32/24 A3015 RMK AO2 SLP208 T03170239

KLEE Airport Info (Airnav.com)

KLEE Flight Activity (Flightaware)

Listeners: 0 out of 2509 total

Orlando Approach: 135.300
Orlando Approach: 120.225

KLEE ASOS (Archives)
Leesburg, Florida, United States

Feed Status: UP
Listen in your browser - HTML5 player(in browser, HTML5)
Click here to listen with your own player(launches your MP3 player)

KLEE 241953Z 06008KT 10SM SCT085 32/24 A3015 RMK AO2 SLP208 T03170239

KLEE Airport Info (Airnav.com)

KLEE Flight Activity (Flightaware)

Listeners: 0 out of 2509 total

Leesburg ASOS: 134.325

KLEE Ground (Archives)
Leesburg, Florida, United States

Feed Status: UP
Listen in your browser - HTML5 player(in browser, HTML5)
Click here to listen with your own player(launches your MP3 player)

KLEE 241953Z 06008KT 10SM SCT085 32/24 A3015 RMK AO2 SLP208 T03170239

KLEE Airport Info (Airnav.com)

KLEE Flight Activity (Flightaware)

Listeners: 0 out of 2509 total

Leesburg Ground: 121.725

KLEE Tower (Archives)
Leesburg, Florida, United States

Feed Status: UP
Listen in your browser - HTML5 player(in browser, HTML5)
Click here to listen with your own player(launches your MP3 player)

KLEE 241953Z 06008KT 10SM SCT085 32/24 A3015 RMK AO2 SLP208 T03170239

KLEE Airport Info (Airnav.com)

KLEE Flight Activity (Flightaware)

Listeners: 0 out of 2509 total

Leesburg Tower: 119.350

KLFI Del/Gnd/Twr (Archives)
Hampton, Virginia, United States

Feed Status: UP
Listen in your browser - HTML5 player(in browser, HTML5)
Click here to listen with your own player(launches your MP3 player)

KLFI 241957Z AUTO 23012KT 10SM SCT030 SCT035 BKN170 30/23 A3009 RMK AO2 WSHFT 54 SLP196 $

KLFI Airport Info (Airnav.com)

KLFI Flight Activity (Flightaware)

Listeners: 1 out of 2509 total

Langley Clearance Delivery: 257.625
Langley Ground: 275.800
Langley Tower: 253.500
Langley Tower: 236.600
Norfolk Approach (Peninsula Sector)): 125.700
Norfolk Approach (West Feeder): 119.450
Norfolk Departure (Peninsula): 124.900

KLFK Emergency/Guard (Archives)
Lufkin, Texas, United States

Feed Status: UP
Listen in your browser - HTML5 player(in browser, HTML5)
Click here to listen with your own player(launches your MP3 player)

KLFK 241953Z AUTO 09006KT 10SM SCT024 SCT032 BKN055 28/24 A3008 RMK AO2 SLP183 T02830239

KLFK Airport Info (Airnav.com)

KLFK Flight Activity (Flightaware)

Listeners: 0 out of 2509 total

Emergency/Guard: 121.500

KLFK/KOCH CTAF (Archives)
Lufkin, Texas, United States

Feed Status: UP
Listen in your browser - HTML5 player(in browser, HTML5)
Click here to listen with your own player(launches your MP3 player)

KLFK 241953Z AUTO 09006KT 10SM SCT024 SCT032 BKN055 28/24 A3008 RMK AO2 SLP183 T02830239

KLFK Airport Info (Airnav.com)

KLFK Flight Activity (Flightaware)

Listeners: 0 out of 2509 total

Lufkin CTAF: 123.000

KLGB Clearance Delivery (Archives)
Long Beach, California, United States

Feed Status: UP
Listen in your browser - HTML5 player(in browser, HTML5)
Click here to listen with your own player(launches your MP3 player)

KLGB 241953Z 18006KT 10SM CLR 29/16 A3002 RMK AO2 SLP165 T02890161

KLGB Airport Info (Airnav.com)

KLGB Flight Activity (Flightaware)

Listeners: 0 out of 2509 total

Long Beach Clearance Delivery: 118.150

KLGB Ground (Archives)
Long Beach, California, United States

Feed Status: UP
Listen in your browser - HTML5 player(in browser, HTML5)
Click here to listen with your own player(launches your MP3 player)

KLGB 241953Z 18006KT 10SM CLR 29/16 A3002 RMK AO2 SLP165 T02890161

KLGB Airport Info (Airnav.com)

KLGB Flight Activity (Flightaware)

Listeners: 1 out of 2509 total

Long Beach Ground: 133.000

KLGB Tower (Archives)
Long Beach, California, United States

Feed Status: UP
Listen in your browser - HTML5 player(in browser, HTML5)
Click here to listen with your own player(launches your MP3 player)

KLGB 241953Z 18006KT 10SM CLR 29/16 A3002 RMK AO2 SLP165 T02890161

KLGB Airport Info (Airnav.com)

KLGB Flight Activity (Flightaware)

Listeners: 3 out of 2509 total

Long Beach Tower: 119.400

KCTJ/KLGC CTAF
LaGrange, Georgia, United States

Feed Status: DOWN
Offline since: 2024-06-21 16:09:38 UTC

KCCO 242035Z AUTO 03004KT 10SM VCTS SCT035 BKN045 BKN070 30/21 A3018 RMK AO2 LTG DSNT S T03010213

KCCO Airport Info (Airnav.com)

KCTJ/KLGC CTAF: 122.975

KLGD CTAF (Archives)
La Grande, Oregon, United States

Feed Status: UP
Listen in your browser - HTML5 player(in browser, HTML5)
Click here to listen with your own player(launches your MP3 player)

KLGD 241956Z AUTO 32005KT 8SM CLR 32/04 A3001 RMK AO2 SLP139 T03170039 $

KLGD Airport Info (Airnav.com)

KLGD Flight Activity (Flightaware)

Listeners: 0 out of 2509 total

La Grande CTAF: 122.800

KLGD Emergency/Guard (Archives)
La Grande, Oregon, United States

Feed Status: UP
Listen in your browser - HTML5 player(in browser, HTML5)
Click here to listen with your own player(launches your MP3 player)

KLGD 241956Z AUTO 32005KT 8SM CLR 32/04 A3001 RMK AO2 SLP139 T03170039 $

KLGD Airport Info (Airnav.com)

KLGD Flight Activity (Flightaware)

Listeners: 0 out of 2509 total

Emergency/Guard: 121.500

KLHZ CTAF (Archives)
Louisburg, North Carolina, United States

Feed Status: UP
Listen in your browser - HTML5 player(in browser, HTML5)
Click here to listen with your own player(launches your MP3 player)

KLHZ 242005Z AUTO 23005KT 5SM HZ SCT035 30/22 A3016 RMK AO2

KLHZ Airport Info (Airnav.com)

KLHZ Flight Activity (Flightaware)

Listeners: 0 out of 2509 total

Louisburg CTAF/UNICOM: 123.000
Louisburg GCO: 135.075
Raleigh Approach (East): 125.300

KLKU Air to Air (Archives)
Louisa, Virginia, United States

Feed Status: UP
Listen in your browser - HTML5 player(in browser, HTML5)
Click here to listen with your own player(launches your MP3 player)

KLKU 242015Z AUTO 18005KT 10SM SCT021 SCT036 BKN045 29/23 A3010 RMK AO2 T02850233

KLKU Airport Info (Airnav.com)

KLKU Flight Activity (Flightaware)

Listeners: 0 out of 2509 total

Air to Air: 122.750

KLKU CTAF #1 (Archives)
Louisa, Virginia, United States

Feed Status: UP
Listen in your browser - HTML5 player(in browser, HTML5)
Click here to listen with your own player(launches your MP3 player)

KLKU 242015Z AUTO 18005KT 10SM SCT021 SCT036 BKN045 29/23 A3010 RMK AO2 T02850233

KLKU Airport Info (Airnav.com)

KLKU Flight Activity (Flightaware)

Listeners: 0 out of 2509 total

Louisa CTAF: 122.975

KLKU Emergency/Guard (Archives)
Louisa, Virginia, United States

Feed Status: UP
Listen in your browser - HTML5 player(in browser, HTML5)
Click here to listen with your own player(launches your MP3 player)

KLKU 242015Z AUTO 18005KT 10SM SCT021 SCT036 BKN045 29/23 A3010 RMK AO2 T02850233

KLKU Airport Info (Airnav.com)

KLKU Flight Activity (Flightaware)

Listeners: 0 out of 2509 total

Emergency/Guard: 121.500

KFTG/KEIK/KBDU/KLMO/Misc (Archives)
Longmont, Colorado, United States

Feed Status: UP
Listen in your browser - HTML5 player(in browser, HTML5)
Click here to listen with your own player(launches your MP3 player)

KDEN 241953Z 00000KT 8SM FEW140 33/03 A3030 RMK AO2 SLP173 T03330033

KDEN Airport Info (Airnav.com)

KDEN Flight Activity (Flightaware)

Listeners: 2 out of 2509 total

Air-to-Air Fixed Wing: 122.750
Air-to-Air Informal: 123.450
Boulder CTAF: 122.725
Erie CTAF: 123.000
Front Range Tower: 120.200
KBKF Tower: 121.000
Longmont CTAF: 122.975
MULTICOM: 122.900
UNICOM: 122.950

KLMO CTAF (Archives)
Longmont, Colorado, United States

Feed Status: UP
Listen in your browser - HTML5 player(in browser, HTML5)
Click here to listen with your own player(launches your MP3 player)

KLMO 242015Z AUTO 10009KT 10SM CLR 36/02 A3029 RMK AO2 T03600020

KLMO Airport Info (Airnav.com)

KLMO Flight Activity (Flightaware)

Listeners: 0 out of 2509 total

Longmont CTAF: 122.975

KLNA CTAF
West Palm Beach, Florida, United States

Feed Status: DOWN
Offline since: 2024-07-19 11:33:40 UTC

KPBI 241953Z 11014KT 10SM SCT025 SCT041 33/26 A3016 RMK AO2 SLP211 T03280261 $

KPBI Airport Info (Airnav.com)

Lantana CTAF: 122.700

West Palm Beach Area CTAFs (Archives)
West Palm Beach, Florida, United States

Feed Status: UP
Listen in your browser - HTML5 player(in browser, HTML5)
Click here to listen with your own player(launches your MP3 player)

KPBI 241953Z 11014KT 10SM SCT025 SCT041 33/26 A3016 RMK AO2 SLP211 T03280261 $

KPBI Airport Info (Airnav.com)

KPBI Flight Activity (Flightaware)

Listeners: 0 out of 2509 total

Emergency/Guard: 121.500
Lantana CTAF: 122.700
North County CTAF: 123.075
St Marys Hospital Heliport: 122.800
Wellington CTAF: 122.850

KLNS Ground/Tower (Archives)
Lancaster, Pennsylvania, United States

Feed Status: UP
Listen in your browser - HTML5 player(in browser, HTML5)
Click here to listen with your own player(launches your MP3 player)

KLNS 241953Z 15012KT 10SM SCT030 SCT037 BKN055 28/21 A3007 RMK AO2 SLP180 T02830211

KLNS Airport Info (Airnav.com)

KLNS Flight Activity (Flightaware)

Listeners: 3 out of 2509 total

Lancaster Ground: 121.800
Lancaster Tower: 120.900

KLNS Tower (Archives)
Lancaster, Pennsylvania, United States

Feed Status: UP
Listen in your browser - HTML5 player(in browser, HTML5)
Click here to listen with your own player(launches your MP3 player)

KLNS 241953Z 15012KT 10SM SCT030 SCT037 BKN055 28/21 A3007 RMK AO2 SLP180 T02830211

KLNS Airport Info (Airnav.com)

KLNS Flight Activity (Flightaware)

Listeners: 0 out of 2509 total

Lancaster Tower: 120.900

KLOT ATIS
Chicago/Romeoville, Illinois, United States

Feed Status: DOWN
Offline since: 2024-07-17 22:42:40 UTC

KLOT 241945Z 05008KT 10SM SCT043 SCT060 25/20 A3014

KLOT Airport Info (Airnav.com)

Lewis ATIS: 126.675

KLOT Ground (Archives)
Chicago/Romeoville, Illinois, United States

Feed Status: UP
Listen in your browser - HTML5 player(in browser, HTML5)
Click here to listen with your own player(launches your MP3 player)

KLOT 241945Z 05008KT 10SM SCT043 SCT060 25/20 A3014

KLOT Airport Info (Airnav.com)

KLOT Flight Activity (Flightaware)

Listeners: 0 out of 2509 total

Lewis Ground: 120.425

KLOT Ground/Tower (Archives)
Chicago/Romeoville, Illinois, United States

Feed Status: UP
Listen in your browser - HTML5 player(in browser, HTML5)
Click here to listen with your own player(launches your MP3 player)

KLOT 241945Z 05008KT 10SM SCT043 SCT060 25/20 A3014

KLOT Airport Info (Airnav.com)

KLOT Flight Activity (Flightaware)

Listeners: 0 out of 2509 total

Lewis Ground: 120.425
Lewis Tower: 134.800

KLOT Tower (Archives)
Chicago/Romeoville, Illinois, United States

Feed Status: UP
Listen in your browser - HTML5 player(in browser, HTML5)
Click here to listen with your own player(launches your MP3 player)

KLOT 241945Z 05008KT 10SM SCT043 SCT060 25/20 A3014

KLOT Airport Info (Airnav.com)

KLOT Flight Activity (Flightaware)

Listeners: 0 out of 2509 total

Lewis Tower: 134.800

KLOU ATIS (Archives)
Louisville, Kentucky, United States

Feed Status: UP
Listen in your browser - HTML5 player(in browser, HTML5)
Click here to listen with your own player(launches your MP3 player)

KLOU 241953Z 21010KT 10SM SCT050 29/20 A3011 RMK AO2 LTG DSNT N SLP192 T02940200

KLOU Airport Info (Airnav.com)

KLOU Flight Activity (Flightaware)

Listeners: 0 out of 2509 total

Bowman ATIS: 124.150

KLOU Del/Gnd (Archives)
Louisville, Kentucky, United States

Feed Status: UP
Listen in your browser - HTML5 player(in browser, HTML5)
Click here to listen with your own player(launches your MP3 player)

KLOU 241953Z 21010KT 10SM SCT050 29/20 A3011 RMK AO2 LTG DSNT N SLP192 T02940200

KLOU Airport Info (Airnav.com)

KLOU Flight Activity (Flightaware)

Listeners: 0 out of 2509 total

Bowman Clearance Delivery: 118.900
Bowman Ground: 121.800

KLOU Del/Gnd/Twr (Archives)
Louisville, Kentucky, United States

Feed Status: UP
Listen in your browser - HTML5 player(in browser, HTML5)
Click here to listen with your own player(launches your MP3 player)

KLOU 241953Z 21010KT 10SM SCT050 29/20 A3011 RMK AO2 LTG DSNT N SLP192 T02940200

KLOU Airport Info (Airnav.com)

KLOU Flight Activity (Flightaware)

Listeners: 0 out of 2509 total

Bowman Clearance Delivery: 118.900
Bowman Ground: 121.800
Bowman Tower: 119.500

KLOU Tower (Archives)
Louisville, Kentucky, United States

Feed Status: UP
Listen in your browser - HTML5 player(in browser, HTML5)
Click here to listen with your own player(launches your MP3 player)

KLOU 241953Z 21010KT 10SM SCT050 29/20 A3011 RMK AO2 LTG DSNT N SLP192 T02940200

KLOU Airport Info (Airnav.com)

KLOU Flight Activity (Flightaware)

Listeners: 1 out of 2509 total

Bowman Tower: 119.500

KLRD Ground/Tower (Archives)
Laredo, Texas, United States

Feed Status: UP
Listen in your browser - HTML5 player(in browser, HTML5)
Click here to listen with your own player(launches your MP3 player)

KLRD 241956Z 34010KT 10SM SCT045 SCT055 33/23 A3003 RMK AO2 LTG DSNT SE SLP163 T03330228

KLRD Airport Info (Airnav.com)

KLRD Flight Activity (Flightaware)

Listeners: 0 out of 2509 total

Laredo Ground: 121.800
Laredo Tower: 120.100
Laredo UNICOM: 122.950

KLRD Tower (Archives)
Laredo, Texas, United States

Feed Status: UP
Listen in your browser - HTML5 player(in browser, HTML5)
Click here to listen with your own player(launches your MP3 player)

KLRD 241956Z 34010KT 10SM SCT045 SCT055 33/23 A3003 RMK AO2 LTG DSNT SE SLP163 T03330228

KLRD Airport Info (Airnav.com)

KLRD Flight Activity (Flightaware)

Listeners: 0 out of 2509 total

Laredo Tower: 120.100

KLUF App/Dep (Archives)
Glendale, Arizona, United States

Feed Status: UP
Listen in your browser - HTML5 player(in browser, HTML5)
Click here to listen with your own player(launches your MP3 player)

KPHX 241951Z 25010G15KT 10SM FEW080 FEW130 FEW200 SCT270 44/15 A2995 RMK AO2 SLP116 T04390150

KPHX Airport Info (Airnav.com)

KPHX Flight Activity (Flightaware)

Listeners: 1 out of 2509 total

Luke Approach/Departure: 118.150
Luke Approach/Departure: 125.450
Luke Approach/Departure: 263.125
Luke Approach/Departure: 363.125
Luke Arrival: 120.500

KLUF Del/Gnd/Twr/Misc (Archives)
Glendale, Arizona, United States

Feed Status: UP
Listen in your browser - HTML5 player(in browser, HTML5)
Click here to listen with your own player(launches your MP3 player)

KPHX 241951Z 25010G15KT 10SM FEW080 FEW130 FEW200 SCT270 44/15 A2995 RMK AO2 SLP116 T04390150

KPHX Airport Info (Airnav.com)

KPHX Flight Activity (Flightaware)

Listeners: 1 out of 2509 total

Command Post (Raymond-18) : 349.400
Emergency/Guard: 243.000
In-Flight Emergencies: 291.100
Luke Clearance Delivery: 126.250
Luke Clearance Delivery: 273.475
Luke Ground: 335.800
Luke Ground: 133.175
Luke Tower: 119.100
Luke Tower: 379.900
PMSV - Metro/Weather: 267.400
PTD: 372.200
SOF: 369.000
SOF: 149.400

KLUK Twr/App/Dep (Archives)
Cincinnati, Ohio, United States

Feed Status: UP
Listen in your browser - HTML5 player(in browser, HTML5)
Click here to listen with your own player(launches your MP3 player)

KLUK 242028Z 26009KT 8SM VCTS BKN050 BKN070 30/19 A3010 RMK AO2 LTG DSNT S-W T0300018

KLUK Airport Info (Airnav.com)

KLUK Flight Activity (Flightaware)

Listeners: 0 out of 2509 total

Cincinnati Approach: 121.000
Cincinnati Departure: 128.700
Lunken Tower: 118.700

KLVJ CTAF (Archives)
Houston, Texas, United States

Feed Status: UP
Listen in your browser - HTML5 player(in browser, HTML5)
Click here to listen with your own player(launches your MP3 player)

KLVJ 241953Z AUTO 16008KT 10SM -RA BKN017 26/24 A3011 RMK AO2 SLP194 P0000 T02610244

KLVJ Airport Info (Airnav.com)

KLVJ Flight Activity (Flightaware)

Listeners: 0 out of 2509 total

Pearland CTAF: 122.725

KLVM CTAF (Archives)
Livingston, Montana, United States

Feed Status: UP
Listen in your browser - HTML5 player(in browser, HTML5)
Click here to listen with your own player(launches your MP3 player)

KBZN 241956Z 30017G25KT 10SM FEW110 32/12 A3016 RMK AO2 SLP165 T03170122

KBZN Airport Info (Airnav.com)

KBZN Flight Activity (Flightaware)

Listeners: 0 out of 2509 total

Livingston CTAF: 123.000

Boston Approach (North Satellite) (Archives)
Lawrence, Massachusetts, United States

Feed Status: UP
Listen in your browser - HTML5 player(in browser, HTML5)
Click here to listen with your own player(launches your MP3 player)

KLWM 242024Z 08008KT 10SM OVC014 22/18 A3017 RMK AO2 T02170178

KLWM Airport Info (Airnav.com)

KLWM Flight Activity (Flightaware)

Listeners: 0 out of 2509 total

Boston Approach (North Satellites, SFC-3500'): 124.400

KLWM Ground/Tower (Archives)
Lawrence, Massachusetts, United States

Feed Status: UP
Listen in your browser - HTML5 player(in browser, HTML5)
Click here to listen with your own player(launches your MP3 player)

KLWM 242024Z 08008KT 10SM OVC014 22/18 A3017 RMK AO2 T02170178

KLWM Airport Info (Airnav.com)

KLWM Flight Activity (Flightaware)

Listeners: 0 out of 2509 total

Eagle East Jet Service: 122.850
Emergency/Guard: 121.500
Lawrence Clearance (after hours, Boston Approach): 126.150
Lawrence Ground: 124.300
Lawrence Tower: 119.250
Northeast Executive Jet: 130.600

KLWS Ground/Tower (Archives)
Lewiston, Idaho, United States

Feed Status: UP
Listen in your browser - HTML5 player(in browser, HTML5)
Click here to listen with your own player(launches your MP3 player)

KLWS 241956Z VRB03KT 10SM CLR 33/03 A2993 RMK AO2 SLP123 T03280028

KLWS Airport Info (Airnav.com)

KLWS Flight Activity (Flightaware)

Listeners: 0 out of 2509 total

Lewiston Ground: 121.900
Lewiston Tower: 119.400

KLYH Ground (Archives)
Lynchburg, Virginia, United States

Feed Status: UP
Listen in your browser - HTML5 player(in browser, HTML5)
Click here to listen with your own player(launches your MP3 player)

KLYH 241954Z 27006KT 10SM CLR 29/21 A3015 RMK AO2 SLP197 T02890211

KLYH Airport Info (Airnav.com)

KLYH Flight Activity (Flightaware)

Listeners: 0 out of 2509 total

Lynchburg Ground: 121.900

KLYH Roanoke Approach (Archives)
Lynchburg, Virginia, United States

Feed Status: UP
Listen in your browser - HTML5 player(in browser, HTML5)
Click here to listen with your own player(launches your MP3 player)

KLYH 241954Z 27006KT 10SM CLR 29/21 A3015 RMK AO2 SLP197 T02890211

KLYH Airport Info (Airnav.com)

KLYH Flight Activity (Flightaware)

Listeners: 0 out of 2509 total

Roanoke Approach: 135.000

KLYH Tower (Archives)
Lynchburg, Virginia, United States

Feed Status: UP
Listen in your browser - HTML5 player(in browser, HTML5)
Click here to listen with your own player(launches your MP3 player)

KLYH 241954Z 27006KT 10SM CLR 29/21 A3015 RMK AO2 SLP197 T02890211

KLYH Airport Info (Airnav.com)

KLYH Flight Activity (Flightaware)

Listeners: 0 out of 2509 total

Lynchburg Tower: 127.650

Atlanta App/Dep (SAT-P) (Archives)
Lawrenceville, Georgia, United States

Feed Status: UP
Listen in your browser - HTML5 player(in browser, HTML5)
Click here to listen with your own player(launches your MP3 player)

KLZU 241956Z VRB03KT 10SM CLR A3018 RMK AO2 SLPNO $

KLZU Airport Info (Airnav.com)

KLZU Flight Activity (Flightaware)

Listeners: 0 out of 2509 total

Atlanta Approach/Departure (SAT-P): 126.975

KLZU Tower (Archives)
Lawrenceville, Georgia, United States

Feed Status: UP
Listen in your browser - HTML5 player(in browser, HTML5)
Click here to listen with your own player(launches your MP3 player)

KLZU 241956Z VRB03KT 10SM CLR A3018 RMK AO2 SLPNO $

KLZU Airport Info (Airnav.com)

KLZU Flight Activity (Flightaware)

Listeners: 0 out of 2509 total

Gwinnett Tower: 124.100

KMAN CTAF
Nampa, Idaho, United States

Feed Status: DOWN
Offline since: 2024-05-27 02:24:05 UTC

KMAN 242015Z AUTO VRB04G10KT 7SM CLR 39/14 A3000 RMK A01

KMAN Airport Info (Airnav.com)

Nampa CTAF: 122.700

KMCC CTAF/Del/Gnd/Twr (Archives)
Sacramento, California, United States

Feed Status: UP
Listen in your browser - HTML5 player(in browser, HTML5)
Click here to listen with your own player(launches your MP3 player)

KMCC 242015Z AUTO 18008G17KT 150V210 10SM CLR 38/01 A2996 RMK AO2 PWINO

KMCC Airport Info (Airnav.com)

KMCC Flight Activity (Flightaware)

Listeners: 2 out of 2509 total

McClellan Clearance Delivery: 119.825
McClellan CTAF: 122.975
McClellan Ground (temp): 133.150
McClellan Tower (temp): 132.300

KMCO App/Dep (North Satellite) (Archives)
Orlando, Florida, United States

Feed Status: UP
Listen in your browser - HTML5 player(in browser, HTML5)
Click here to listen with your own player(launches your MP3 player)

KORL 241953Z 14011G18KT 10SM FEW065 34/24 A3015 RMK AO2 SLP210 T03440239

KORL Airport Info (Airnav.com)

KORL Flight Activity (Flightaware)

Listeners: 0 out of 2509 total

Orlando Approach (North Satellite): 135.300

KMDH Ground/Tower (Archives)
Carbondale/Murphysboro, Illinois, United States

Feed Status: UP
Listen in your browser - HTML5 player(in browser, HTML5)
Click here to listen with your own player(launches your MP3 player)

KMDH 241952Z 22008KT 10SM FEW043 31/21 A3012 RMK AO2 SLP194 T03110211

KMDH Airport Info (Airnav.com)

KMDH Flight Activity (Flightaware)

Listeners: 0 out of 2509 total

Carbondale Ground: 121.800
Carbondale Tower: 126.250
Carbondale Tower: 125.350

KMDT App/Dep (East) (Archives)
Harrisburg, Pennsylvania, United States

Feed Status: UP
Listen in your browser - HTML5 player(in browser, HTML5)
Click here to listen with your own player(launches your MP3 player)

KMDT 241956Z 22007KT 10SM FEW035 SCT050 OVC220 30/21 A3005 RMK AO2 SLP175 T03000206

KMDT Airport Info (Airnav.com)

KMDT Flight Activity (Flightaware)

Listeners: 0 out of 2509 total

Harrisburg App/Dep (East): 126.450

KMDT App/Dep (East/West) (Archives)
Harrisburg, Pennsylvania, United States

Feed Status: UP
Listen in your browser - HTML5 player(in browser, HTML5)
Click here to listen with your own player(launches your MP3 player)

KMDT 241956Z 22007KT 10SM FEW035 SCT050 OVC220 30/21 A3005 RMK AO2 SLP175 T03000206

KMDT Airport Info (Airnav.com)

KMDT Flight Activity (Flightaware)

Listeners: 0 out of 2509 total

Harrisburg App/Dep (East): 126.450
Harrisburg App/Dep (North): 118.250
Harrisburg App/Dep (West): 124.100

KMDT App/Dep (North) (Archives)
Harrisburg, Pennsylvania, United States

Feed Status: UP
Listen in your browser - HTML5 player(in browser, HTML5)
Click here to listen with your own player(launches your MP3 player)

KMDT 241956Z 22007KT 10SM FEW035 SCT050 OVC220 30/21 A3005 RMK AO2 SLP175 T03000206

KMDT Airport Info (Airnav.com)

KMDT Flight Activity (Flightaware)

Listeners: 0 out of 2509 total

Harrisburg App/Dep (North): 118.250

KMDT App/Dep (West) (Archives)
Harrisburg, Pennsylvania, United States

Feed Status: UP
Listen in your browser - HTML5 player(in browser, HTML5)
Click here to listen with your own player(launches your MP3 player)

KMDT 241956Z 22007KT 10SM FEW035 SCT050 OVC220 30/21 A3005 RMK AO2 SLP175 T03000206

KMDT Airport Info (Airnav.com)

KMDT Flight Activity (Flightaware)

Listeners: 0 out of 2509 total

Harrisburg App/Dep (West): 124.100

KMDT ATIS (Archives)
Harrisburg, Pennsylvania, United States

Feed Status: UP
Listen in your browser - HTML5 player(in browser, HTML5)
Click here to listen with your own player(launches your MP3 player)

KMDT 241956Z 22007KT 10SM FEW035 SCT050 OVC220 30/21 A3005 RMK AO2 SLP175 T03000206

KMDT Airport Info (Airnav.com)

KMDT Flight Activity (Flightaware)

Listeners: 0 out of 2509 total

Harrisburg ATIS: 118.800

KMDT Emergency/Ground (Archives)
Harrisburg, Pennsylvania, United States

Feed Status: UP
Listen in your browser - HTML5 player(in browser, HTML5)
Click here to listen with your own player(launches your MP3 player)

KMDT 241956Z 22007KT 10SM FEW035 SCT050 OVC220 30/21 A3005 RMK AO2 SLP175 T03000206

KMDT Airport Info (Airnav.com)

KMDT Flight Activity (Flightaware)

Listeners: 0 out of 2509 total

Emergency/Guard: 121.500

KMDT Ground (Archives)
Harrisburg, Pennsylvania, United States

Feed Status: UP
Listen in your browser - HTML5 player(in browser, HTML5)
Click here to listen with your own player(launches your MP3 player)

KMDT 241956Z 22007KT 10SM FEW035 SCT050 OVC220 30/21 A3005 RMK AO2 SLP175 T03000206

KMDT Airport Info (Airnav.com)

KMDT Flight Activity (Flightaware)

Listeners: 0 out of 2509 total

Harrisburg Ground: 121.700

KMDT Tower (Archives)
Harrisburg, Pennsylvania, United States

Feed Status: UP
Listen in your browser - HTML5 player(in browser, HTML5)
Click here to listen with your own player(launches your MP3 player)

KMDT 241956Z 22007KT 10SM FEW035 SCT050 OVC220 30/21 A3005 RMK AO2 SLP175 T03000206

KMDT Airport Info (Airnav.com)

KMDT Flight Activity (Flightaware)

Listeners: 0 out of 2509 total

Harrisburg Tower: 124.800

KMFD ATIS (Archives)
Mansfield, Ohio, United States

Feed Status: UP
Listen in your browser - HTML5 player(in browser, HTML5)
Click here to listen with your own player(launches your MP3 player)

KMFD 241952Z 26012G21KT 9SM FEW042 29/17 A3010 RMK AO2 LTG DSNT S SLP183 T02890172

KMFD Airport Info (Airnav.com)

KMFD Flight Activity (Flightaware)

Listeners: 0 out of 2509 total

Mansfield ATIS: 125.300

KMFR App/Dep (Archives)
Medford, Oregon, United States

Feed Status: UP
Listen in your browser - HTML5 player(in browser, HTML5)
Click here to listen with your own player(launches your MP3 player)

KMFR 241953Z VRB05KT 10SM CLR 32/08 A3002 RMK AO2 SLP153 T03170078

KMFR Airport Info (Airnav.com)

KMFR Flight Activity (Flightaware)

Listeners: 1 out of 2509 total

Cascade Approach/Departure: 124.300

KMFR Emergency/Guard (Archives)
Medford, Oregon, United States

Feed Status: UP
Listen in your browser - HTML5 player(in browser, HTML5)
Click here to listen with your own player(launches your MP3 player)

KMFR 241953Z VRB05KT 10SM CLR 32/08 A3002 RMK AO2 SLP153 T03170078

KMFR Airport Info (Airnav.com)

KMFR Flight Activity (Flightaware)

Listeners: 0 out of 2509 total

Emergency/Guard: 121.500

KMFR Ground (Archives)
Medford, Oregon, United States

Feed Status: UP
Listen in your browser - HTML5 player(in browser, HTML5)
Click here to listen with your own player(launches your MP3 player)

KMFR 241953Z VRB05KT 10SM CLR 32/08 A3002 RMK AO2 SLP153 T03170078

KMFR Airport Info (Airnav.com)

KMFR Flight Activity (Flightaware)

Listeners: 0 out of 2509 total

Medford Ground: 121.800

KMFR Ground/Tower (Archives)
Medford, Oregon, United States

Feed Status: UP
Listen in your browser - HTML5 player(in browser, HTML5)
Click here to listen with your own player(launches your MP3 player)

KMFR 241953Z VRB05KT 10SM CLR 32/08 A3002 RMK AO2 SLP153 T03170078

KMFR Airport Info (Airnav.com)

KMFR Flight Activity (Flightaware)

Listeners: 1 out of 2509 total

Medford Ground: 121.800
Medford Tower: 119.400

Atlanta Approach (N. Sat) (Archives)
Marietta, Georgia, United States

Feed Status: UP
Listen in your browser - HTML5 player(in browser, HTML5)
Click here to listen with your own player(launches your MP3 player)

KRYY 241950Z 34005KT 10SM BKN030 28/22 A3022 RMK AO2 SLPNO T02800220 $

KRYY Airport Info (Airnav.com)

KRYY Flight Activity (Flightaware)

Listeners: 2 out of 2509 total

Atlanta Approach (North Satellite): 121.000

KMGE Ground (Archives)
Marietta, Georgia, United States

Feed Status: UP
Listen in your browser - HTML5 player(in browser, HTML5)
Click here to listen with your own player(launches your MP3 player)

KRYY 241950Z 34005KT 10SM BKN030 28/22 A3022 RMK AO2 SLPNO T02800220 $

KRYY Airport Info (Airnav.com)

KRYY Flight Activity (Flightaware)

Listeners: 0 out of 2509 total

Dobbins Ground: 125.300

KMGE Tower (Archives)
Marietta, Georgia, United States

Feed Status: UP
Listen in your browser - HTML5 player(in browser, HTML5)
Click here to listen with your own player(launches your MP3 player)

KRYY 241950Z 34005KT 10SM BKN030 28/22 A3022 RMK AO2 SLPNO T02800220 $

KRYY Airport Info (Airnav.com)

KRYY Flight Activity (Flightaware)

Listeners: 0 out of 2509 total

Dobbins Tower: 120.750

KMGJ CTAF
Montgomery, New York, United States

Feed Status: DOWN
Offline since: 2024-07-17 23:00:09 UTC

KSWF 241945Z VRB04KT 10SM SCT020 BKN050 28/21 A3008

KSWF Airport Info (Airnav.com)

Orange County CTAF: 122.725

KMGM App/Dep (Archives)
Montgomery, Alabama, United States

Feed Status: UP
Listen in your browser - HTML5 player(in browser, HTML5)
Click here to listen with your own player(launches your MP3 player)

KMGM 242025Z 34004KT 10SM FEW020 OVC026 26/23 A3014 RMK AO2 LTG DSNT N AND SE AND S T02610228

KMGM Airport Info (Airnav.com)

KMGM Flight Activity (Flightaware)

Listeners: 0 out of 2509 total

Montgomery Approach/Departure: 124.000

KMGM ATIS (Archives)
Montgomery, Alabama, United States

Feed Status: UP
Listen in your browser - HTML5 player(in browser, HTML5)
Click here to listen with your own player(launches your MP3 player)

KMGM 242025Z 34004KT 10SM FEW020 OVC026 26/23 A3014 RMK AO2 LTG DSNT N AND SE AND S T02610228

KMGM Airport Info (Airnav.com)

KMGM Flight Activity (Flightaware)

Listeners: 0 out of 2509 total

Montgomery ATIS: 120.675

KMGM Emergency/Guard (Archives)
Montgomery, Alabama, United States

Feed Status: UP
Listen in your browser - HTML5 player(in browser, HTML5)
Click here to listen with your own player(launches your MP3 player)

KMGM 242025Z 34004KT 10SM FEW020 OVC026 26/23 A3014 RMK AO2 LTG DSNT N AND SE AND S T02610228

KMGM Airport Info (Airnav.com)

KMGM Flight Activity (Flightaware)

Listeners: 0 out of 2509 total

Emergency/Guard: 121.500

KMGM Ground (Archives)
Montgomery, Alabama, United States

Feed Status: UP
Listen in your browser - HTML5 player(in browser, HTML5)
Click here to listen with your own player(launches your MP3 player)

KMGM 242025Z 34004KT 10SM FEW020 OVC026 26/23 A3014 RMK AO2 LTG DSNT N AND SE AND S T02610228

KMGM Airport Info (Airnav.com)

KMGM Flight Activity (Flightaware)

Listeners: 0 out of 2509 total

Montgomery Ground: 121.700

KMGM Ground/Tower (Archives)
Montgomery, Alabama, United States

Feed Status: UP
Listen in your browser - HTML5 player(in browser, HTML5)
Click here to listen with your own player(launches your MP3 player)

KMGM 242025Z 34004KT 10SM FEW020 OVC026 26/23 A3014 RMK AO2 LTG DSNT N AND SE AND S T02610228

KMGM Airport Info (Airnav.com)

KMGM Flight Activity (Flightaware)

Listeners: 0 out of 2509 total

Montgomery Approach/Departure: 124.000
Montgomery Ground: 121.700

KMGM Tower (Archives)
Montgomery, Alabama, United States

Feed Status: UP
Listen in your browser - HTML5 player(in browser, HTML5)
Click here to listen with your own player(launches your MP3 player)

KMGM 242025Z 34004KT 10SM FEW020 OVC026 26/23 A3014 RMK AO2 LTG DSNT N AND SE AND S T02610228

KMGM Airport Info (Airnav.com)

KMGM Flight Activity (Flightaware)

Listeners: 0 out of 2509 total

Montgomery Approach/Departure: 124.000
Montgomery Tower: 119.700

KMGM Tower/Approach (Archives)
Montgomery, Alabama, United States

Feed Status: UP
Listen in your browser - HTML5 player(in browser, HTML5)
Click here to listen with your own player(launches your MP3 player)

KMGM 242025Z 34004KT 10SM FEW020 OVC026 26/23 A3014 RMK AO2 LTG DSNT N AND SE AND S T02610228

KMGM Airport Info (Airnav.com)

KMGM Flight Activity (Flightaware)

Listeners: 0 out of 2509 total

Montgomery Approach/Departure: 124.000
Montgomery Tower: 119.700

KMGW ASOS (Archives)
Morgantown, West Virginia, United States

Feed Status: UP
Listen in your browser - HTML5 player(in browser, HTML5)
Click here to listen with your own player(launches your MP3 player)

KMGW 241953Z 17007KT 10SM SCT029 SCT050 28/20 A3014 RMK AO2 SLP195 T02780200

KMGW Airport Info (Airnav.com)

KMGW Flight Activity (Flightaware)

Listeners: 0 out of 2509 total

Morgantown ASOS Weather: 120.675

KMGW Ground (Archives)
Morgantown, West Virginia, United States

Feed Status: UP
Listen in your browser - HTML5 player(in browser, HTML5)
Click here to listen with your own player(launches your MP3 player)

KMGW 241953Z 17007KT 10SM SCT029 SCT050 28/20 A3014 RMK AO2 SLP195 T02780200

KMGW Airport Info (Airnav.com)

KMGW Flight Activity (Flightaware)

Listeners: 0 out of 2509 total

Morgantown Ground: 121.700

KMGW Ground/Tower (Archives)
Morgantown, West Virginia, United States

Feed Status: UP
Listen in your browser - HTML5 player(in browser, HTML5)